GFSSGP_con_mucape_021.txt.gz
CAPE
3 0 0 0 0 1 0 0 0 0 0 0 0 0 0 0 3 0 0 7 53 98 744 1249 1415 1043 752 593 359 199 139 65 6 0 0 0 0 0 0 0 0 0 0 0 0 0 0 0 0
0 0 0 0 0 0 0 0 0 0 0 0 0 0 0 0 4 17 1 30 90 231 637 774 1310 1130 956 707 517 317 169 92 8 0 0 0 0 0 0 0 0 0 0 0 0 0 0 0 0
0 0 0 0 0 0 0 31 12 2 0 0 0 0 0 2 5 61 21 46 202 302 485 434 1273 1186 1022 772 580 329 281 213 71 5 3 0 0 3 0 0 0 0 0 0 0 0 0 0 23
0 0 0 0 0 0 1 7 2 0 0 0 0 0 0 0 16 6 119 74 136 238 326 614 1224 1222 1101 858 660 431 392 304 214 112 40 31 14 46 35 0 0 0 0 42 58 133 125 139 116
0 0 0 0 0 0 0 0 0 0 0 0 0 0 0 0 2 97 136 96 65 141 186 509 1315 1260 1198 1005 824 516 436 381 319 277 181 93 153 143 59 37 40 47 74 106 188 257 414 504 438
0 0 0 0 0 0 0 0 0 0 1 0 0 0 0 0 1 158 112 79 31 44 49 383 1311 1306 1194 1050 887 632 535 507 508 513 480 415 414 344 140 115 133 152 211 343 476 627 814 900 732
0 0 0 0 0 0 0 0 0 0 0 0 0 0 0 0 9 118 169 119 67 8 7 279 562 838 1377 1157 993 839 765 693 688 686 682 682 752 718 614 571 428 387 518 745 854 907 843 761 723
0 0 0 0 0 0 0 0 0 0 0 0 0 1 0 0 15 22 243 186 132 8 0 96 283 392 422 730 1356 1050 937 854 815 839 841 891 1015 1021 1052 933 958 682 915 1116 1184 895 649 587 516
0 0 0 0 0 1 0 0 0 0 0 0 0 0 0 0 0 0 136 239 189 96 2 70 140 210 204 253 592 1172 1111 1056 976 956 1004 843 642 743 649 848 802 942 1235 1262 1146 942 725 432 372
0 0 0 0 0 0 0 0 0 0 0 0 0 0 0 0 0 0 1 57 229 194 162 120 111 119 161 98 170 631 591 556 600 542 592 667 638 589 548 701 930 963 1388 1267 1220 1061 623 469 168
0 0 0 0 0 0 0 0 0 0 0 0 0 0 0 0 0 0 0 0 0 138 203 193 154 93 74 31 65 450 439 459 588 535 515 679 598 552 741 543 677 1037 1345 1176 932 775 673 308 48
0 0 0 0 0 0 0 0 0 0 0 0 0 0 0 0 0 0 0 0 0 0 91 273 279 181 88 62 63 146 338 354 465 502 530 589 499 452 475 436 190 649 891 1082 809 549 376 125 111
0 0 0 0 0 0 0 0 0 0 0 0 0 0 0 0 0 0 0 0 0 0 0 149 409 369 221 128 106 143 313 236 330 468 529 515 409 304 329 261 193 391 659 756 628 415 324 241 238
0 0 0 0 0 0 0 0 0 0 0 0 0 0 0 0 0 0 0 0 0 0 0 0 439 455 395 311 219 214 249 238 319 504 533 517 343 271 275 157 262 429 463 489 472 476 454 400 311
0 0 0 0 0 0 0 0 0 0 0 0 0 0 0 0 0 0 0 0 0 0 0 0 226 510 529 506 431 367 333 328 394 510 577 503 408 344 297 178 500 577 403 492 667 614 533 545 452
0 0 0 0 0 0 0 0 0 0 0 0 0 0 0 0 0 0 0 0 0 0 0 0 28 404 534 594 578 556 484 460 360 480 538 480 470 443 388 505 708 658 561 792 757 599 592 686 687
0 0 0 0 0 0 0 0 0 0 0 0 0 0 0 0 0 0 0 0 0 0 0 0 0 314 542 657 671 624 604 586 488 450 490 559 567 524 707 555 752 624 819 735 631 651 751 834 655
0 0 0 0 0 0 0 0 0 0 0 0 0 0 0 0 0 0 0 0 0 0 0 0 0 240 580 702 724 680 683 738 741 688 638 703 687 784 774 633 701 683 693 674 751 805 875 643 459
0 0 0 0 0 0 0 0 0 0 0 0 0 0 0 0 0 0 0 0 0 0 0 0 0 231 721 838 835 839 829 905 954 953 920 890 817 1182 867 778 727 706 623 651 783 861 651 465 292
0 0 0 0 0 0 0 0 0 0 0 0 0 0 0 0 0 0 0 0 0 0 0 0 0 82 425 618 755 777 845 987 1100 1100 1057 1093 1339 1046 937 914 648 636 693 826 808 549 357 302 158
0 0 0 0 0 0 0 0 0 0 0 0 0 0 0 0 0 0 0 0 0 0 0 0 0 176 429 601 866 998 952 958 1173 1289 1415 1434 1121 1080 982 484 656 760 755 685 383 120 82 129 5
0 0 0 0 0 0 0 0 0 0 0 0 0 0 0 0 0 0 0 0 0 0 0 0 1 477 790 877 942 1102 1110 1157 1310 1345 1196 1104 796 914 651 677 689 572 463 285 54 0 20 43 51
0 0 0 0 0 0 0 0 0 0 0 0 0 0 0 0 0 0 0 0 0 0 14 263 643 1006 1142 1198 1069 1200 1231 1223 1163 1149 1103 772 892 639 664 588 518 297 305 0 0 3 1 48 78
0 0 0 0 0 0 0 0 0 0 0 0 0 0 0 0 0 0 35 65 256 825 1059 1126 1242 1373 1485 1542 1448 1224 1236 1244 1194 1177 1061 862 520 510 508 453 219 5 0 0 0 18 46 67 63
0 0 0 0 0 0 0 0 0 0 0 0 0 0 0 0 0 47 292 573 1183 1425 1531 1542 1632 1752 1823 1801 1724 1610 1482 1404 1283 1156 724 461 409 424 188 49 1 0 0 0 0 52 44 30 49
0 0 0 0 0 0 0 0 0 0 0 0 0 0 0 0 71 327 624 1128 1745 1738 1776 1854 1918 1974 1913 1759 1640 1502 1421 1312 1067 546 483 457 388 107 32 0 0 0 0 9 116 96 102 70 97
0 0 0 0 0 0 0 0 0 0 0 0 0 0 0 26 314 756 933 1111 1454 1648 1844 1888 1823 1735 1604 1551 1482 1370 1132 803 542 408 299 203 102 0 0 0 0 0 0 71 124 126 127 85 101
0 0 0 0 0 0 0 0 0 0 0 0 0 0 0 200 718 972 940 1035 1239 1485 1657 1656 1629 1509 1267 1062 761 599 522 407 330 270 165 42 3 0 0 0 0 0 13 58 90 86 75 44 78
1 0 0 0 0 0 0 0 0 0 0 0 0 0 2 445 928 994 982 1031 1178 1307 1419 1359 1240 1066 929 714 484 303 186 173 154 94 17 0 0 0 0 0 0 0 17 22 35 37 39 12 90
0 0 0 0 0 0 0 0 0 0 0 0 0 0 215 635 1030 1088 1149 1155 1112 1064 1044 956 798 618 371 171 137 55 71 54 10 0 0 0 0 0 0 0 1 12 11 14 36 36 68 65 108

GFSSGP_con_mucape_024.txt.gz
CAPE
0 0 0 0 0 0 0 0 0 0 0 0 0 0 4 0 0 0 0 0 0 40 934 1374 1530 1299 930 787 616 508 326 115 12 0 0 0 0 0 0 0 0 0 0 0 0 0 0 0 0
0 0 0 0 0 0 1 0 0 0 0 0 0 0 0 0 0 2 0 8 5 167 634 874 1564 1278 1154 858 646 529 359 161 50 0 0 0 0 0 0 0 0 0 0 0 0 0 0 0 0
0 0 0 0 0 1 1 0 0 2 0 0 0 0 0 0 0 17 5 59 62 234 494 515 1582 1341 1288 1014 701 526 367 230 120 43 26 25 25 24 9 0 0 0 0 0 0 0 0 0 0
0 0 0 0 0 0 0 7 5 10 0 0 0 0 0 0 0 2 18 111 96 155 360 595 1504 1366 1295 1164 911 599 484 369 236 185 131 88 53 60 49 0 0 0 0 2 0 0 0 0 0
0 0 0 0 0 0 0 0 0 4 0 0 0 0 0 2 0 21 40 111 118 186 242 463 1534 1413 1417 1302 1031 757 624 482 365 309 232 150 170 115 52 30 31 39 46 92 153 211 302 394 464
0 0 0 0 0 0 0 0 0 0 0 0 0 0 0 0 0 26 66 72 65 164 178 232 1376 1421 1437 1335 1102 842 689 585 510 430 358 280 283 224 90 77 74 104 162 220 272 367 567 953 766
0 0 0 0 0 0 0 0 0 0 0 0 0 0 0 0 0 87 100 70 44 49 111 128 765 995 1583 1310 1033 880 776 657 568 518 472 465 457 446 368 382 353 246 422 510 645 850 945 882 823
0 0 0 0 0 0 0 0 0 0 0 0 0 0 0 0 0 159 143 87 39 13 26 33 473 585 636 730 1294 1056 981 843 739 751 719 718 679 678 694 594 696 554 685 798 958 1005 898 695 645
0 0 0 0 0 0 0 0 0 0 0 0 0 0 0 0 0 1 90 168 140 88 45 26 146 307 364 370 606 1162 1016 1114 910 948 979 714 473 562 507 739 726 880 1115 1187 1290 1206 997 594 452
0 0 0 0 0 0 0 0 0 0 0 0 0 0 0 0 0 0 0 0 110 153 151 57 61 145 183 147 223 527 492 433 505 490 529 503 474 461 504 672 824 1017 1241 1304 1355 1278 873 558 301
0 0 0 0 0 0 0 0 0 0 0 0 0 0 0 0 0 0 0 0 1 55 141 167 98 76 100 73 68 222 371 330 434 417 383 442 423 473 672 472 658 696 1044 1068 1295 1142 787 438 218
0 0 0 0 0 0 0 0 0 0 0 0 0 0 0 0 0 0 0 0 0 0 31 176 200 160 91 79 82 82 229 212 301 330 325 353 360 325 442 317 349 578 695 1051 953 684 537 361 173
0 0 0 0 0 0 0 0 0 0 0 0 0 0 0 0 0 0 0 0 0 0 0 14 139 152 124 96 82 80 108 141 149 246 315 293 310 201 310 341 226 161 310 664 849 747 431 244 154
0 0 0 0 0 0 0 0 0 0 0 0 0 0 0 0 0 0 0 0 0 0 0 0 53 114 130 159 137 134 134 149 154 179 347 311 256 172 139 189 235 103 155 500 611 562 408 334 301
0 0 0 0 0 0 0 0 0 0 0 0 0 0 0 0 0 0 0 0 0 0 0 0 0 64 155 177 183 170 204 217 225 207 321 384 266 199 107 102 97 73 138 386 412 400 446 465 389
0 0 0 0 0 0 0 0 0 0 0 0 0 0 0 0 0 0 0 0 0 0 0 0 0 11 117 184 206 199 253 289 297 296 364 396 294 301 154 167 138 82 196 528 346 479 633 526 510
0 0 0 0 0 0 0 0 0 0 0 0 0 0 0 0 0 0 0 0 0 0 0 0 0 0 61 188 271 312 284 315 355 351 399 438 378 369 321 275 196 192 353 551 441 717 603 533 591
0 0 0 0 0 0 0 0 0 0 0 0 0 0 0 0 0 0 0 0 0 0 0 0 0 0 25 202 333 413 428 451 468 505 508 497 469 470 482 416 356 349 634 525 681 606 557 612 698
0 0 0 0 0 0 0 0 0 0 0 0 0 0 0 0 0 0 0 0 0 0 0 0 0 0 0 234 352 512 586 597 673 707 686 662 633 593 620 594 558 524 545 614 581 561 640 664 374
0 0 0 0 0 0 0 0 0 0 0 0 0 0 0 0 0 0 0 0 0 0 0 0 0 0 60 256 337 461 539 643 734 789 799 839 872 805 757 855 609 644 547 609 562 625 651 378 111
0 0 0 0 0 0 0 0 0 0 0 0 0 0 0 0 0 0 0 0 0 0 0 0 0 0 115 383 510 594 659 732 780 900 1029 1081 940 922 1113 878 679 732 594 593 708 622 336 42 1
0 0 0 0 0 0 0 0 0 0 0 0 0 0 0 0 0 0 0 0 0 0 0 0 0 0 55 415 576 623 674 728 837 1008 1132 1123 1083 1244 853 784 757 587 619 671 496 223 3 0 0
0 0 0 0 0 0 0 0 0 0 0 0 0 0 0 0 0 0 0 0 0 0 0 0 0 6 143 418 594 681 733 751 844 1084 1244 1370 1352 1014 929 868 528 639 600 307 168 0 0 0 0
0 0 0 0 0 0 0 0 0 0 0 0 0 0 0 0 0 0 0 2 9 204 492 247 175 359 464 589 700 821 914 910 1119 1330 1436 1337 906 672 573 572 624 523 247 2 0 0 0 0 6
0 0 0 0 0 0 0 0 0 0 0 0 0 0 0 0 0 0 0 116 306 1273 1646 785 695 834 908 994 1018 1078 1085 1098 1183 1185 1106 804 430 543 571 594 452 85 0 0 0 0 0 15 12
0 0 0 0 0 0 0 0 0 0 0 0 0 0 0 0 0 0 172 440 1511 1568 1176 1125 1187 1340 1424 1396 1370 1376 1365 1329 1217 1139 840 437 484 517 429 203 3 0 0 0 0 0 2 6 23
2 0 0 0 0 0 0 0 0 0 0 0 0 0 0 0 0 95 1010 1325 1467 1487 1491 1512 1608 1621 1581 1512 1444 1399 1351 1287 1101 546 381 363 378 209 62 0 0 0 0 0 19 55 77 73 65
0 0 0 0 0 0 0 0 0 0 0 0 0 0 0 0 63 1304 1030 1480 1488 1573 1600 1583 1565 1517 1441 1352 1258 1183 1112 819 456 365 326 209 87 0 0 0 0 0 0 18 50 78 79 76 38
2 0 0 0 0 0 0 0 0 0 0 0 0 0 0 0 678 1108 1025 1127 1364 1533 1541 1437 1359 1265 1158 1073 955 665 478 352 263 196 140 62 0 0 0 0 0 0 4 2 15 33 48 57 11
0 0 0 0 0 0 0 0 0 0 0 0 0 18 0 223 1422 906 960 1137 1368 1449 1370 1211 1004 802 604 386 269 171 162 139 119 71 14 0 0 0 0 0 0 0 0 0 0 27 47 33 16

GFSSGP_con_mucape_027.txt.gz
CAPE
0 0 0 0 0 0 0 0 0 0 0 0 0 0 3 3 1 16 2 98 62 144 705 1235 1559 1421 1219 992 909 879 808 767 618 521 396 171 100 34 0 0 0 0 0 0 0 0 0 0 0
0 0 0 0 0 0 0 0 0 0 0 0 0 0 0 0 0 0 6 118 95 549 1067 436 1606 1442 1275 1049 855 677 524 450 317 192 84 44 44 16 0 0 0 0 0 0 0 0 0 0 0
0 0 0 0 0 0 0 0 0 0 0 0 0 0 0 0 0 2 12 172 144 659 875 840 1661 1429 1356 1117 887 671 456 290 149 73 58 56 32 30 13 0 0 0 0 0 0 0 0 0 0
0 0 0 0 0 0 0 0 0 0 0 0 0 0 0 0 21 47 116 177 331 524 537 835 1658 1439 1436 1257 994 734 494 340 193 131 118 106 100 73 34 23 11 0 0 0 16 19 23 13 11
0 0 0 0 0 0 0 0 1 0 0 0 0 0 0 0 47 226 304 298 367 529 737 467 1734 1508 1568 1443 1137 850 639 458 281 221 205 197 158 150 115 66 14 15 29 45 65 115 258 312 345
0 0 0 0 0 0 0 13 2 13 5 0 0 0 0 0 59 334 374 489 420 582 792 419 1552 1541 1531 1539 1291 944 727 620 469 374 347 316 272 244 190 189 104 81 130 216 309 376 429 580 641
0 0 0 0 0 0 0 3 0 0 0 0 0 0 0 0 1 319 370 356 427 534 582 401 694 1136 1531 1455 1211 1067 830 751 586 476 421 463 526 390 338 351 367 426 553 661 742 679 748 988 919
0 0 0 0 0 0 0 0 0 0 0 0 0 0 0 0 177 334 315 297 295 375 429 387 474 655 454 465 1408 1213 1023 934 795 675 628 622 652 551 512 441 563 664 770 830 924 921 1017 927 727
0 0 0 0 0 0 0 0 0 0 0 0 0 0 0 0 167 331 401 360 307 205 335 369 304 706 423 263 551 1289 1243 1153 905 792 759 525 162 209 253 283 673 988 1067 1125 1093 1174 1277 891 657
0 0 0 0 0 0 0 0 0 0 0 0 0 0 0 0 0 0 6 40 310 490 341 251 420 510 584 155 479 727 522 445 632 374 386 409 379 334 221 390 798 1136 1187 1125 1292 1453 1209 773 461
0 0 0 0 0 0 0 0 0 0 0 0 0 0 0 0 0 0 0 0 0 1 329 365 349 527 567 463 402 660 955 786 1027 634 892 888 641 435 427 374 597 561 966 971 1271 1217 1033 705 599
0 0 0 0 0 0 0 0 0 0 0 0 0 0 0 0 0 0 0 0 0 0 0 516 390 554 960 586 301 214 368 593 519 535 1029 964 741 679 849 426 420 704 486 933 1301 1238 1182 1048 783
0 0 0 0 0 0 0 0 0 0 0 0 0 0 0 0 0 0 0 0 0 0 0 0 465 680 744 910 448 336 421 509 479 367 762 875 668 936 632 750 577 652 556 788 1258 1310 1260 1056 844
0 0 0 0 0 0 0 0 0 0 0 0 0 0 0 0 0 0 0 0 0 0 0 0 59 894 760 830 934 657 485 539 484 518 752 796 670 784 492 638 500 593 516 506 1048 1288 1241 1120 792
0 0 0 0 0 0 0 0 0 0 0 0 0 0 0 0 0 0 0 0 0 0 0 8 15 243 1215 1126 920 722 364 329 541 390 930 670 952 926 914 534 614 739 672 793 1182 1072 1084 1023 897
0 0 0 0 0 0 0 0 0 0 0 0 0 0 0 0 0 0 0 0 0 0 0 0 0 3 1146 1302 930 622 591 322 336 376 363 622 736 693 691 500 523 729 750 566 723 948 909 993 1068
0 0 0 0 0 0 0 0 0 0 0 0 0 0 0 0 0 0 0 0 0 0 0 0 0 0 691 1172 900 910 814 340 343 407 403 658 722 630 501 441 590 733 430 467 923 988 945 1435 1371
0 0 0 0 0 0 0 0 0 0 0 0 0 0 0 0 0 0 0 0 0 0 0 0 0 0 24 199 830 730 644 331 390 495 550 733 840 625 773 686 766 583 517 634 1015 1139 1220 1362 1313
0 0 0 0 0 0 0 0 0 0 0 0 0 0 0 0 0 0 0 0 0 0 0 0 0 0 0 150 432 684 753 671 581 598 786 860 825 717 880 676 730 681 667 933 1214 1201 1343 1174 658
0 0 0 0 0 0 0 0 0 0 0 0 0 0 0 0 0 0 0 0 0 0 0 0 0 0 0 249 722 724 845 854 870 756 814 939 957 1038 936 862 763 899 696 1376 1005 975 765 787 531
0 0 0 0 0 0 0 0 0 0 0 0 0 0 0 0 0 0 0 0 0 0 0 0 0 0 75 459 787 889 870 539 666 911 1085 1130 1065 1092 1057 899 722 783 1096 1035 853 1461 1257 989 267
0 0 0 0 0 0 0 0 0 0 0 0 0 0 0 0 0 0 0 0 0 0 0 0 0 0 108 807 870 1021 1044 830 806 732 1149 994 1163 1048 962 784 688 1011 1153 803 1430 1233 1174 868 551
0 0 0 0 0 0 0 0 0 0 0 0 0 0 0 0 0 0 0 0 0 0 0 227 8 0 89 781 1043 1222 1160 1179 1243 1225 1250 1324 1114 1188 930 831 1072 1354 778 780 1175 911 726 496 467
0 0 0 0 0 0 0 0 0 0 0 0 0 0 0 0 0 0 0 0 0 68 389 377 309 99 277 749 1058 1274 1347 1120 1169 1231 977 1103 1300 1189 1057 1050 1216 1272 1197 1114 771 635 611 493 405
0 0 0 0 0 0 0 0 0 0 0 0 0 0 0 0 0 0 0 0 196 618 617 471 619 605 700 888 1033 1185 1307 1282 1391 1404 1328 1291 1198 1153 1112 1135 1102 1006 810 578 486 562 553 510 509
17 0 0 0 0 0 0 0 0 0 0 0 0 0 0 0 0 0 0 314 701 915 647 1001 1029 947 918 875 851 960 1049 1131 1231 1322 1259 1004 969 990 878 862 770 529 300 334 482 513 583 670 589
39 4 0 0 0 0 0 0 0 0 0 0 0 0 0 0 0 0 412 796 1078 1049 1161 1255 1117 988 998 1018 1048 1099 1131 1131 1156 1026 969 816 807 668 584 512 342 155 212 378 611 648 791 734 582
64 23 0 0 0 0 0 0 0 0 0 0 0 0 0 6 1 195 1117 1578 1338 1296 1307 1377 1353 1297 1266 1251 1187 1144 1116 998 746 811 789 756 588 447 406 303 257 221 267 448 811 1047 884 811 670
1 47 16 0 0 0 0 0 0 0 0 0 0 0 106 10 206 1034 1515 1402 1361 1429 1466 1414 1334 1275 1212 1129 1071 1023 823 533 624 631 556 484 389 320 198 106 113 201 385 623 821 867 677 402 699
0 0 33 0 0 0 0 0 0 0 0 0 0 0 153 299 490 1302 1281 1332 1311 1374 1371 1293 1237 1150 1031 950 758 506 422 422 460 415 360 213 148 116 43 50 51 120 181 392 452 447 300 234 543

GFSSGP_con_mucape_030.txt.gz
CAPE
0 0 0 0 0 0 0 0 0 0 0 0 0 0 2 0 2 103 59 153 121 187 322 1233 1597 1577 1587 1430 1173 909 844 924 1045 1062 951 658 438 166 33 0 0 0 0 0 0 0 0 0 0
0 0 0 0 0 0 0 0 0 0 0 0 0 0 0 2 0 26 31 244 118 511 518 121 1489 1419 1480 1402 1305 1097 986 829 816 837 780 540 454 212 31 0 0 0 0 0 0 0 0 0 0
0 0 0 0 0 0 0 0 0 0 0 0 0 0 0 6 1 0 48 339 305 771 682 99 1501 1426 1456 1328 1233 1152 1114 964 916 875 697 474 256 97 46 22 9 0 0 0 4 1 0 0 0
0 0 0 0 0 0 0 0 0 0 0 0 0 0 0 23 70 0 245 285 610 750 572 802 1446 1445 1401 1327 1161 1022 915 853 782 653 460 230 112 85 71 63 33 3 0 0 9 19 25 45 72
0 0 0 0 0 0 0 0 0 0 0 0 0 2 0 47 220 237 311 294 516 690 635 713 1575 1531 1455 1389 1180 1021 820 556 423 316 226 188 166 156 149 115 60 38 13 29 38 79 139 136 178
0 0 0 0 0 0 0 0 0 0 0 0 0 0 1 114 268 315 245 291 310 552 711 514 1612 1581 1444 1364 1216 985 705 589 429 331 292 283 245 203 181 180 145 181 235 177 189 249 404 542 598
0 0 0 0 0 0 0 0 0 12 0 2 2 5 0 6 162 387 407 377 553 802 1189 1066 949 1141 1501 1439 1214 1024 788 648 516 404 380 402 393 363 316 330 350 431 585 721 754 521 555 657 937
0 0 0 0 0 0 0 0 1 20 18 0 0 0 0 0 169 524 485 586 710 910 932 958 953 526 336 376 1505 1264 1017 897 706 578 632 599 572 558 448 435 494 663 799 868 855 685 792 1067 894
0 0 0 0 0 0 0 0 1 0 0 0 0 0 0 8 289 310 424 400 336 420 919 1079 846 881 433 83 348 1357 1206 1166 992 786 813 547 108 149 125 155 491 859 947 893 872 944 1107 1086 792
0 0 0 0 0 0 0 0 0 0 0 0 0 0 0 0 24 67 116 117 200 295 519 899 1263 1053 832 173 238 701 200 236 224 104 123 167 132 165 87 231 813 1002 1094 1006 1057 1247 1371 992 646
0 0 0 0 0 0 0 0 0 0 0 0 0 0 0 0 0 0 0 0 0 1 1 370 1083 1421 1077 648 248 450 627 570 444 201 681 474 196 334 215 235 363 442 852 841 1192 1373 1158 918 777
0 0 0 0 0 0 0 0 0 0 0 0 0 0 0 0 0 0 0 0 0 0 0 0 855 1691 1772 1111 812 664 552 805 526 353 1180 918 857 1027 547 285 429 708 287 689 1311 1140 1275 1262 1041
0 0 0 0 0 0 0 0 0 0 0 0 0 0 0 0 0 0 0 0 0 0 3 0 196 1466 1890 2095 1457 1455 1026 882 946 591 997 983 528 1222 738 736 405 613 442 680 1322 1292 1375 1432 1291
0 0 0 0 0 0 0 0 0 0 0 0 0 0 0 0 0 0 0 0 0 0 2 9 0 580 1712 1987 2093 1972 2184 1334 1103 885 741 1411 802 1364 521 869 583 559 611 634 1036 1318 1348 1319 1164
0 0 0 0 0 0 0 0 0 0 0 0 0 0 0 0 0 0 0 0 2 0 1 71 135 202 1841 2025 1947 1849 1377 1409 1063 1094 1768 1026 1570 1457 1257 593 642 428 770 1097 827 1137 1443 1254 1128
0 0 0 0 0 0 0 0 0 0 0 0 0 0 0 0 0 0 0 0 0 13 1 6 4 0 760 2003 1607 1234 958 1082 1090 1033 1126 1209 1372 1475 1552 592 646 453 765 694 532 1229 1098 1169 1161
0 0 0 0 0 0 0 0 0 0 0 0 0 0 0 0 0 0 0 0 0 0 0 14 39 0 625 897 795 1393 2173 1383 1001 1007 1170 1195 1215 1289 1191 765 599 1485 579 545 706 705 934 1101 1549
0 0 0 0 0 0 0 0 0 0 0 0 0 0 0 0 0 0 0 0 0 0 56 312 249 768 321 229 755 764 975 1184 1100 1032 1102 1213 1336 1330 1404 964 1067 1137 543 561 526 855 1076 1803 1680
0 0 0 0 0 0 0 0 0 0 0 0 0 0 0 0 0 0 0 0 0 0 169 169 525 1764 292 8 356 883 1050 1277 1170 1028 1214 1243 1367 1319 1385 1099 1035 1013 823 877 1132 1073 1685 1861 1648
0 0 0 0 0 0 0 0 0 0 0 0 0 0 0 0 0 0 0 0 0 1 112 575 599 670 491 124 1104 1021 1329 1278 1337 1176 1332 1398 1258 1443 1417 1392 1261 1131 685 1108 1455 1560 1413 1724 1694
0 0 0 0 0 0 0 0 0 0 0 0 0 0 0 0 0 0 0 0 0 0 20 106 306 426 573 487 817 1564 1515 1504 1583 1537 1312 1175 1478 1391 1486 1573 1483 1238 817 931 1306 2346 1421 1727 1136
0 0 0 0 0 0 0 0 0 0 0 0 0 0 0 0 0 0 0 0 0 0 0 0 1 17 19 653 1609 2361 1573 1380 1469 1592 1192 1614 1530 1619 1790 1397 1536 1372 793 1410 1957 1896 1344 1574 1251
2 10 39 2 0 0 0 0 0 0 0 0 0 0 0 0 0 0 0 0 0 0 0 0 2 542 474 837 1845 1808 1747 1662 1789 1618 1815 1515 1670 1585 1707 1604 1370 1161 1059 2061 1604 1611 1615 1444 775
44 20 25 58 0 0 0 0 0 0 0 0 0 0 0 0 0 0 0 0 0 0 0 39 880 1395 692 1008 1612 1976 1997 1982 1931 2115 1397 1818 1566 1651 1531 1436 1562 1768 1860 1934 1603 1412 1375 1042 523
59 81 0 0 0 0 0 0 0 0 0 0 0 0 0 0 0 0 0 0 0 22 399 947 1395 1324 975 1125 1520 1898 2209 2206 2407 1278 1565 1956 1771 1618 1785 1912 2055 2084 1872 1542 1373 1305 825 767 589
96 90 0 0 0 0 0 0 0 0 0 0 0 0 0 0 0 0 0 0 0 517 1438 1587 1502 1375 1340 1479 1743 2011 2253 2175 2230 2167 2114 2006 1965 1940 2041 2007 1877 1736 1671 1321 1011 684 548 665 769
88 74 126 45 4 43 0 0 0 0 0 0 0 0 0 14 97 20 0 372 1176 1765 1984 1861 1804 1832 1850 1950 2106 2201 2207 2286 2281 2339 2130 1853 1885 1883 1816 1794 1726 1332 916 765 823 402 671 740 1010
213 61 134 69 0 0 0 0 0 0 0 0 0 0 0 561 2 15 557 1608 1936 2248 2281 2260 2180 2061 2035 2078 2090 2196 2325 2265 2142 1858 1583 1544 1597 1480 1539 1356 1017 684 526 572 768 587 824 942 1634
86 198 227 109 65 28 0 0 0 1 0 0 0 0 207 663 439 698 1265 1942 2229 2220 2350 2280 2132 2053 2023 1892 1941 1898 1840 1726 1621 1582 1554 1509 1439 1236 898 626 511 347 419 625 958 959 834 767 953
28 201 113 249 140 6 1 56 0 0 0 0 0 0 245 440 514 1326 1856 2057 2105 2175 2140 2134 2006 1911 1813 1765 1739 1642 1469 1403 1417 1362 1289 1038 805 521 320 203 132 197 486 722 738 700 593 567 548

GFSSGP_con_mucape_033.txt.gz
CAPE
0 0 0 0 0 0 0 0 0 0 0 0 0 0 14 112 56 196 43 4 1 340 688 1045 1829 1741 1358 1245 1623 1861 1962 2059 2122 2005 1754 1328 1055 592 168 33 0 0 0 0 0 0 0 0 0
0 0 0 0 0 0 0 0 0 0 0 0 0 2 38 106 117 117 68 26 79 766 646 82 1780 1801 1602 1228 1100 1341 1531 1658 1759 1701 1322 960 745 437 82 32 0 0 0 0 0 0 0 0 0
0 0 0 0 0 0 0 0 0 10 6 0 0 0 2 85 45 29 196 104 159 797 694 219 1711 1713 1754 1509 1195 1038 1082 1241 1347 1269 1128 903 700 567 215 54 5 0 0 0 0 0 0 0 0
0 0 0 0 0 0 0 2 3 42 1 0 0 0 0 35 52 12 131 123 486 750 616 1280 1548 1589 1711 1661 1391 1242 1094 1025 1070 1005 935 816 632 424 135 81 51 6 0 3 15 20 14 29 79
0 0 0 0 0 0 0 0 22 7 26 39 0 16 1 16 41 51 117 222 462 616 627 1454 1501 1542 1574 1637 1532 1375 1316 1161 1130 1090 932 651 491 223 144 117 56 34 27 18 26 26 64 84 115
0 0 0 0 0 0 0 0 0 0 17 58 28 88 36 105 151 6 14 146 190 375 590 1252 1528 1626 1528 1472 1376 1210 1112 1104 1046 884 757 530 325 252 183 160 128 138 155 144 98 109 199 273 388
0 0 0 0 0 0 0 0 0 0 0 78 117 109 167 146 174 0 0 34 89 244 543 1162 1660 1079 1600 1450 1258 1112 955 838 705 551 457 407 356 334 294 259 239 288 395 561 643 485 510 658 719
0 0 0 0 0 0 0 0 0 0 0 92 64 111 124 74 20 1 7 54 131 241 429 621 1728 539 362 399 1424 1220 1015 880 673 598 576 528 502 456 452 351 385 596 696 882 979 815 778 826 1112
0 0 0 0 0 0 0 0 0 0 0 54 32 81 50 25 164 69 69 132 131 183 345 645 1083 1036 372 113 469 1223 1114 1035 813 702 678 451 8 33 22 76 317 789 954 1058 1078 918 1057 1162 1198
0 0 0 0 0 0 0 0 0 0 0 0 35 0 0 85 164 101 81 145 166 190 273 658 1267 1280 991 201 426 751 192 210 168 58 138 105 79 71 10 92 424 817 1083 1142 1188 1325 1366 1238 650
0 0 0 0 0 0 0 0 0 0 0 2 68 1 11 11 102 203 139 159 129 120 211 278 2294 2389 1631 940 343 1290 1027 689 572 536 404 590 101 165 173 185 199 365 758 464 874 1080 1043 1002 916
0 0 0 0 0 6 0 0 0 0 0 0 72 110 26 9 0 8 5 11 26 17 0 0 196 2544 2830 1338 786 449 797 1300 808 652 1058 757 531 618 783 303 326 888 416 712 840 940 1215 1178 1477
0 0 0 0 0 0 0 0 0 0 0 0 0 30 2 0 0 6 0 0 0 1 1 15 36 2378 3048 3409 1425 1541 1369 1165 1386 975 1329 1309 595 932 565 917 475 853 418 526 1098 1336 1670 1823 1347
0 0 0 0 0 0 0 0 0 0 0 0 0 0 0 0 0 1 0 0 1 10 6 0 19 2645 3048 3127 3563 3302 3030 1750 1720 1583 1803 1788 1117 1195 1002 1325 1008 845 823 753 930 1287 1445 1431 1553
0 0 0 0 0 0 0 0 0 0 0 0 0 0 0 6 26 0 0 137 0 15 61 549 426 980 3533 3981 3733 2903 1465 1978 1443 1570 2717 2631 2142 1791 1710 1421 1139 904 1147 1699 1494 2011 1458 1395 1404
0 0 0 0 0 0 0 0 0 0 0 0 2 8 1 14 19 19 0 7 119 270 236 678 73 446 2849 3407 3010 2308 1478 1030 1135 1349 1664 2676 2844 2406 2392 1162 1293 1277 1254 1210 915 1030 875 1479 1372
0 0 0 0 0 0 0 0 0 0 0 1 4 10 7 30 60 121 3 39 0 30 137 439 776 150 1596 2354 1353 1634 2335 1382 1047 1185 1203 2569 2513 2318 2311 1646 1453 2068 1218 1082 1031 1129 1330 1352 1208
0 0 0 0 0 0 0 0 0 0 0 0 1 0 0 0 3 15 13 0 0 245 625 836 523 1041 1970 982 1839 530 445 1129 1399 1262 1368 2575 2387 1960 2577 1892 1910 1826 1229 1084 1022 1408 1185 1293 1153
0 0 0 0 0 0 0 0 0 0 0 0 0 0 2 12 0 0 2 0 0 154 376 868 902 1851 1052 112 124 106 101 878 1236 1517 2594 2391 2112 2223 2589 1798 2017 1805 1422 1484 1798 1450 1896 1493 1794
0 0 0 0 0 0 0 0 0 0 0 0 0 0 0 0 0 0 0 0 111 170 278 623 1144 1680 2021 569 982 398 1187 796 1289 1563 2397 2158 1785 2141 2197 2195 2045 2050 1323 2200 2079 1878 1197 1150 1897
0 0 0 0 0 2 0 0 0 0 0 0 0 0 0 0 0 0 0 7 48 49 257 324 841 1515 2035 1512 1259 2038 1930 2345 1594 1856 1732 1890 1726 1980 2208 1955 2240 2579 1726 1202 2016 1673 1858 1490 1799
0 0 0 0 0 0 0 0 0 0 0 0 0 0 0 0 0 0 0 0 2 2 4 260 670 1462 1960 2775 1032 2331 1591 1484 1567 1980 1973 1890 1930 1696 1841 1932 1935 2257 1530 1792 1550 1716 1989 2177 1741
1 4 3 0 0 0 0 0 0 0 0 0 0 0 0 0 0 0 0 0 0 0 3 201 849 1530 1735 1996 1697 956 2316 1535 1815 1861 2416 2276 2213 2059 1666 1839 1935 2000 1563 1944 2100 2712 2420 1791 1235
21 12 30 28 7 0 0 0 0 0 0 0 0 0 0 0 0 0 0 0 0 0 0 5 798 1269 1734 2142 2581 3396 3448 3056 2350 2324 1970 2129 1782 1724 1661 1646 1927 1884 1824 2940 2366 2475 1848 1631 1451
66 55 0 0 0 0 0 0 19 0 3 1 0 0 0 0 0 0 0 0 0 0 0 0 1 832 1769 1633 1907 2163 2960 4077 3728 2606 1646 1769 1508 1826 1830 2163 2244 1818 2624 2234 2087 1814 1608 1352 1028
117 120 70 0 0 0 45 0 5 13 13 1 0 0 0 0 0 0 0 0 0 0 78 468 796 1447 1704 1480 1878 2194 2693 2466 2689 2032 1661 1837 1791 2170 2400 2372 2706 2117 1858 1525 1622 1417 1130 1162 695
263 167 204 183 133 38 8 12 44 11 22 0 0 0 0 0 0 2 8 0 0 37 1085 1586 1795 1819 1669 1793 2084 2523 2412 3288 2341 3089 3190 2308 2946 2366 2150 2311 1970 1728 1442 1463 1517 892 734 1078 1210
241 202 204 228 11 9 117 45 86 34 26 2 1 0 0 257 351 150 19 65 895 1794 2174 2139 2083 2105 2159 2260 2407 2744 3110 3053 2644 3045 2256 2424 2817 2581 2106 1809 1661 1416 1253 1063 940 825 649 893 1419
37 43 162 189 44 118 173 138 55 42 0 4 1 0 379 895 592 284 1079 1625 2173 2396 2410 2455 2352 2308 2389 2534 2539 2590 2302 2270 2324 2140 2186 1972 2125 1560 1318 1198 1110 955 720 615 825 862 706 720 1066
203 230 152 104 188 217 40 20 65 276 103 57 10 3 325 929 1021 1116 1630 2089 2249 2330 2299 2338 2383 2313 2226 2236 2314 2178 2322 2200 2358 1684 1509 1329 1268 1116 906 710 531 329 308 621 760 758 661 729 809

GFSSGP_con_mucape_036.txt.gz
CAPE
0 0 0 0 0 0 0 0 0 0 0 0 0 0 7 44 54 87 35 67 1141 428 816 1463 1604 1406 1903 2273 2415 2458 2376 2323 2289 2251 2002 1664 1391 1042 684 319 32 0 0 0 0 0 0 0 0
0 0 0 0 0 0 0 0 0 0 1 1 0 0 5 193 74 22 48 61 1313 419 652 615 1728 1446 1551 1999 2204 2208 2256 2304 2276 2076 1806 1477 1247 863 307 63 25 0 0 0 0 0 0 0 0
0 0 0 0 0 0 0 0 0 0 45 0 0 0 50 208 100 67 132 771 1375 615 299 804 1840 1575 1459 1490 1816 1875 1964 2065 2112 1913 1649 1354 980 691 341 90 52 2 0 0 0 0 0 0 0
0 0 0 0 0 0 0 0 0 14 94 0 31 2 9 144 35 168 148 1037 1182 827 276 1629 1814 1720 1572 1373 1330 1509 1663 1756 1775 1704 1485 1191 824 680 370 136 53 36 0 0 0 0 0 0 18
0 0 0 0 0 0 0 0 0 16 37 1 7 0 23 117 160 123 138 571 732 825 445 1319 1702 1794 1755 1616 1318 1187 1264 1295 1418 1413 1257 1012 807 635 290 119 87 75 54 33 67 70 91 85 84
0 0 0 0 0 0 0 0 0 2 9 27 10 20 15 81 164 183 163 332 367 628 812 1468 1540 1686 1678 1642 1408 1202 1069 1061 1099 1088 1060 915 791 463 241 135 116 111 114 149 174 169 240 254 250
0 0 0 0 0 0 0 0 0 0 0 28 75 43 136 8 109 43 134 182 168 489 1333 1451 1058 1352 1667 1587 1463 1284 1185 1110 1064 1022 954 860 688 396 260 197 176 182 215 306 409 469 603 773 824
0 0 0 0 0 0 0 0 0 0 0 0 11 61 13 162 189 0 5 26 79 315 1016 1761 1348 696 665 807 1473 1271 1173 1079 964 927 815 639 513 447 385 266 270 310 408 587 707 787 918 1090 1082
0 0 0 0 0 0 0 0 0 0 0 0 27 115 5 117 64 11 1 9 84 98 341 1958 2018 1049 370 228 730 1324 1120 1049 864 782 714 480 128 99 72 98 118 431 591 803 959 1118 1188 1186 1300
0 0 0 0 0 0 0 0 0 0 0 0 9 45 26 58 66 30 30 33 137 269 351 1020 2291 1056 413 123 351 805 737 675 556 340 249 250 48 20 15 65 184 431 815 991 1081 1220 1282 1216 743
0 0 0 0 0 0 0 0 0 0 0 0 1 84 14 130 249 61 6 101 160 304 265 783 2296 1758 936 460 772 961 362 326 334 225 130 173 71 29 57 7 53 390 703 503 817 953 987 746 666
0 0 0 0 0 0 0 0 0 0 0 0 1 51 88 43 148 174 235 152 113 70 37 998 2369 2860 2519 1434 1308 1378 910 512 302 201 160 137 129 78 72 44 115 144 214 225 277 456 627 715 918
0 0 0 0 0 0 0 0 0 0 0 0 0 6 143 78 105 171 199 131 164 166 353 556 2747 3179 3415 3703 2540 1524 1341 1144 662 508 362 186 341 112 106 206 176 142 259 273 295 554 786 1091 1157
0 0 0 0 0 0 0 0 0 0 0 0 0 0 23 8 1 85 158 241 379 347 384 574 940 3703 3697 3111 3095 3569 2224 1613 1678 1007 820 473 340 369 288 221 326 581 321 400 378 702 845 1339 1566
0 0 0 0 0 0 0 0 0 0 0 0 0 0 0 53 77 0 49 177 324 377 693 1132 1272 4218 3728 3362 3294 2842 3096 1957 2205 1629 1798 993 905 657 430 525 410 268 741 688 464 657 1432 1749 1522
0 0 0 0 0 0 0 0 0 0 0 2 1 4 14 10 2 69 142 324 633 497 402 769 27 1344 3638 3571 3440 3169 2447 2353 2237 1842 2130 2374 1299 922 1225 695 767 814 523 685 1102 778 995 1154 1191
0 0 0 0 0 0 0 0 0 0 0 0 2 19 14 55 93 118 172 243 639 888 1295 1925 1715 1448 3699 3945 3413 3253 2799 2709 1990 1873 1860 2539 2243 1468 1087 1330 1183 1110 1010 977 645 991 1200 1080 1581
0 0 0 0 0 0 0 0 0 0 0 0 0 0 12 48 17 179 259 268 405 1122 1295 1834 2042 2092 2252 2985 2968 1910 1722 1481 1586 1446 1470 2545 2398 2163 1732 1566 1382 2092 903 870 1121 852 861 1108 1385
0 0 0 0 0 0 0 0 0 0 0 0 0 0 0 0 0 3 194 129 785 1088 1406 2177 1931 1765 1826 1830 1365 993 830 662 1009 1710 2457 3015 2851 2317 2169 1646 2052 1291 1467 974 1252 1183 1096 1268 1422
0 0 0 0 0 0 0 0 0 0 0 0 0 0 0 0 8 56 21 69 879 831 1169 1828 2216 2465 2096 1257 1078 1081 1197 654 675 1713 2631 2982 3018 2342 2227 2109 1605 1813 1520 1377 1618 1112 941 1426 1406
0 0 0 0 0 0 0 0 0 0 0 0 0 1 0 0 0 0 41 409 734 584 1191 1216 1161 1344 1466 1199 1350 1885 1767 2006 2243 2689 2899 2784 2676 2577 2281 2118 1853 2010 1435 1306 1403 1521 1063 957 1307
0 0 0 0 0 0 0 0 0 0 0 0 0 0 0 0 0 0 0 0 258 336 293 1208 1451 967 1099 1831 1359 1540 961 1083 1701 3097 2529 2536 2413 2420 2212 2146 1825 2391 1432 1591 1422 1309 1183 1179 1641
1 6 1 0 0 0 0 0 0 0 0 0 0 0 0 0 0 0 0 0 0 0 0 0 57 791 1127 1338 1321 1158 2204 2012 2697 2725 3583 2507 2681 2225 1791 2007 1817 2229 1470 1495 1242 1373 1227 1287 1709
21 17 15 3 0 0 0 0 0 0 0 0 13 21 1 0 0 0 0 0 0 0 2 84 749 833 1583 1443 2310 2183 1921 1619 2440 3307 2503 2255 2005 1791 1528 1776 1633 1712 1407 1794 1543 1312 1637 1789 1399
67 37 0 0 0 0 0 0 0 0 0 0 7 0 0 4 1 0 0 0 0 0 0 147 1150 1775 1699 1551 1576 2217 1478 3336 3618 3331 2280 2029 1654 1564 1708 1995 1849 1795 1739 2098 2218 1955 1579 1376 1112
3 10 0 0 0 0 2 0 0 0 11 3 0 8 0 2 0 0 0 0 0 0 79 182 181 887 1094 1431 2178 2462 2298 3369 3815 2619 1899 1622 1408 1836 1742 1716 1556 1787 1862 2095 1881 1617 1234 1232 1110
161 114 139 119 55 0 18 0 2 0 0 0 0 9 21 14 0 0 0 35 0 7 415 596 724 837 1953 2575 2358 2958 3048 3561 2870 2442 1813 1592 1501 1495 1719 2064 1993 2181 1886 1542 1394 1291 1288 1295 1177
88 102 129 213 6 0 3 11 14 1 1 0 3 60 65 10 0 16 207 270 513 440 1933 2432 2792 2695 2337 2545 2791 2955 3163 3359 2623 2310 1943 2190 2309 2066 1972 2109 1945 1788 1503 1349 1501 1437 1145 1279 1247
296 152 66 123 119 93 77 17 1 204 54 30 31 123 66 48 512 1440 581 532 1731 2320 2668 2897 2560 2583 2469 2421 2612 2986 3044 2841 2923 2631 2373 2446 2307 2130 1908 1767 1581 1422 1418 1426 1322 1246 975 991 991
19 209 173 186 45 2 11 4 6 5 23 0 40 35 204 573 1220 1654 1411 1483 1716 2380 2455 2712 2557 2396 2279 2210 2030 2113 1856 1789 1961 1924 1777 1882 1965 1846 1612 1428 1112 988 954 1156 1175 955 788 764 927

GFSSGP_con_mucape_039.txt.gz
CAPE
0 0 0 0 0 0 0 0 0 0 0 0 1 25 59 89 34 7 31 447 162 600 954 1071 1635 2166 2445 2500 2470 2366 2195 2100 2117 2099 1921 1661 1439 1020 591 405 124 5 0 0 0 0 0 0 0
0 0 0 0 0 0 0 0 0 0 0 0 8 17 75 105 32 275 580 271 181 654 815 494 1508 2013 2371 2422 2350 2278 2245 2204 2162 2059 1872 1623 1434 1081 378 72 12 0 0 0 0 0 0 0 0
0 0 0 0 0 0 0 0 0 0 0 4 1 0 64 120 78 10 735 227 134 540 576 640 1428 1818 2265 2357 2233 2147 2192 2190 2136 2028 1850 1508 1316 937 517 193 66 1 0 0 0 0 0 0 0
0 0 0 0 0 0 0 0 0 0 0 84 6 18 115 110 25 412 783 258 199 203 421 1354 1321 1418 1920 2202 2137 2078 2149 2181 2113 1969 1778 1458 1062 808 491 262 143 19 0 0 0 6 28 0 20
0 0 0 0 0 0 0 0 0 0 6 8 7 4 110 93 121 1148 863 509 190 89 606 1181 1355 1299 1431 1888 1948 1959 1999 1961 1975 1924 1736 1391 1086 786 521 333 92 58 73 9 23 120 134 164 184
0 0 0 0 0 0 0 0 0 0 0 14 6 16 65 111 143 826 843 547 248 85 892 898 1530 1374 1211 1257 1481 1571 1640 1656 1709 1694 1605 1370 1033 813 523 337 193 190 176 161 212 248 273 284 366
0 0 0 0 0 0 0 0 0 0 0 10 34 27 100 60 77 393 517 576 416 360 702 692 995 1366 1491 1223 1039 1036 1127 1191 1235 1204 1177 1101 967 730 448 291 234 248 243 274 348 404 467 576 635
0 0 0 0 0 0 0 0 0 0 0 0 0 0 41 62 21 177 381 522 500 1075 813 719 651 1028 1090 1098 1304 1072 952 891 877 909 953 933 912 675 450 246 241 274 348 433 566 618 689 853 1018
0 0 0 0 0 0 0 0 0 0 0 0 0 37 95 103 30 46 213 403 618 1163 893 698 522 584 706 887 1125 1271 1120 1079 927 893 948 683 359 279 161 177 209 345 418 575 714 801 893 1060 1149
0 0 0 0 0 0 0 0 0 0 0 0 1 137 95 92 32 129 12 127 478 1328 1242 742 570 309 239 238 502 766 613 640 535 381 375 293 126 49 54 120 290 355 497 704 801 965 1143 1147 796
0 0 0 0 0 0 0 0 0 0 0 0 0 49 96 112 45 23 13 12 47 135 1683 1392 904 361 90 68 181 408 331 362 328 245 157 158 25 0 25 2 75 84 276 257 543 728 855 708 719
0 0 0 0 0 0 0 0 0 0 0 0 0 0 21 164 128 66 29 15 6 51 1514 1769 1396 885 504 150 148 253 147 135 112 115 94 72 0 0 0 0 0 0 83 171 208 437 641 606 505
0 0 0 0 0 0 0 0 0 0 0 0 0 0 0 85 135 169 52 32 0 6 730 558 1325 913 785 493 376 311 265 146 89 77 45 1 25 0 0 0 0 0 83 151 70 196 339 378 408
0 0 0 0 0 0 0 0 0 0 0 0 0 0 0 0 51 56 40 11 15 4 18 677 1315 1251 987 758 773 660 491 372 285 239 262 287 143 20 0 0 0 13 25 95 45 69 280 369 531
0 0 0 0 0 0 0 0 0 0 0 0 0 0 0 0 16 1 4 69 36 13 10 1445 1739 2015 2213 1793 1661 1322 853 772 703 606 582 515 494 405 303 209 196 113 48 132 169 160 330 452 826
0 0 0 0 0 0 0 0 0 0 0 0 0 0 0 0 0 0 0 6 22 11 4 46 1735 2415 2130 2009 1773 1612 1917 1632 1147 1032 859 918 874 720 615 548 528 486 348 237 370 422 305 614 588
0 0 0 0 0 0 0 0 0 0 0 0 0 0 1 1 0 0 0 0 0 0 2 16 615 2235 2326 2346 2247 2090 1798 1629 1906 1472 1244 1239 1182 1145 976 834 761 762 689 471 363 516 446 391 1041
0 0 0 0 0 0 0 0 0 0 0 0 0 0 0 3 0 0 0 9 0 15 6 241 209 1253 2382 2646 2517 2528 2527 2182 1722 1428 1457 1353 1386 1291 1263 1097 1036 927 893 761 434 456 613 658 760
0 0 0 0 0 0 0 0 0 0 0 0 0 0 0 0 0 0 4 2 43 153 255 291 243 458 1965 2263 2423 2260 2136 2080 1955 1779 1465 1057 1588 1594 1456 1337 1198 1057 980 930 602 593 552 670 611
0 0 0 0 0 0 0 0 0 0 0 0 0 0 0 0 0 0 0 0 17 195 148 93 64 31 101 107 348 692 1165 1207 895 457 562 862 1632 1909 1736 1545 1386 1211 1083 1017 824 716 670 602 726
0 0 0 0 0 0 0 0 0 0 0 0 0 0 0 0 0 0 0 0 19 153 130 165 57 12 11 38 111 176 108 108 251 507 588 931 1861 1937 1949 1787 1605 1444 1423 1157 1034 836 654 572 815
0 0 0 0 0 0 0 0 0 0 0 0 0 0 0 0 0 0 0 0 0 71 12 41 148 199 174 109 156 466 263 222 67 0 1338 1758 2025 1978 1918 1807 1655 1452 1469 1435 1180 947 778 579 707
0 11 0 0 0 0 0 0 0 0 0 0 0 0 0 0 0 0 0 0 0 0 67 183 60 0 0 29 76 150 264 428 525 351 1525 1794 1838 1892 1748 1850 1714 1541 1574 1486 1271 1065 850 778 630
24 6 0 0 0 0 0 0 0 0 0 0 0 0 0 0 0 0 0 0 0 0 0 0 0 31 1 0 357 371 390 411 659 1198 1826 1609 1576 1721 1770 1681 1588 1548 1402 1652 1562 1130 866 739 657
6 2 0 0 0 0 0 0 0 0 0 0 0 0 0 0 0 0 0 0 0 0 0 0 0 0 0 176 307 284 245 214 463 1841 2007 1648 1610 1554 1528 1481 1317 1407 1333 1482 1451 1047 959 871 1103
0 13 0 0 0 0 4 0 0 0 0 0 0 0 0 0 0 0 0 0 0 0 0 0 0 36 438 366 873 935 841 638 1064 1940 1933 1682 1606 1590 1598 1422 1217 1304 1336 1291 1103 935 1060 1098 856
39 2 21 6 25 3 0 0 0 0 1 0 0 0 0 0 0 0 0 0 0 0 0 0 0 179 676 830 782 1052 1155 730 1907 1998 2012 1738 1667 1558 1174 1058 1194 1478 1317 1268 1255 1212 1019 773 541
7 9 1 22 0 0 0 0 0 14 11 30 3 0 0 0 0 0 0 0 0 0 0 0 0 9 389 751 1035 1513 1606 1984 2425 2318 2091 1957 1680 1277 1055 1239 1250 1271 1265 1246 1185 877 632 731 459
4 70 32 5 32 18 0 0 73 2 9 11 9 0 0 2 2 16 564 965 36 395 731 1004 1650 1401 1629 1632 1636 2051 2227 2430 2519 2343 2057 1610 1127 1120 1077 1499 1441 1352 1092 1029 687 627 432 409 392
4 48 2 23 12 25 13 0 19 7 0 1 18 0 19 27 31 362 1090 1121 1077 2021 1995 1739 1634 1653 1756 1888 2071 2131 2288 2396 2202 1661 1913 1618 1619 1443 1404 1361 1193 1101 807 698 510 334 469 464 276

GFSSGP_con_mucape_042.txt.gz
CAPE
0 0 0 0 0 0 0 0 0 0 0 0 0 0 0 86 70 20 48 68 75 154 598 1673 2235 2594 2628 2458 2316 2123 1963 1908 1914 1748 1576 1430 1222 636 330 372 154 6 0 0 0 0 0 0 0
0 0 0 0 0 0 0 0 0 0 0 0 0 0 64 108 135 155 100 137 67 265 493 841 2221 2450 2571 2446 2249 2040 2020 1994 1945 1799 1657 1473 1301 882 215 62 0 0 0 0 0 0 0 0 0
0 0 0 0 0 0 0 0 0 0 0 0 0 0 40 103 298 171 233 58 131 238 302 535 2149 2340 2477 2438 2210 2073 2065 2036 2003 1904 1756 1566 1341 1078 613 253 79 0 0 0 0 0 0 0 0
0 0 0 0 0 0 0 0 0 0 0 0 0 21 75 118 168 354 243 89 111 199 173 891 1911 2213 2334 2407 2248 2144 2132 2136 2066 1998 1841 1647 1344 1000 595 356 212 45 0 0 0 0 15 12 16
0 0 0 0 0 0 0 0 0 0 0 0 0 12 120 133 484 331 214 94 63 160 147 922 1774 2081 2230 2358 2267 2169 2158 2038 2026 2003 1866 1592 1345 911 562 354 131 70 49 5 1 98 168 174 119
0 0 0 0 0 0 0 0 0 0 0 9 13 18 30 222 488 256 128 102 68 59 218 578 1507 1834 1999 2139 2134 2073 2034 2000 1974 1916 1827 1667 1332 976 679 472 272 231 228 160 177 300 295 313 428
0 0 0 0 0 0 0 0 0 0 0 1 0 39 58 231 553 479 69 75 73 96 331 408 729 1276 1815 1845 1860 1867 1808 1803 1797 1717 1654 1574 1312 1004 717 514 421 334 367 346 382 480 426 467 515
0 0 0 0 0 0 0 0 0 0 0 0 0 8 129 58 563 558 220 23 16 348 206 474 578 722 830 1092 1680 1640 1621 1625 1569 1569 1547 1452 1285 1041 781 401 386 362 441 486 550 627 568 630 738
0 0 0 0 0 0 0 0 0 0 0 0 0 3 38 84 377 435 309 234 479 404 361 345 619 635 577 547 848 1240 1396 1408 1330 1354 1361 1002 663 531 313 284 245 355 428 513 572 694 715 761 866
0 0 0 0 0 0 0 0 0 0 0 0 0 23 111 109 352 372 374 306 589 521 475 268 306 434 514 594 540 558 509 537 493 441 512 481 320 224 113 176 326 372 469 566 633 769 912 749 535
0 0 0 0 0 0 0 0 0 0 0 0 0 67 106 133 242 337 284 417 813 995 773 423 204 165 266 283 473 508 390 382 293 198 183 252 136 97 149 55 164 91 266 152 365 492 676 528 566
0 0 0 0 0 0 0 0 0 0 0 0 0 0 1 112 93 307 113 58 454 793 1281 999 655 240 74 20 200 262 258 252 192 158 106 116 82 32 21 12 0 9 11 90 112 220 499 556 456
0 0 0 0 0 0 0 0 0 0 0 0 0 0 0 53 164 126 72 74 425 1378 1907 1615 1214 806 402 77 88 145 79 55 52 45 59 27 1 0 0 0 0 0 0 49 43 70 245 384 386
0 0 0 0 0 0 0 0 0 0 0 0 0 0 0 0 64 102 73 79 111 301 806 900 853 290 351 491 410 371 157 76 0 0 4 16 10 1 0 0 0 0 0 9 20 4 50 137 175
0 0 0 0 0 0 0 0 0 0 0 0 0 4 0 0 0 78 84 64 92 162 104 350 169 57 13 537 571 476 312 203 146 145 146 149 156 173 168 141 103 76 65 120 141 58 1 57 154
0 0 0 0 0 0 0 0 0 0 0 0 0 0 4 0 0 0 40 66 5 19 36 240 354 424 571 786 778 758 522 386 391 370 385 397 346 427 461 554 469 340 316 402 482 403 202 125 189
0 0 0 0 0 0 0 0 0 0 0 0 0 0 0 0 0 0 33 2 16 15 27 208 517 827 939 1000 1121 1124 1016 739 754 704 712 707 669 694 833 937 815 691 656 668 670 659 492 339 422
0 0 0 0 0 0 0 0 0 0 0 0 0 0 0 0 0 0 1 12 2 0 0 61 746 1201 1275 1456 1436 1536 1563 1488 1212 1130 1103 1081 1032 1043 1086 1223 1127 1019 993 970 862 777 684 430 532
0 0 0 0 0 0 0 0 0 0 0 0 0 0 0 0 0 0 0 0 2 27 21 6 3 1288 1531 1759 1664 1677 1582 1266 1221 1352 1617 1587 1525 1461 1452 1403 1330 1280 1215 1158 1047 928 851 553 523
0 0 0 0 0 0 0 0 0 0 0 0 0 0 0 0 0 0 0 0 1 0 7 10 11 249 1359 1421 1549 1559 1457 1381 1318 1474 1286 1123 1103 1281 1311 1211 1181 1214 1354 1293 1159 1006 938 677 614
0 0 0 0 0 0 0 0 0 0 0 0 0 0 0 0 0 0 0 0 0 0 0 27 56 105 1065 1115 1324 1254 992 647 725 1191 1131 1130 1223 1163 1121 1031 1053 1182 1332 1384 1240 1085 1042 822 674
0 0 0 0 0 0 0 0 0 0 0 0 0 0 0 0 0 0 0 0 0 0 0 64 137 146 686 819 620 672 106 43 59 67 102 206 297 964 1137 1213 1250 1277 1482 1460 1281 1180 1124 958 1104
0 0 0 0 0 0 0 0 0 0 0 0 0 0 0 0 0 0 0 0 0 0 0 29 83 116 70 12 2 0 0 0 0 0 0 1 650 1112 1351 1406 1524 1602 1657 1493 1295 1259 1201 1127 1016
0 0 0 0 0 0 0 0 0 0 0 0 0 0 0 0 0 0 0 0 0 0 0 0 28 9 0 0 0 0 0 0 0 16 140 360 953 1399 1542 1641 1816 1785 1589 1424 1322 1316 1216 1188 1046
0 0 0 0 0 0 0 0 0 0 0 0 0 0 0 0 0 0 0 0 0 0 0 0 0 0 0 0 0 0 0 0 0 34 425 737 1266 1676 1736 1766 1714 1636 1513 1465 1360 1461 1172 929 777
0 0 0 0 0 0 0 0 0 0 0 0 0 0 0 0 0 0 0 0 0 0 0 0 0 0 0 0 0 0 0 0 0 176 995 1093 1378 1558 1637 1649 1612 1514 1256 1165 1337 1320 1043 888 751
0 0 3 12 4 0 0 0 0 0 0 0 0 0 0 0 0 0 0 0 0 0 0 0 0 0 0 0 0 2 6 8 169 693 1194 1445 1483 1457 1447 1412 1407 1138 1041 1154 1069 988 935 781 725
0 0 0 8 0 0 0 0 0 0 0 0 0 0 0 0 0 0 0 0 0 0 0 0 0 0 0 8 50 338 354 290 655 1206 1463 1577 1651 1677 1570 1362 1216 914 959 988 1091 1085 958 936 737
0 0 0 0 1 12 0 0 4 0 0 0 0 0 0 0 0 0 0 0 0 67 131 0 0 0 97 364 546 829 956 1013 1031 1078 1336 1634 1775 1764 1703 1376 856 932 1001 1024 1089 1076 916 534 508
0 0 0 0 0 24 3 0 0 0 0 0 0 0 0 0 0 0 0 0 0 127 672 184 156 276 419 744 1082 1231 1525 1452 1468 1901 2168 1978 2022 1860 868 945 1019 1032 996 991 946 653 539 486 505

GFSSGP_con_mucape_045.txt.gz
CAPE
0 0 0 0 0 0 0 0 0 0 0 0 0 0 0 0 0 0 0 0 30 92 1379 2134 2418 2460 2414 2253 2147 1834 1753 1699 1566 1444 1341 1217 1031 803 592 524 331 62 0 0 0 0 0 0 0
0 0 0 0 0 0 0 0 0 0 0 0 0 0 0 0 16 3 0 15 47 167 1140 1799 2471 2501 2439 2235 2019 1800 1758 1738 1621 1476 1403 1296 1071 771 348 233 58 0 0 0 0 0 0 0 0
0 0 0 0 0 0 0 0 0 0 0 0 0 0 17 59 113 17 31 45 63 191 834 1342 2461 2472 2480 2321 2019 1845 1761 1763 1662 1627 1549 1396 1162 854 493 279 150 0 0 0 0 0 0 0 0
0 0 0 0 0 0 0 0 0 0 0 0 0 0 0 40 88 90 52 73 73 175 328 1687 2235 2387 2371 2306 2064 1888 1830 1840 1770 1743 1693 1535 1304 1024 654 363 270 72 0 0 0 0 0 0 13
0 0 0 0 0 0 0 0 0 0 0 0 0 0 0 72 268 194 84 74 69 124 171 1411 2054 2242 2314 2322 2191 2005 1882 1818 1845 1843 1779 1611 1402 1070 672 452 276 148 28 0 0 11 91 97 56
0 0 0 0 0 0 0 0 0 0 0 0 0 0 0 354 267 202 134 72 69 71 201 1011 1945 2116 2115 2194 2157 1994 1848 1818 1840 1851 1799 1698 1434 1087 733 490 355 333 183 144 119 164 214 273 225
0 0 0 0 0 0 0 0 0 0 0 0 0 0 44 247 323 210 147 54 35 29 204 575 1168 1809 2057 2026 1971 1959 1811 1736 1760 1723 1672 1661 1493 1137 799 554 463 490 389 325 319 387 390 388 285
0 0 0 0 0 0 0 0 0 0 0 0 0 2 45 183 379 196 149 17 68 82 108 309 724 1309 1525 1600 1997 1976 1909 1802 1704 1730 1733 1703 1548 1268 970 547 538 543 486 518 497 608 592 534 566
0 0 0 0 0 0 0 0 0 0 0 0 0 0 0 408 419 227 119 158 215 128 175 244 396 736 960 1048 1555 1901 1960 1943 1792 1776 1743 1443 1155 953 590 452 380 627 548 598 627 755 748 689 519
0 0 0 0 0 0 0 0 0 0 0 0 4 0 0 369 458 255 25 23 123 142 174 236 261 349 390 343 583 1261 1325 1450 1379 1303 1301 1100 839 631 388 346 377 605 554 620 683 785 845 588 314
0 0 0 0 0 0 0 0 0 0 0 0 8 35 57 109 384 342 74 4 15 78 160 150 187 243 260 195 195 510 540 765 746 714 711 735 531 370 385 196 251 163 300 112 311 380 550 373 330
0 0 0 0 0 0 0 0 0 0 0 0 5 78 34 6 88 346 311 272 346 333 250 152 54 113 204 116 175 322 207 176 182 195 223 307 251 168 129 84 35 107 20 83 38 112 270 405 273
0 0 0 0 0 0 0 0 0 0 0 0 0 22 4 12 25 262 316 261 371 740 591 357 98 50 84 72 18 129 144 71 23 33 68 45 29 0 0 8 1 1 3 1 14 11 48 203 258
0 0 0 0 0 0 0 0 0 0 0 0 0 0 0 0 0 7 220 230 356 917 1179 792 414 133 31 0 0 5 32 14 5 1 20 36 1 0 0 0 0 0 0 0 0 0 0 42 118
0 0 0 0 0 0 0 0 0 0 0 4 0 0 0 0 0 0 20 157 448 781 1458 1173 799 440 303 218 133 18 84 413 98 18 0 12 9 0 5 19 30 24 33 61 45 57 98 121 82
0 0 0 0 0 0 0 0 0 0 0 0 2 0 0 0 0 0 17 64 190 394 947 1546 1240 898 780 501 303 111 142 473 349 120 42 85 118 142 205 182 191 219 325 346 320 304 345 382 296
0 0 0 0 0 0 0 0 0 0 0 0 0 0 0 0 0 0 0 42 105 113 172 569 1023 828 418 320 201 124 142 459 602 335 257 279 268 272 358 359 439 481 626 654 663 678 666 621 532
0 0 0 0 0 0 0 0 0 0 0 0 0 0 0 0 0 0 0 0 6 65 125 77 159 264 261 221 223 332 392 581 706 573 414 399 413 443 549 610 683 774 834 925 845 936 948 864 684
0 0 0 0 0 0 0 0 0 0 0 0 0 0 0 0 0 0 0 1 0 0 34 45 105 156 476 782 652 701 840 854 867 788 686 747 785 789 807 855 934 1122 1159 1084 1081 1185 1177 989 732
0 0 0 0 0 0 0 0 0 0 0 0 0 0 0 0 0 0 0 0 1 0 0 0 44 29 153 818 942 903 958 1075 1218 1157 1200 1295 1342 1319 1338 1390 1506 1314 1153 1178 1051 1038 1284 1087 795
0 0 0 0 0 0 0 0 0 0 0 0 0 0 0 0 0 0 0 0 0 0 0 0 0 0 0 704 1033 1121 1162 1135 1334 1374 1377 1428 1175 1169 1339 1470 1357 1196 1216 1076 742 918 1279 1135 873
0 0 0 0 0 0 0 0 0 0 0 0 0 0 0 0 0 0 0 0 0 0 1 0 0 0 0 183 728 841 814 798 1055 1167 1339 886 886 1058 1091 1196 1267 1304 1189 762 824 1036 1320 1147 946
0 0 0 0 0 0 0 0 0 0 0 0 0 0 0 0 0 0 0 0 0 0 0 0 0 0 11 191 682 774 648 641 765 593 335 436 496 536 541 721 752 744 719 866 1075 1507 1341 1047 973
0 0 0 0 0 0 0 0 0 0 0 0 0 0 0 0 0 0 0 0 0 0 0 0 0 0 0 94 262 485 496 630 251 28 7 0 0 184 597 846 847 800 935 1168 1564 1500 1253 1367 1409
0 0 0 0 0 0 0 0 0 0 0 0 0 0 0 0 0 0 0 0 0 0 0 0 0 0 0 0 60 359 579 319 120 0 0 0 106 509 798 1116 1146 1181 1317 1662 1570 1377 1525 1312 1040
0 0 0 0 0 0 0 0 0 0 0 0 0 0 0 0 0 0 0 0 0 0 0 0 0 0 0 0 9 221 265 66 0 0 0 3 222 486 808 1305 1548 1572 1670 1543 1417 1168 1260 1249 1053
0 0 0 0 0 0 0 0 0 0 0 0 0 0 0 0 0 0 0 0 0 0 0 0 0 0 0 0 0 17 1 0 0 0 3 152 402 636 1164 1580 1699 1606 1540 1470 1107 1123 1197 1047 748
0 0 0 0 0 0 0 0 0 0 0 0 0 0 0 0 0 0 0 0 0 0 0 0 0 31 0 0 0 0 0 0 0 0 235 543 772 1073 1423 1627 1580 1475 1384 1024 1051 1033 1024 821 714
0 0 0 0 0 0 0 0 0 0 11 0 0 0 0 0 0 0 0 0 0 0 0 0 0 322 114 0 0 0 0 0 64 324 446 702 1020 1241 1472 1511 1563 1487 1270 915 1024 888 955 877 761
0 0 0 0 0 0 0 0 46 1 0 0 0 0 0 0 0 0 0 0 0 0 0 0 78 853 195 0 2 67 186 295 472 775 949 1073 1215 1422 1552 1521 1490 1406 870 841 948 890 918 841 496

GFSSGP_con_mucape_048.txt.gz
CAPE
0 0 0 0 0 0 0 0 0 0 0 0 0 0 0 0 0 0 0 16 0 107 1154 1552 2192 2350 2150 1941 1910 1709 1581 1470 1379 1319 1261 1252 1270 1281 1213 1053 785 367 37 0 0 0 0 0 0
0 0 0 0 0 0 0 0 0 0 0 0 0 0 0 0 0 0 0 0 0 165 1185 1547 2272 2313 2208 1939 1837 1722 1658 1561 1416 1330 1246 1187 1099 1016 828 615 278 29 0 0 0 0 0 0 0
0 0 0 0 0 0 0 0 0 0 0 0 0 0 0 0 38 0 0 9 13 260 1010 1443 2319 2303 2254 2014 1827 1765 1707 1585 1497 1417 1297 1166 1036 860 679 484 271 10 0 0 0 0 0 0 0
0 0 0 0 0 0 0 0 0 0 0 0 0 0 0 0 77 77 4 12 59 348 954 1559 2211 2226 2172 2040 1884 1783 1746 1629 1571 1543 1409 1280 1077 792 553 442 294 113 0 0 0 0 0 0 0
0 0 0 0 0 0 0 0 0 0 0 0 0 0 0 137 167 81 25 28 71 331 605 1583 2143 2192 2222 2091 1893 1830 1783 1611 1606 1603 1512 1395 1133 805 585 458 436 280 124 18 13 32 56 64 27
0 0 0 0 0 0 0 0 0 0 0 0 0 0 0 186 232 101 50 48 56 201 360 1532 2023 2145 2112 2044 1869 1823 1738 1645 1621 1607 1595 1486 1273 931 661 495 495 423 251 120 76 126 160 166 127
0 0 0 0 0 0 0 0 0 0 0 0 0 0 15 72 167 114 81 35 27 88 588 1136 1525 1903 2181 2011 1861 1805 1713 1631 1608 1539 1572 1534 1406 1076 734 509 454 535 357 269 255 294 296 296 161
0 0 0 0 0 0 0 0 0 0 0 0 0 0 40 144 193 194 96 117 15 83 483 803 1134 1499 1616 1847 2056 1905 1824 1700 1603 1610 1590 1593 1490 1227 888 460 452 611 518 478 476 484 554 436 376
0 0 0 0 0 0 0 0 0 0 0 0 0 0 61 294 347 257 92 96 46 52 212 467 837 1129 1286 1561 1792 1982 1940 1835 1734 1726 1686 1463 1213 1045 679 428 460 612 641 611 631 657 719 627 346
0 0 0 0 0 0 0 0 0 0 0 0 0 3 9 339 405 284 202 236 34 33 106 245 529 700 825 969 1379 1544 1555 1477 1336 1343 1413 1169 835 810 480 447 545 721 686 685 698 771 829 449 182
0 0 0 0 0 0 0 0 0 0 0 0 0 19 32 64 156 426 261 297 137 5 43 154 236 321 390 376 701 1189 1152 1173 1018 1147 1087 1025 630 594 625 344 395 251 535 148 421 472 468 236 211
0 0 0 0 0 0 0 0 0 0 0 0 0 44 2 97 133 226 353 322 22 5 1 76 137 181 204 144 208 451 685 759 796 802 771 698 479 393 343 239 135 158 86 124 19 60 137 173 111
0 0 0 0 0 0 0 0 0 0 0 1 0 3 35 69 64 150 287 226 290 155 64 87 102 88 76 41 77 105 210 240 269 294 281 341 336 208 147 117 59 26 31 13 17 0 15 74 89
0 0 0 0 0 0 0 0 0 0 0 2 0 0 16 70 50 75 46 97 341 403 194 234 69 46 34 19 9 35 67 66 47 34 11 48 70 70 15 4 3 0 0 0 0 0 0 3 32
0 0 0 0 0 0 0 0 0 0 0 0 2 0 0 0 0 42 86 98 234 444 486 329 112 6 13 1 2 0 3 25 1 9 18 32 19 0 0 0 0 0 12 0 1 33 19 34 76
0 0 0 0 0 0 0 0 0 0 0 0 0 0 0 0 0 0 0 16 55 261 906 795 465 143 5 0 0 0 0 0 12 180 13 79 36 3 0 6 10 38 81 77 160 236 183 185 262
0 0 0 0 0 0 0 0 0 0 0 0 0 0 0 0 0 0 0 0 0 48 390 1056 1169 753 304 169 64 3 17 26 31 17 57 368 282 62 55 106 159 216 237 265 357 489 433 511 548
0 0 0 0 0 0 0 0 0 0 0 0 0 0 0 0 4 0 0 0 0 1 51 134 555 1432 1152 702 323 280 329 217 131 168 154 195 463 302 206 233 295 338 385 440 537 679 699 736 874
0 0 0 0 0 0 0 0 0 0 0 0 0 0 0 0 0 0 0 0 0 0 0 65 81 287 1288 1118 764 509 329 281 335 299 278 368 566 455 356 379 449 499 519 604 693 904 856 853 949
0 0 0 0 0 0 0 0 0 0 0 0 0 0 0 0 0 0 0 0 0 0 0 7 39 40 50 674 802 506 393 456 637 768 801 797 736 692 519 644 729 727 720 897 1056 901 911 876 811
0 0 0 0 0 0 0 0 0 0 0 0 0 0 0 0 0 0 0 0 0 0 0 0 2 0 1 44 290 554 598 618 757 882 1088 1146 1001 853 890 1080 1061 1009 989 1170 1063 834 914 660 803
0 0 0 0 0 0 0 0 0 0 0 0 0 0 0 0 0 0 0 0 0 0 0 0 0 0 0 0 249 478 444 508 529 614 868 1059 1143 1203 1304 1422 1223 975 956 984 937 1025 888 742 997
0 0 0 0 0 0 0 0 0 0 0 0 0 0 0 0 0 0 0 0 0 0 0 0 0 0 0 0 0 151 227 178 346 558 817 1026 1061 1154 1160 1034 905 918 963 1096 1098 1012 652 1016 1175
0 0 0 0 0 0 0 0 0 0 0 0 0 0 0 0 0 0 0 0 0 0 0 0 0 0 0 0 0 1 53 194 364 681 769 865 750 809 679 613 759 781 760 784 604 619 965 1340 981
0 0 0 0 0 0 0 0 0 0 0 0 0 0 0 0 0 0 0 0 0 0 0 0 0 0 0 0 0 52 152 277 292 349 536 523 281 148 97 163 298 371 441 507 565 975 1494 1150 1018
0 0 0 0 0 0 0 0 0 0 0 0 0 0 0 0 0 0 0 0 0 0 0 0 0 0 0 0 0 0 89 251 394 371 455 418 83 13 59 286 547 685 788 868 1246 1530 1280 1256 1265
0 0 0 0 0 0 0 0 0 0 0 0 0 0 0 0 0 0 0 0 0 0 0 0 0 0 0 0 0 0 0 10 111 377 388 318 44 1 141 447 679 1035 1416 1510 1547 1337 1159 1083 1164
0 0 0 0 0 0 0 0 0 0 0 0 0 0 0 0 0 0 0 0 0 0 0 0 0 0 0 0 0 0 0 0 0 222 386 93 2 154 326 606 991 1523 1691 1551 1399 1185 960 1137 825
0 0 0 0 0 0 0 0 0 0 0 0 0 0 0 0 0 0 0 0 0 0 0 0 0 0 0 0 42 14 0 0 0 10 75 13 136 374 630 994 1497 1719 1634 1477 1213 908 958 739 741
0 0 0 0 0 0 0 0 0 0 0 0 0 0 0 0 0 0 0 0 0 0 0 0 0 0 0 3 238 21 0 0 0 0 15 178 407 708 934 1375 1669 1650 1493 1362 947 905 945 771 804

GFSSGP_con_mucape_051.txt.gz
CAPE
0 0 0 0 0 0 0 0 0 0 0 0 0 0 0 0 0 0 78 157 40 104 976 1803 2079 2151 1998 1879 1927 1893 1850 1949 2064 2123 2071 2018 2016 1941 1807 1639 1376 871 317 0 0 0 0 0 0
0 0 0 0 0 0 0 0 0 0 0 0 0 0 0 0 0 0 0 127 83 435 1678 1307 2140 2117 2029 1777 1692 1614 1712 1765 1758 1758 1851 1854 1744 1629 1443 1172 787 304 27 0 0 0 0 0 0
0 0 0 0 0 0 0 0 0 0 0 0 0 0 0 0 0 0 67 28 87 319 1185 1634 2139 2085 2032 1841 1618 1457 1513 1537 1527 1511 1498 1440 1360 1256 1111 888 714 131 0 0 0 0 0 0 0
0 0 0 0 0 0 0 0 0 0 0 0 0 0 0 181 229 277 157 0 148 296 429 1726 2085 2031 1967 1947 1704 1518 1506 1494 1446 1436 1398 1282 1189 1037 812 703 455 170 9 0 0 0 0 0 0
0 0 0 0 0 0 0 0 0 0 0 0 0 0 0 46 17 106 78 2 107 245 360 1531 2109 2085 1986 1979 1861 1708 1671 1536 1509 1527 1435 1296 1165 916 714 595 399 289 191 64 23 36 80 68 9
0 0 0 0 0 0 0 0 0 0 0 0 0 0 0 7 136 96 89 47 65 256 397 1059 2136 2111 1983 1867 1840 1687 1625 1582 1593 1553 1501 1399 1111 853 676 573 498 476 312 146 109 129 140 131 112
0 0 0 0 0 0 0 0 0 0 0 0 0 0 0 26 131 172 102 69 114 202 367 1127 1410 2039 2105 1944 1764 1695 1625 1535 1520 1479 1439 1365 1149 853 668 544 578 592 395 239 196 225 229 193 134
0 0 0 0 0 0 0 0 0 0 0 0 0 0 0 36 119 245 115 118 96 175 230 760 985 1363 1518 1532 1922 1848 1756 1625 1512 1516 1486 1398 1227 954 723 451 516 634 529 390 367 373 392 341 232
0 0 0 0 0 0 0 0 0 0 0 0 0 0 5 77 152 263 154 86 44 165 373 648 1034 1293 1315 958 1453 1904 1813 1756 1615 1599 1599 1265 709 770 496 189 317 643 629 525 551 523 568 485 191
0 0 0 0 0 0 0 0 0 0 0 0 0 0 11 105 170 217 267 109 78 69 343 569 1036 1167 1310 1097 1343 1558 1418 1336 1345 1355 1431 1262 1122 1082 577 409 429 613 685 628 639 660 711 332 39
0 0 0 0 0 0 0 0 0 0 0 0 0 0 43 86 107 168 253 190 75 36 113 352 901 1218 1132 910 1375 1480 1430 1460 1368 1277 1345 1294 996 983 990 604 454 252 368 54 142 127 59 44 82
0 0 0 0 0 0 0 0 0 0 0 0 0 0 0 18 75 184 198 251 192 30 38 210 542 942 1122 894 975 1086 1100 1519 1014 923 1049 1210 797 840 942 690 432 490 209 166 124 53 70 117 93
0 0 0 0 0 0 0 0 0 0 0 5 0 0 0 22 42 81 168 242 249 231 102 139 363 588 725 656 545 874 863 1090 920 897 1139 1111 757 849 824 722 511 338 219 158 137 61 87 66 63
0 0 0 0 0 0 0 0 0 0 0 5 1 0 0 0 0 9 55 121 297 361 248 208 319 475 551 502 559 684 863 723 763 677 767 1011 907 1034 613 618 444 302 222 119 88 61 38 19 2
0 0 0 0 0 0 0 0 0 0 0 4 0 0 0 0 0 4 0 16 110 470 633 506 576 582 648 378 471 430 257 272 375 387 543 490 637 751 588 318 252 186 158 159 104 115 72 10 1
0 0 0 0 0 0 0 0 0 0 0 0 1 0 0 0 0 0 0 0 39 201 786 833 235 278 365 405 366 163 89 203 201 147 122 290 238 181 301 95 58 42 48 26 27 53 37 109 114
0 0 0 0 0 0 0 0 0 0 0 0 0 0 0 0 0 0 0 0 0 18 613 1421 1142 364 313 308 263 152 34 27 74 91 58 119 88 104 166 115 184 82 38 120 157 106 167 250 313
0 0 0 0 0 0 0 0 0 0 0 0 0 0 0 0 0 0 0 0 0 0 12 615 1889 1549 853 507 274 32 140 70 38 79 68 89 52 67 50 36 99 89 155 216 256 237 311 424 556
0 0 0 0 0 0 0 0 0 0 0 0 0 0 0 0 0 0 0 0 0 0 0 0 360 1648 1727 1345 871 636 279 516 738 517 484 404 69 146 59 177 138 140 281 327 330 340 496 627 682
0 0 0 0 0 0 0 0 0 0 0 0 0 0 0 0 0 0 0 0 0 0 0 0 0 102 862 1176 1394 1264 975 1053 912 849 902 696 328 344 479 807 546 402 397 429 414 474 739 838 680
0 0 0 0 0 0 0 0 0 0 0 0 0 0 0 0 0 0 0 0 0 0 0 2 0 0 33 485 1235 1377 1210 1235 1312 1430 1604 1544 970 1024 1213 1078 977 761 547 711 675 645 901 1052 684
0 0 0 0 0 0 0 0 0 0 0 0 0 0 0 0 0 0 0 0 0 0 0 0 0 0 0 44 321 1364 1318 1377 1469 1730 1795 1869 1446 1501 1437 1557 1149 1086 949 1140 961 701 849 884 1000
0 0 0 0 0 0 0 0 0 0 0 0 0 0 0 0 0 0 0 0 0 0 0 0 0 1 0 0 39 238 975 918 1531 1527 2505 2916 2153 1830 1795 1825 1499 1441 1322 1227 1138 731 873 867 966
0 0 0 0 0 0 0 0 0 0 0 0 0 0 0 0 0 0 0 0 0 0 0 0 0 0 0 0 0 20 454 1141 1051 1384 1217 1495 1696 1980 2181 1953 1822 1801 1551 1351 1329 1054 1054 983 924
0 0 0 0 0 0 0 0 0 0 0 0 0 0 0 0 0 0 0 0 0 0 0 0 0 0 0 0 0 1 97 500 955 1283 931 1378 1247 1314 1715 1856 1930 1820 1867 1783 1505 1166 1133 1072 1129
0 0 0 0 0 0 0 0 0 0 0 0 0 0 0 0 0 0 0 0 0 0 0 0 0 0 0 0 0 0 23 138 447 880 794 1053 1035 1052 1514 1396 1675 1780 1498 1473 1297 1183 1221 1284 1355
0 0 0 0 0 0 0 0 0 0 0 0 0 0 0 0 0 0 0 0 0 0 0 0 0 0 0 0 0 0 0 188 631 1689 1742 1028 1418 818 1011 1179 1462 1524 1583 1568 1581 1536 1638 1614 1570
0 0 0 0 0 0 0 0 0 0 0 0 0 0 0 0 0 0 0 0 0 0 0 0 0 0 0 0 0 0 0 34 342 807 958 1255 858 686 842 1239 1629 1738 1759 1984 1931 1922 1868 1826 1724
0 0 0 0 0 0 0 0 0 0 0 0 0 0 0 0 0 0 0 0 0 0 0 0 0 0 0 0 0 0 0 5 55 256 442 623 788 783 918 1267 1585 1818 2234 2132 2139 2041 1864 1778 1311
0 0 0 0 0 0 0 0 0 0 0 0 0 0 0 0 0 0 0 0 0 0 0 0 0 0 0 0 0 0 0 10 32 149 259 473 743 827 1014 1335 1622 2091 2238 2186 2042 1975 1555 1310 1153

GFSSGP_con_mucape_057.txt.gz
CAPE
0 0 0 0 0 0 0 0 0 0 0 0 0 0 0 2 27 46 64 64 0 770 661 1577 2456 2750 2929 2797 2602 2432 2249 1911 1961 2022 1938 1947 2099 2177 2072 1872 1658 1171 496 110 0 0 0 0 0
0 0 0 0 0 0 0 0 0 0 0 0 0 0 0 0 0 0 94 120 1 1038 963 846 2332 2678 2865 2815 2614 2443 2355 2176 2061 2091 2035 2121 2173 2170 1978 1780 1354 811 302 35 0 0 0 0 0
0 0 0 0 0 0 0 0 0 0 0 0 0 0 0 0 0 0 7 206 62 1056 956 947 2261 2598 2795 2752 2579 2385 2395 2333 2216 2193 2177 2250 2205 2080 1891 1660 1418 630 135 0 0 0 0 0 0
0 0 0 0 0 0 0 0 0 0 0 0 0 0 0 0 0 0 159 206 219 673 922 1667 2048 2408 2641 2691 2523 2389 2424 2430 2334 2296 2254 2277 2164 1906 1665 1525 1271 753 29 0 0 0 0 0 0
0 0 0 0 0 0 0 0 0 0 0 0 0 0 0 0 0 1 368 257 333 404 863 1861 1831 2239 2505 2615 2428 2307 2355 2315 2311 2329 2303 2248 1994 1683 1468 1324 1104 689 259 47 0 3 30 21 0
0 0 0 0 0 0 0 0 0 0 0 0 0 0 0 0 0 17 565 455 291 322 625 2011 1702 2023 2214 2350 2214 2073 2027 2064 2149 2199 2166 2060 1725 1450 1256 1124 904 596 455 233 125 105 77 86 31
0 25 15 2 4 5 0 0 0 0 0 0 0 0 0 0 0 19 674 529 464 360 422 1997 1068 1760 2129 2063 1910 1771 1652 1633 1660 1643 1661 1592 1423 1209 1032 869 700 679 589 379 292 259 172 140 59
0 8 21 32 15 5 5 0 0 0 0 0 0 0 0 0 0 0 611 495 580 357 296 1271 688 1111 1195 1411 1919 1828 1709 1542 1439 1446 1422 1365 1257 1051 871 601 539 725 716 518 474 361 283 198 152
0 0 3 14 45 44 23 9 0 0 0 0 0 0 0 0 0 0 0 638 518 394 288 873 534 840 753 484 1392 1707 1673 1580 1508 1382 1414 953 230 349 278 97 394 733 821 603 505 412 332 228 64
0 0 0 3 28 71 77 35 6 0 0 0 0 0 0 0 0 0 0 142 519 530 273 474 1221 839 603 207 949 831 783 861 857 672 742 644 400 362 60 137 631 597 799 700 567 534 363 92 0
0 0 0 0 12 41 30 51 20 8 0 0 1 0 0 0 0 0 0 0 266 567 337 249 1539 2082 1023 314 692 619 470 596 716 668 1242 1005 368 548 244 193 130 144 314 18 121 63 11 0 0
0 0 0 0 1 19 15 0 3 25 19 0 0 0 0 0 0 0 0 0 191 290 394 239 1083 1610 2239 495 447 685 329 757 660 670 1728 1783 887 1729 1467 398 386 1001 127 171 78 69 247 68 19
0 0 0 0 0 0 0 0 0 0 0 0 0 0 0 0 0 0 0 0 2 219 354 431 563 1471 2221 3076 871 895 651 617 620 721 1404 1156 918 2052 1393 1513 474 664 286 237 432 202 293 153 117
0 0 0 0 0 0 0 0 0 0 0 0 0 0 0 0 0 0 0 0 11 61 229 310 490 2176 2151 2577 3397 2134 1814 986 927 1026 1454 2068 1573 2330 949 1294 637 464 269 205 266 468 279 220 130
0 0 0 0 0 0 0 0 0 0 0 0 0 0 0 0 0 0 0 0 0 33 61 891 745 1587 2935 3221 2836 2444 1263 1091 1084 1250 2502 2396 2646 2361 1976 720 768 853 967 1973 1131 619 380 187 129
0 0 0 0 0 0 0 0 0 0 0 0 0 0 0 0 0 0 0 0 0 0 79 779 407 1082 2144 2448 2535 2019 1416 1423 976 1293 1397 2099 2670 2389 2339 956 1136 1075 1134 638 1050 624 231 215 254
0 0 0 0 0 0 0 0 0 0 0 0 0 0 0 0 0 0 0 0 0 0 1 716 1817 1110 2175 2132 1878 2111 1967 1088 1062 1158 1204 1884 2017 2027 2214 1553 1339 1779 791 704 1146 966 778 705 648
1 0 0 0 0 0 0 0 0 0 0 0 0 0 0 0 0 0 0 0 0 0 0 20 714 1720 2242 1849 2055 1421 1246 1214 807 518 692 922 1702 1722 2124 1423 1481 1016 873 512 801 1149 1091 999 995
0 0 0 0 0 0 0 0 0 0 0 0 0 0 0 0 0 0 0 0 0 0 1 0 25 1533 1511 2160 1284 1626 1173 1046 936 888 1269 1382 1446 1590 1784 1175 976 898 847 1330 1915 1407 1707 1348 1684
0 0 0 0 0 0 0 0 0 0 0 0 0 0 0 0 0 0 0 0 0 0 0 1 1 5 1199 1567 1479 1548 1219 686 553 672 500 1040 1312 1583 1512 1015 705 1094 785 2249 2290 2328 1638 1864 2077
0 0 0 0 0 0 0 0 0 0 0 0 0 0 0 0 0 0 0 0 0 0 0 0 0 13 29 794 2177 2620 3400 3547 2111 1324 912 1100 1151 1450 1234 1468 572 1027 1754 1885 2540 2776 3126 1843 2151
0 0 0 0 0 0 0 0 0 0 0 0 0 0 0 0 0 0 0 0 0 0 0 0 0 5 63 389 361 1391 2203 1903 2051 2549 2168 1519 2150 1861 1721 1178 1649 2066 2390 2574 3263 3118 3230 3312 2291
0 0 0 0 0 0 0 0 0 0 0 0 0 0 0 0 0 0 0 0 0 0 0 0 0 0 68 145 235 401 871 1492 984 118 1140 2864 2832 1689 1379 1656 2508 3466 3018 3487 3610 4421 4259 2860 2446
0 0 0 0 0 0 0 0 0 16 0 0 0 0 0 0 0 0 0 0 0 0 0 0 0 7 0 3 285 691 840 914 828 1238 960 1371 2071 2336 2596 2552 3493 3843 4037 4147 4187 4558 4495 3708 3299
7 0 0 0 27 2 12 0 2 0 0 0 0 0 0 0 0 0 0 0 0 0 0 0 0 0 3 23 9 184 442 994 1486 1041 1404 1467 1140 1910 3924 3410 4034 3987 4907 4394 4176 4667 4445 3928 3147
8 30 0 0 70 39 9 0 29 0 0 0 0 0 0 0 0 0 0 0 0 0 0 0 0 0 0 0 0 51 224 4 76 479 490 928 1634 2218 3437 4713 3973 4457 4444 4323 4533 3792 3562 3607 3359
9 18 25 0 0 0 0 7 2 0 0 0 0 0 0 0 0 0 0 0 0 0 0 0 0 0 0 0 27 110 114 219 162 905 1785 493 1317 1285 2554 4552 4346 4501 4211 4305 4527 3725 4010 3682 3689
31 20 29 34 0 0 0 14 44 35 41 8 0 0 0 0 0 1 2 2 0 0 0 0 1 0 0 1 18 1 29 101 207 735 1292 1431 2018 1944 1783 2767 3714 3902 4127 4189 4388 4087 3955 3553 2896
62 0 28 45 61 0 0 12 39 17 29 22 11 1 1 1 0 3 2 3 4 0 0 4 0 0 0 0 0 2 1 0 56 311 897 1179 2195 2682 2857 2171 2773 3615 3876 4114 4478 3683 3077 3307 3658
57 77 94 85 0 65 105 62 21 1 43 49 16 17 12 23 14 11 5 0 0 0 1 0 0 0 0 0 0 0 0 0 78 243 556 1278 1891 2271 2323 2382 2445 2639 3598 4053 3898 3129 2348 3152 2867

GFSSGP_con_mucape_060.txt.gz
CAPE
0 0 0 0 0 0 0 0 0 0 0 0 0 0 0 0 0 119 45 133 708 460 1596 2088 2657 2891 2712 2516 2270 2101 1762 1803 1908 1868 1767 1931 2056 2056 1882 1724 1554 1200 634 91 0 0 0 0 0
0 0 0 0 0 0 0 0 0 0 0 0 0 0 0 0 25 89 223 46 959 718 1552 1686 2665 2805 2784 2539 2283 2078 1837 1917 1940 1871 1842 2006 2094 2000 1810 1658 1437 985 294 0 0 0 0 0 0
0 0 0 0 0 0 0 0 0 0 0 0 0 0 0 0 0 0 15 108 1289 1064 1193 2055 2628 2746 2856 2762 2405 2133 1929 1943 1975 1953 1942 2094 2101 1958 1747 1585 1328 834 135 6 0 0 0 0 0
0 0 0 0 0 0 0 0 0 0 0 0 0 0 0 0 0 0 77 231 1246 1282 717 2033 2513 2647 2758 2791 2556 2324 2155 2026 2024 2057 2057 2146 2079 1879 1666 1538 1281 800 206 21 4 0 0 0 0
0 0 0 0 0 0 0 0 0 0 0 0 0 0 0 0 0 0 157 176 145 1391 890 1860 2358 2575 2702 2761 2616 2449 2374 2170 2129 2167 2172 2207 2001 1736 1590 1474 1221 791 221 85 40 23 14 3 0
0 0 0 0 0 0 0 0 0 0 0 0 0 0 0 0 0 0 289 293 148 985 1243 2068 2214 2446 2507 2593 2463 2345 2272 2225 2234 2219 2228 2184 1892 1615 1462 1290 1129 667 315 170 106 49 43 40 17
0 0 0 0 0 0 0 0 0 0 0 0 0 0 0 0 0 0 220 356 390 547 1427 1886 1465 2316 2500 2361 2232 2157 2021 1997 2008 1962 1943 1886 1657 1374 1212 1063 845 638 508 293 212 179 134 128 77
0 0 0 1 7 0 0 0 0 0 0 0 0 0 3 0 0 0 0 428 393 306 1141 1933 1119 1558 2032 2066 2165 2044 1975 1843 1721 1714 1668 1523 1359 1132 976 641 584 679 660 470 405 340 262 244 195
0 0 0 0 0 4 5 0 0 0 0 0 0 0 0 0 0 0 0 31 503 403 844 1592 810 1256 1188 1464 1904 1963 1996 1848 1722 1518 1496 1030 955 668 486 231 339 690 749 603 531 446 374 365 332
0 0 0 0 0 0 3 21 52 0 0 0 0 0 0 0 0 0 0 0 563 631 374 916 879 972 851 576 1672 1619 1666 1575 1516 1356 1337 1078 676 512 66 128 446 552 749 727 591 559 506 342 0
0 0 0 0 0 0 0 0 10 3 0 0 0 0 0 0 0 0 0 0 40 462 368 841 1116 1170 821 413 1658 1041 1077 1115 1254 1178 1275 987 521 713 182 207 53 189 493 71 227 173 118 0 0
0 0 0 0 0 0 0 0 0 0 0 0 0 0 0 0 0 0 0 0 0 327 486 1016 1284 1707 1772 644 1481 782 781 873 979 934 1176 1204 912 727 1048 259 138 180 128 29 17 23 23 13 13
0 0 0 0 0 0 0 0 0 0 0 0 0 0 0 0 0 0 0 0 3 290 441 1131 1714 2085 1552 3039 1123 960 515 790 903 1049 1203 1259 662 1351 1378 1859 1014 735 485 179 137 44 264 193 201
0 0 0 0 0 0 0 0 0 0 0 0 0 0 0 0 0 0 0 0 70 118 443 1001 1612 2615 2566 2634 3083 3633 680 983 931 1048 1121 1222 1657 904 1904 1952 1933 1475 1223 830 373 498 670 618 279
0 0 0 0 0 0 0 0 0 0 0 0 0 0 0 0 0 0 0 0 312 228 263 669 1919 2437 2693 2850 3233 2949 2861 1512 982 1058 1565 1341 1693 2457 1579 1591 1306 1345 1266 1881 1943 1574 1502 877 499
0 0 0 0 0 0 0 0 0 0 0 0 0 0 0 0 0 0 0 8 9 162 458 356 692 1943 2655 2609 2598 2957 2674 1937 2231 1715 2536 2023 1831 2390 2857 1625 1379 1197 1722 1635 1215 1218 910 611 290
0 0 0 0 0 0 0 0 0 0 0 0 0 0 0 0 0 0 5 24 41 83 392 918 2036 2203 2173 2811 2328 2692 2541 2654 2337 2644 1654 2402 2526 1945 2028 1748 1316 1988 1615 1180 1401 1582 1155 765 543
0 0 0 0 0 0 0 0 0 0 0 0 0 0 0 0 0 2 16 0 0 99 79 693 1513 2070 2470 2263 2451 1942 2172 2046 1603 1646 1308 1773 1827 2099 1926 1771 2028 2366 1379 948 1139 1395 1173 801 774
0 0 0 0 0 0 0 0 0 0 0 0 0 0 0 0 0 0 0 0 0 3 264 261 1312 2306 1844 1882 1684 1453 1594 1355 857 818 755 1063 1151 1596 1916 1897 1709 1755 1178 859 1150 1300 1112 866 1381
0 0 0 0 0 0 0 0 0 0 0 0 0 0 0 0 0 0 0 0 0 212 326 488 643 1941 1864 1101 1718 1309 1422 1466 1345 769 925 1338 1178 1438 1540 1592 1366 1170 724 791 783 1474 1052 1130 1297
0 0 0 0 0 0 0 0 0 0 0 0 0 0 0 0 0 0 0 0 0 14 287 100 324 628 1077 2217 2235 1933 1912 2458 2378 930 701 520 643 497 1442 1576 1047 836 697 436 995 1606 1636 1100 1912
0 0 0 0 0 0 0 0 0 0 0 0 0 0 0 0 0 0 0 0 0 27 29 0 138 156 368 719 1554 2393 2156 1234 1615 1847 1814 1104 1191 1048 1481 1077 1015 604 912 772 929 1702 1754 1728 1406
0 3 2 0 0 0 0 0 0 0 0 0 0 0 0 0 0 0 0 0 0 0 0 176 139 58 49 415 715 909 1229 1377 475 556 1262 1331 1560 1741 1159 1275 1158 810 1079 878 1358 1523 2310 2572 2424
2 0 1 6 0 0 0 0 0 0 9 2 0 0 0 0 0 0 0 0 0 0 1 42 313 44 88 248 459 1120 807 977 1258 954 282 237 161 243 452 1453 1143 945 700 662 1629 2082 2709 3047 3031
0 7 0 0 0 0 0 9 0 14 0 3 0 0 0 0 0 0 0 0 0 0 0 0 0 248 86 160 145 185 634 585 678 1060 967 949 381 296 202 1102 144 0 8 7 77 37 794 4031 3080
8 5 0 0 0 41 5 2 21 30 1 0 0 0 0 0 0 0 0 5 0 0 0 0 1 20 32 83 121 159 212 415 275 244 273 439 1122 1015 889 642 240 84 22 51 260 517 2806 3583 3550
12 1 0 43 3 44 0 0 53 1 0 0 0 0 0 0 0 1 11 13 11 15 20 7 0 0 1 40 247 413 372 372 142 256 464 414 1077 757 838 850 465 894 915 1889 1744 2959 3208 3414 3355
56 26 23 47 0 0 0 0 1 69 70 1 0 0 0 0 0 6 4 14 49 70 45 211 196 60 16 9 74 28 162 226 224 435 392 420 486 567 1229 1056 2073 2434 2696 3020 3716 3553 3558 3477 3199
172 40 70 77 74 56 0 0 44 51 15 0 0 0 0 0 0 0 0 23 29 22 16 101 188 166 36 0 32 141 59 134 209 199 200 223 701 989 1133 1083 1726 2643 3436 3661 3548 3648 3492 3400 2960
40 112 155 196 51 70 114 2 3 26 3 3 14 1 5 0 0 0 3 3 0 0 0 0 22 35 16 23 41 88 200 359 351 101 150 637 531 1062 1115 1469 1606 1717 1456 2875 3525 3713 3550 3191 2667

GFSSGP_con_mucape_063.txt.gz
CAPE
0 0 0 0 0 0 0 0 0 0 0 0 0 77 42 27 98 80 245 250 892 1331 2155 2574 2505 2463 2437 2284 1959 1723 1664 1698 1580 1614 1694 1811 1821 1715 1583 1477 1278 1092 388 37 0 0 0 0 0
0 0 0 0 0 0 0 0 0 0 0 0 0 0 22 75 125 111 497 419 709 1281 1784 2268 2556 2446 2435 2235 1903 1614 1691 1735 1585 1610 1739 1847 1756 1640 1506 1418 1218 846 52 0 0 0 0 0 0
0 0 0 0 0 0 0 0 0 0 0 0 0 0 0 0 69 11 636 502 962 1033 1361 2134 2586 2376 2391 2202 1898 1628 1695 1733 1650 1691 1806 1890 1755 1564 1407 1366 1124 672 4 0 0 0 0 0 0
0 0 0 0 0 0 0 0 0 0 0 0 0 0 0 0 0 1 547 674 890 675 1268 2381 2516 2323 2260 2209 2011 1790 1786 1787 1738 1778 1884 1909 1776 1507 1379 1312 1097 727 36 0 0 0 0 0 0
0 0 0 0 0 0 0 0 0 0 0 0 0 0 0 0 1 41 111 953 718 494 1699 2158 2477 2450 2327 2304 2164 2002 1904 1776 1823 1879 1969 1932 1725 1466 1363 1288 1073 763 284 55 3 2 0 0 0
0 0 0 0 0 0 0 0 0 0 0 0 0 0 0 0 0 43 167 274 903 569 1459 1873 2517 2493 2354 2318 2208 2064 1913 1839 1894 1898 1985 1937 1648 1476 1360 1223 1091 715 333 168 93 24 6 2 0
0 0 0 0 0 0 0 0 0 0 0 0 0 0 0 0 0 0 87 195 818 1086 1255 1513 2172 2382 2397 2191 2094 2058 1973 1911 1828 1767 1787 1765 1598 1404 1227 1051 914 533 316 177 117 82 56 48 30
0 0 0 0 0 0 0 0 0 0 0 0 0 0 0 0 0 0 0 81 570 1376 1289 1224 1871 2122 2051 2243 2148 2051 2013 1970 1809 1805 1787 1612 1495 1263 1055 697 613 571 447 294 210 195 181 133 113
0 0 0 0 0 0 0 0 0 0 0 0 0 0 0 0 0 0 0 0 631 1413 1078 933 1520 1838 1796 2009 2026 2001 2174 1953 1797 1777 1628 1264 906 753 680 367 430 543 568 508 378 358 298 248 256
0 0 0 0 0 0 0 0 0 0 0 0 0 0 0 0 0 0 0 0 363 1434 1128 801 996 1387 1601 1733 1991 1644 1744 1492 1351 1289 1187 902 665 412 258 187 455 482 607 659 554 494 426 396 53
0 0 0 0 0 0 0 0 0 0 0 0 0 0 0 0 0 0 0 0 136 267 1005 970 813 827 991 1394 1418 1431 1369 1194 1120 1054 868 749 434 310 161 87 72 90 341 146 294 251 229 127 30
0 0 0 0 0 0 0 0 0 0 21 0 0 0 0 0 0 0 0 0 1 69 231 1041 738 643 619 1072 1025 1209 1184 1068 1010 945 848 525 258 114 213 38 14 6 1 30 11 23 17 37 1
0 0 0 0 0 0 0 0 0 0 0 24 8 5 0 0 0 0 0 0 0 79 226 625 895 577 430 1061 660 679 757 817 738 831 868 489 271 253 206 198 99 22 23 206 161 15 63 67 28
0 0 0 0 0 0 0 0 0 0 0 3 0 0 0 0 0 0 0 0 0 16 567 748 1005 840 670 1149 804 397 568 510 647 575 674 809 271 378 287 481 417 312 271 427 268 178 172 158 149
0 0 0 0 0 0 0 0 0 0 0 0 0 0 0 0 0 0 0 0 0 6 198 1414 1627 1589 1124 1766 1986 1734 574 551 565 716 681 700 961 231 491 717 453 768 950 628 468 332 341 319 363
0 0 0 0 0 0 0 0 0 0 0 0 0 0 0 0 0 0 0 0 16 59 112 641 1479 1885 1263 1737 1542 1595 1528 1158 487 666 649 802 725 1119 497 1000 1008 702 522 654 547 574 416 351 270
0 0 0 0 0 0 0 0 0 0 0 0 0 0 0 0 0 0 0 0 78 42 76 215 1023 1937 1900 1838 1842 1651 1319 1479 1331 1002 1339 1028 780 1075 1659 1435 1135 985 826 738 726 605 459 332 336
0 0 0 0 0 0 0 0 0 0 0 0 0 0 0 0 0 0 0 0 0 0 0 0 910 1810 2060 1809 1550 1811 1726 1427 1234 1156 1245 1839 1496 1217 1565 1539 1436 1154 893 969 621 372 593 703 489
0 0 0 0 0 0 0 0 0 0 0 0 0 0 0 0 0 0 0 0 0 0 2 3 566 1097 2209 2048 1657 1654 1496 1408 1165 967 955 930 1587 1992 1365 1194 1224 1487 1211 870 574 357 472 493 489
0 0 0 0 0 0 0 0 0 0 0 0 0 0 0 0 0 0 0 0 0 0 42 23 35 611 1477 2014 1671 1283 1222 1336 923 997 918 901 753 937 1878 1640 1286 1312 1305 935 666 362 354 501 576
0 0 0 0 0 5 0 0 0 0 0 0 0 0 0 0 0 0 0 0 0 0 31 53 169 258 900 1696 1682 1491 1442 1301 1153 928 643 584 551 534 873 1472 1708 1522 1261 787 451 315 516 608 699
0 0 0 0 0 0 0 0 0 0 0 0 0 0 0 0 0 0 0 0 0 0 0 0 8 68 150 206 1737 1510 982 1364 1296 1104 967 832 698 501 450 1129 1310 1203 1101 584 290 545 938 1246 1187
0 0 0 0 0 0 0 0 0 0 0 0 0 0 0 0 0 0 0 0 0 0 0 0 0 0 0 17 190 1350 1736 1217 1033 1136 1488 1045 870 1125 667 781 1065 1031 704 402 598 649 609 1582 1672
0 0 0 0 0 0 0 0 0 0 0 0 0 0 0 0 0 0 0 0 0 0 0 0 0 0 0 1 26 182 325 547 1075 1079 801 706 886 1142 1148 1229 867 710 622 760 803 956 1391 1575 1425
0 0 0 0 0 0 0 2 0 0 0 0 0 0 0 0 0 0 0 0 0 0 0 0 0 0 0 0 0 0 42 198 223 238 568 687 656 657 361 563 934 906 960 1019 789 836 1155 30 17
6 17 0 0 0 0 0 5 0 13 0 0 0 0 0 0 0 0 0 0 0 0 0 0 0 0 0 0 0 6 1 152 115 107 123 86 424 407 454 457 172 388 373 355 146 17 16 13 18
39 16 6 0 0 0 0 0 0 3 12 1 0 0 0 0 0 0 0 0 0 0 0 0 0 0 0 0 0 0 0 0 7 21 57 89 247 586 821 747 656 708 123 214 196 10 1 46 48
101 90 50 11 0 0 0 0 0 20 10 0 0 0 0 0 0 0 0 0 0 0 0 0 0 0 0 0 0 0 0 0 0 10 53 43 13 45 137 533 644 509 399 469 217 181 257 209 174
14 57 28 4 0 0 0 0 13 15 4 4 0 0 0 0 0 0 0 0 0 0 0 0 0 0 0 0 0 0 0 0 0 0 9 96 96 138 202 330 357 595 873 982 1230 778 441 850 1013
34 6 0 14 0 0 0 0 13 2 0 0 0 0 0 0 0 14 9 0 0 0 0 0 0 0 0 0 0 0 0 0 0 0 0 26 58 67 190 489 576 754 981 1640 1691 1644 1641 2262 2606

GFSSGP_con_mucape_069.txt.gz
CAPE
0 0 0 0 0 0 0 0 0 0 0 0 42 15 47 24 34 10 142 256 1271 1541 1741 1998 2174 2103 1920 1745 1570 1365 1388 1452 1470 1450 1465 1563 1668 1733 1719 1663 1567 1101 399 34 0 0 0 0 0
0 0 0 0 0 0 0 0 0 0 0 0 0 69 64 42 127 157 162 907 1192 1501 1706 1742 2199 2123 2001 1712 1458 1298 1330 1346 1307 1349 1427 1496 1523 1521 1464 1349 1048 494 102 0 0 0 0 0 0
0 0 0 0 0 0 0 0 0 0 0 0 0 16 77 55 95 265 306 1097 1457 1486 1529 1748 2207 2078 1982 1725 1471 1324 1308 1327 1381 1416 1404 1399 1368 1291 1200 1118 916 227 8 0 0 0 0 0 0
0 0 0 0 0 0 0 0 0 0 0 0 0 0 19 53 103 309 586 1178 1433 1428 1581 2108 2169 2022 1909 1702 1567 1380 1372 1423 1453 1471 1438 1353 1245 1161 1133 1066 838 417 5 0 0 0 0 0 0
0 0 0 0 0 0 0 0 0 0 0 0 0 5 35 25 177 379 606 800 1071 1455 1625 2013 2204 2076 1902 1766 1644 1451 1431 1409 1523 1535 1480 1295 1191 1142 1134 1030 640 343 23 0 0 0 0 0 0
0 0 0 0 0 0 0 0 0 0 0 0 0 0 0 0 389 374 390 444 761 1246 1698 1815 2173 2086 1831 1792 1664 1492 1409 1483 1569 1543 1474 1364 1202 1155 1090 1038 795 554 154 38 1 0 0 0 0
0 0 0 0 0 0 0 0 0 0 0 0 0 0 0 1 286 402 337 274 587 1169 1588 1729 1833 1925 1909 1706 1590 1540 1423 1480 1532 1484 1435 1350 1236 1205 1145 1069 942 621 336 183 89 12 0 0 0
0 0 0 0 0 0 0 0 0 0 0 0 0 0 0 0 0 482 402 280 596 1235 1521 1492 1706 1749 1568 1493 1768 1629 1529 1499 1442 1512 1429 1300 1280 1194 1080 768 753 561 352 258 149 79 32 0 0
0 0 0 0 0 0 0 0 0 0 0 0 0 0 0 0 0 313 559 391 976 989 1480 1420 1609 1593 1423 1355 1552 1643 1719 1605 1449 1512 1443 1092 860 856 791 491 664 608 425 341 243 172 101 46 53
0 0 0 0 0 0 0 0 0 0 0 0 0 0 0 0 2 113 579 589 870 849 1233 1207 1408 1461 1387 1368 1400 1271 1274 1291 1149 1113 1137 828 642 614 502 388 715 700 554 498 394 268 208 168 0
0 0 0 0 0 0 0 0 0 0 0 0 0 0 0 0 4 378 595 782 868 942 1108 1311 1231 1189 1220 1286 1417 1195 1268 1162 1144 1131 1000 740 575 612 586 262 327 194 296 64 220 128 98 29 0
0 0 0 0 0 0 0 0 0 0 0 0 0 0 0 0 108 332 771 1046 1098 1071 1017 1309 1225 1051 1180 1112 1240 1171 1275 1075 1003 1019 950 659 530 445 374 207 74 57 18 24 0 0 18 0 5
0 0 0 0 0 0 0 0 0 0 0 0 0 0 0 0 0 220 652 989 1244 1170 1039 1366 1336 1110 1266 1208 978 1156 1363 1440 1234 1125 944 700 470 311 289 195 50 7 0 0 0 7 138 136 83
0 0 0 0 0 0 0 0 0 0 0 0 0 0 0 0 0 0 313 928 1260 1344 1209 1150 1387 1413 1279 1284 1078 1020 1434 1526 1223 990 969 838 516 305 238 170 52 16 3 0 0 9 259 356 270
0 0 0 0 0 0 0 0 0 0 0 0 0 0 0 0 0 0 0 3 361 1016 1510 1403 1315 1181 1150 1297 1173 1115 1152 1081 991 990 1022 939 711 387 175 148 110 60 31 30 182 182 342 463 423
0 0 0 0 0 0 0 0 0 0 0 0 0 0 0 0 0 0 0 0 3 217 579 1124 1350 1395 1347 1250 1034 914 945 914 916 939 921 948 788 529 243 86 121 198 176 167 367 480 771 575 468
0 0 0 0 0 0 0 0 0 0 0 0 0 0 0 0 0 0 0 0 0 10 489 817 1131 1246 1334 1325 993 788 631 695 741 752 728 758 748 540 342 162 180 149 198 411 505 707 567 478 440
0 0 0 0 0 0 0 0 0 0 0 0 0 0 0 0 0 0 0 0 0 0 512 868 1158 1219 1267 1336 1106 963 699 544 448 427 442 535 678 634 392 201 123 292 423 535 644 781 809 603 598
0 0 0 0 0 0 0 0 0 0 0 0 0 0 0 0 0 0 0 0 0 35 829 1284 1494 1360 1321 1509 1451 1482 1339 879 598 493 462 612 651 683 629 461 387 286 330 439 820 1005 907 738 608
0 0 0 0 0 0 0 0 0 0 0 0 0 0 0 0 0 0 0 0 1 146 949 1556 1881 2018 1540 1629 1776 1668 1654 1475 1164 696 682 864 842 795 700 833 900 924 1002 1137 1228 1181 1099 821 603
0 0 0 0 0 0 0 0 0 0 0 0 0 0 0 0 0 0 0 15 48 104 240 565 1523 1901 2141 2005 1856 1926 1705 1372 1375 1306 1170 1099 1144 962 829 928 922 1010 1290 1416 1415 1283 1064 871 545
0 0 0 0 0 0 0 0 0 0 0 0 0 0 0 0 0 0 0 2 65 19 18 5 77 941 1491 1911 2250 2104 1802 1381 1321 1270 1141 1196 1187 1282 1531 1242 1147 1247 1198 1232 1239 1218 1071 908 795
0 0 0 0 0 0 0 0 0 0 0 0 0 0 0 0 0 0 0 0 10 6 0 0 2 26 80 310 875 1345 1584 1645 1378 1146 1042 1021 937 998 872 1264 1492 1504 1548 1344 1022 736 944 996 873
0 0 0 0 0 0 0 0 0 0 0 0 0 0 0 0 0 0 0 0 0 0 0 82 17 0 0 19 85 157 267 487 1014 1274 1189 1011 987 946 801 669 662 969 1269 1124 901 622 216 430 808
0 0 1 0 0 0 0 0 0 0 0 0 0 0 0 0 0 0 0 0 0 0 39 41 1 0 0 0 16 101 140 75 64 152 514 834 918 943 908 904 880 944 902 988 896 828 780 688 666
0 27 26 8 0 0 0 0 0 0 0 0 0 0 0 0 0 0 0 0 0 32 35 0 0 0 0 0 0 0 0 2 20 19 41 38 112 302 440 702 722 810 901 1167 1069 874 731 767 765
6 0 13 69 0 23 0 0 0 0 0 0 0 0 0 0 0 0 0 0 8 98 13 0 0 0 0 0 0 0 0 0 0 0 0 0 0 2 8 153 325 353 373 584 954 956 916 843 726
46 28 26 19 16 5 0 0 0 0 0 0 1 0 0 0 0 0 0 0 98 26 2 0 0 0 0 0 0 0 0 0 0 0 0 0 0 0 0 7 96 229 353 442 488 545 562 524 472
7 24 30 28 21 2 0 0 10 19 30 2 1 0 0 0 0 0 0 0 0 1 0 0 0 0 0 0 0 0 0 0 0 0 0 0 0 0 0 0 0 84 241 356 500 453 389 291 350
4 10 10 18 0 0 4 0 11 10 12 0 0 1 4 0 0 0 0 0 0 0 0 0 0 0 0 0 0 0 0 0 0 0 0 0 0 0 0 0 3 70 144 244 442 509 529 480 530

GFSSGP_con_mucape_072.txt.gz
CAPE
0 0 0 0 0 0 0 0 0 0 0 0 8 1 25 14 0 0 57 326 865 1112 1663 1778 1983 1920 1882 1792 1744 1740 1722 1722 1728 1676 1584 1585 1657 1729 1717 1685 1627 1286 514 57 0 0 0 0 0
0 0 0 0 0 0 0 0 0 0 0 0 0 56 25 77 108 111 132 1010 852 1349 1630 1607 2022 1890 1861 1689 1604 1578 1623 1626 1567 1519 1587 1630 1671 1739 1644 1566 1267 646 154 1 0 0 0 0 0
0 0 0 0 0 0 0 0 0 0 0 0 0 12 54 31 179 182 227 1081 1263 1349 1392 1531 2020 1910 1811 1625 1480 1457 1478 1470 1453 1503 1562 1613 1638 1569 1419 1281 1007 346 17 0 0 0 0 0 0
0 0 0 0 0 0 0 0 0 0 0 0 0 0 37 53 103 229 1119 1350 1156 1257 1290 1788 1998 1868 1781 1645 1498 1402 1395 1427 1427 1493 1478 1493 1401 1210 1104 1051 816 461 35 0 0 0 0 0 0
0 0 0 0 0 0 0 0 0 0 0 0 0 2 50 55 352 741 1303 1246 1072 1134 1262 1939 2016 1882 1813 1675 1545 1440 1421 1383 1436 1437 1398 1310 1121 1010 998 909 632 476 163 17 0 0 0 0 0
0 0 0 0 0 0 0 0 0 0 0 0 0 0 0 17 418 601 996 1017 1083 1085 1349 1588 1896 1876 1727 1697 1521 1407 1360 1377 1426 1399 1316 1218 1063 1006 966 891 748 538 220 77 10 0 0 0 0
0 0 0 0 0 0 0 0 0 0 0 0 0 0 0 0 323 454 539 855 1237 1288 1412 1429 1461 1664 1779 1684 1468 1376 1293 1297 1305 1299 1254 1133 1072 1052 1029 915 883 682 362 200 97 3 0 0 0
0 0 0 0 0 0 0 0 0 0 0 0 0 0 0 0 219 291 320 613 1112 1516 1379 1354 1424 1447 1374 1354 1589 1477 1336 1285 1231 1243 1250 1098 1069 1068 1028 787 825 676 397 259 149 52 9 0 0
0 0 0 0 0 0 0 0 0 0 0 0 0 0 0 0 171 374 272 527 953 1372 1285 1223 1296 1338 1150 1209 1312 1508 1364 1404 1340 1328 1250 915 694 780 706 566 629 669 404 285 189 108 52 20 17
0 0 0 0 0 0 0 0 0 0 0 0 0 0 0 0 211 508 349 407 666 975 1089 1054 1160 1216 1077 1143 1165 1163 1080 1104 1024 1012 962 591 491 505 414 422 662 750 486 373 295 223 156 123 0
0 0 0 0 0 0 0 0 0 0 0 0 0 0 0 0 15 583 481 309 494 727 997 1088 1062 1815 1174 1007 1170 957 1002 1024 921 948 869 533 427 486 491 295 405 290 468 113 261 139 78 4 0
0 0 0 0 0 0 0 0 0 0 0 0 0 0 0 0 3 160 581 552 519 782 1012 1188 1120 1467 1284 1125 1041 876 898 947 892 934 802 603 452 387 397 254 138 138 74 49 0 0 0 3 1
0 0 0 0 0 0 0 0 0 0 0 0 0 0 0 0 0 148 417 751 824 897 968 1327 1247 1385 1334 1248 1139 977 914 938 878 751 753 686 485 336 335 267 123 56 15 0 0 0 10 101 136
0 0 0 0 0 0 0 0 0 0 0 0 0 0 0 0 0 79 324 828 1043 1070 988 1422 1336 1259 1235 1214 1185 1029 958 902 773 822 783 871 550 380 319 258 182 72 2 0 0 0 1 181 313
0 0 0 0 0 0 0 0 0 0 0 0 0 0 0 0 0 1 376 788 1020 1171 1175 1300 1361 1231 1212 1341 1139 924 876 938 896 914 1057 846 759 497 302 225 181 106 35 6 26 92 143 226 437
0 0 0 0 0 0 0 0 0 0 0 0 0 0 0 0 0 0 54 420 745 943 1290 1304 1362 1345 1317 1396 1268 1028 544 1084 1171 1372 962 970 896 759 497 287 220 136 60 75 119 170 339 556 532
0 0 0 0 0 0 0 0 0 0 0 0 0 0 0 0 0 0 0 11 500 774 1137 1313 1403 1333 1364 1374 1312 1167 1030 1053 1188 1101 1031 1067 1095 976 770 521 272 128 162 204 248 366 523 526 577
0 0 0 0 0 0 0 0 0 0 0 0 0 0 0 0 0 0 0 0 0 113 720 1129 1378 1445 1444 1283 1276 1166 1068 1067 1083 1081 1023 1013 1022 1040 917 764 467 169 138 214 313 435 517 692 750
0 0 0 0 0 0 0 0 0 0 0 0 0 0 0 0 0 0 0 0 0 0 21 493 1082 1428 1471 1414 1276 1333 1288 929 914 989 911 801 860 867 876 764 602 258 275 349 371 563 789 934 801
0 0 0 0 0 0 0 0 0 0 0 0 0 0 0 0 0 0 0 0 0 0 0 352 941 1288 1391 1350 1369 1455 1336 1049 817 824 699 704 691 640 697 674 559 455 199 286 440 550 865 976 884
0 0 0 0 0 0 0 0 0 0 0 0 0 0 0 0 0 0 0 0 0 0 6 415 1111 1362 1388 1419 1524 1438 1438 1365 1235 1062 953 752 808 844 831 714 671 729 555 568 534 808 1128 1114 868
0 0 0 0 0 0 0 0 0 0 0 0 0 0 0 0 0 0 0 0 0 0 23 610 1289 1703 1685 1635 1688 1652 1668 1684 1633 1387 1191 945 938 1101 1148 977 847 863 990 979 1076 1403 1195 1130 883
0 0 0 0 0 0 0 0 0 0 0 0 0 0 0 0 0 0 0 0 0 10 142 808 1694 2169 2383 2331 2069 2031 2079 1727 1574 1622 1436 1330 1298 1301 1362 1289 1257 960 694 654 835 819 577 666 591
0 0 0 0 0 0 0 0 0 0 0 0 0 0 0 0 0 0 0 0 0 0 141 549 1001 1410 1808 2293 2410 2388 2226 2047 1658 1517 1339 1256 1151 1151 1211 1217 978 800 702 656 682 824 520 340 606
0 0 0 0 0 0 0 0 0 0 0 0 0 0 0 0 0 0 0 0 0 0 84 253 255 477 987 1191 1053 784 636 888 1012 1029 1186 1319 1138 1005 990 912 800 696 653 717 510 828 892 755 545
0 0 0 0 0 0 0 0 0 0 0 0 0 0 0 0 0 0 0 0 0 0 1 125 136 83 78 115 167 179 134 84 36 63 299 749 892 914 961 942 879 756 720 796 904 857 881 856 712
0 0 2 10 13 0 0 0 0 0 0 0 0 0 0 0 0 0 0 0 0 0 0 47 234 115 4 0 17 2 0 0 0 0 0 0 0 0 59 189 368 428 423 467 730 661 765 772 775
1 3 0 51 0 0 0 0 0 1 0 2 0 0 0 0 0 0 0 0 0 0 0 38 239 54 12 7 0 0 0 0 0 0 0 0 0 0 0 41 79 67 148 205 290 372 447 504 566
0 3 14 20 21 0 0 0 9 21 12 26 41 6 0 0 0 0 0 0 0 0 0 156 52 30 14 4 0 0 0 0 0 0 0 0 0 0 0 0 0 0 28 135 214 212 246 294 317
0 0 6 0 0 15 0 0 1 14 0 1 16 16 26 4 0 0 0 1 0 63 130 41 16 15 5 0 0 0 0 0 0 0 0 0 0 0 0 0 0 0 7 18 105 230 442 429 411

GFSSGP_con_mucape_075.txt.gz
CAPE
0 0 0 0 0 0 0 0 0 0 0 0 0 0 0 1 0 3 325 413 372 1264 1832 1719 2083 2171 2206 2219 2230 2166 2040 1949 1879 1853 1656 1621 1756 1774 1780 1734 1656 1466 722 189 18 0 0 0 22
0 0 0 0 0 0 0 0 0 0 0 0 0 0 7 57 199 418 480 594 746 1644 1762 1576 2027 2080 2170 2107 2049 1990 2042 2011 1929 1830 1792 1716 1742 1783 1776 1713 1488 933 230 22 0 0 0 0 79
0 0 0 0 0 0 0 0 0 0 0 0 0 0 0 9 175 458 344 775 1068 1745 1786 1728 2002 1966 2026 1975 1869 1828 1857 1841 1815 1829 1744 1695 1738 1732 1663 1598 1317 622 50 0 0 0 0 0 0
0 0 0 0 0 0 0 0 0 0 0 0 0 0 16 29 75 395 823 861 1064 1607 1545 1895 1938 1881 1882 1907 1804 1739 1724 1717 1729 1744 1720 1683 1729 1627 1450 1311 981 610 103 0 0 0 0 0 0
0 0 0 0 0 0 0 0 0 0 0 0 0 0 36 67 1107 1110 1123 957 897 1431 1465 1672 1928 1840 1811 1813 1766 1682 1603 1547 1604 1657 1689 1668 1556 1354 1207 1036 896 577 316 75 0 0 0 0 0
0 0 0 0 0 0 0 0 0 0 0 0 0 0 0 271 1049 1443 1252 1009 845 1311 1482 1653 1869 1818 1704 1675 1617 1513 1441 1428 1533 1542 1538 1484 1259 1120 1041 916 840 600 375 141 38 18 0 0 0
0 0 0 0 0 0 0 0 0 0 0 0 0 0 0 12 594 1268 1389 1106 975 1258 1591 1612 1361 1646 1735 1586 1448 1402 1354 1350 1384 1329 1304 1182 1053 988 928 885 819 643 393 188 94 18 0 0 0
0 0 0 0 0 0 0 0 0 0 0 0 0 0 0 0 396 813 1201 1163 943 1274 1494 1503 1336 1133 989 1196 1587 1450 1385 1348 1302 1277 1217 1038 1023 1021 955 745 817 700 448 275 120 34 12 0 0
0 0 0 0 0 0 0 0 0 0 0 0 0 0 0 0 416 578 840 1060 963 1107 1532 1482 1385 1247 861 705 1073 1430 1408 1419 1292 1299 1219 748 176 324 451 264 838 771 489 334 173 82 37 3 0
0 0 0 0 0 0 0 0 0 0 0 0 0 0 0 0 317 500 554 605 780 978 1511 1515 1525 1305 1058 762 895 783 676 724 778 810 944 604 425 405 181 358 762 763 507 374 272 179 125 32 0
0 0 0 0 0 0 0 0 0 0 0 0 0 0 0 0 1 283 518 410 560 819 1263 1418 1650 1677 1194 983 1167 1008 962 970 999 1002 1041 835 580 571 345 232 237 261 321 41 54 40 1 3 1
0 0 0 0 0 0 0 0 0 0 0 0 0 0 0 0 0 0 450 606 637 955 1112 1398 1544 1759 1709 1283 1164 1008 1016 1072 883 897 1016 817 692 640 512 313 257 396 176 122 87 2 31 44 67
0 0 0 0 0 0 0 0 0 0 0 0 0 0 0 0 0 0 7 695 922 992 1184 1400 1566 1752 1540 1604 1251 1221 1162 1163 960 978 1065 792 593 614 587 519 359 271 198 140 102 55 39 99 181
0 0 0 0 0 0 0 0 0 0 0 0 0 0 0 0 0 0 0 361 1220 1258 1362 1390 1581 2009 1561 1856 1664 1520 1366 1263 1252 1126 1115 905 865 861 625 668 506 320 264 133 120 131 175 221 260
0 0 0 0 0 0 0 0 0 0 0 0 0 0 0 0 0 0 0 402 1327 1676 1656 1725 1811 1952 2003 2324 2263 1809 1442 1322 1302 1245 1285 1065 1090 1149 851 708 605 455 346 352 220 309 307 353 443
0 0 0 0 0 0 0 0 0 0 0 0 0 0 0 0 0 0 0 250 1124 1909 2021 2014 1871 1957 2428 2578 2345 2069 1591 1533 1487 1336 1303 1301 1291 1322 1116 811 685 565 435 311 345 432 489 607 995
0 0 0 0 0 0 0 0 0 0 0 0 0 0 0 0 0 0 0 0 407 1570 2244 2184 2230 2151 2619 2497 2217 2186 2366 1825 1559 1146 1124 1562 1690 1446 1274 1039 894 878 570 375 359 528 657 1112 1269
0 0 0 0 0 0 0 0 0 0 0 0 0 0 0 0 0 0 0 0 0 286 1363 2193 2299 2673 2632 2246 2352 2257 2242 1989 1403 800 1048 1463 1921 1649 1394 1302 1153 929 595 531 519 972 1055 1086 1007
0 0 0 0 0 0 0 0 0 0 0 0 0 0 0 0 0 0 0 0 0 0 275 1402 1974 2471 2464 2164 2131 1945 1864 2159 2053 1760 1666 1739 1756 2137 2094 1658 1398 1157 1057 872 648 731 1039 1021 806
0 0 0 0 0 0 0 0 0 0 0 0 0 0 0 0 0 0 0 0 0 0 6 421 1785 2398 2328 2284 2344 1833 1823 1757 1889 1955 1969 2037 1836 1743 1916 2071 1626 1129 957 1065 1038 1011 1056 1410 1054
0 0 0 0 0 0 0 0 0 0 0 0 0 0 0 0 0 0 0 0 0 0 9 114 1144 2247 2483 2464 2353 2054 1940 1664 1588 1645 1715 1690 1601 1667 1889 1661 1839 1440 1057 855 1025 1215 1590 1208 899
0 0 0 0 0 0 0 0 0 0 0 0 0 0 0 0 0 0 0 0 0 10 54 59 515 1912 1995 2309 2318 2384 2113 1963 1766 1758 1647 1589 1496 1495 1535 1761 1664 1850 1472 1362 1234 1233 1619 1256 1688
0 0 0 0 0 0 0 0 0 0 0 0 0 0 0 0 0 0 0 0 0 0 60 266 597 1453 2036 2349 2644 2408 2638 2498 2334 2181 2259 2305 1912 1747 1578 1719 1796 1970 2106 2345 1805 1465 1309 984 672
0 0 0 0 0 0 0 0 0 0 0 0 0 0 0 0 0 0 0 0 0 0 0 275 930 1733 2266 2429 2813 3133 2870 2724 2527 2631 2522 2520 2300 2100 2087 2131 2268 2124 2117 2010 1476 650 505 438 175
0 0 0 0 0 0 0 0 0 0 0 0 0 0 0 0 0 0 0 0 0 0 0 68 767 1843 2605 2876 2928 2967 3205 2872 2895 2862 2722 2760 2361 2333 2539 2326 2101 2157 2305 1782 857 669 231 189 97
0 0 0 0 0 0 0 0 0 0 0 0 0 0 0 0 0 0 0 0 0 0 0 16 465 1342 2088 2860 3192 3095 3082 2800 2673 2573 2348 2331 2211 2218 2263 2134 1951 1969 1951 1888 1521 755 450 199 35
0 0 0 0 0 0 0 0 0 0 9 0 0 0 0 0 0 0 0 0 0 1 0 0 268 885 1316 1954 2080 2180 2323 1634 1153 1434 1703 1668 1855 1798 1833 1849 1884 1837 1928 2026 2062 2103 1401 977 339
0 0 0 0 0 0 0 0 3 5 7 18 9 0 0 0 0 0 0 0 0 0 6 20 249 672 783 1158 1293 978 950 908 899 915 937 937 686 458 584 623 845 824 958 1113 1529 1506 1478 1297 1560
0 0 13 27 0 0 0 0 77 48 3 15 2 6 1 1 2 0 0 0 0 0 0 67 135 387 552 701 692 553 457 467 405 430 425 289 210 59 44 213 423 311 352 605 912 809 722 761 847
0 0 10 0 0 0 2 0 0 0 44 0 18 3 3 11 5 2 0 0 0 0 10 40 98 175 294 226 205 295 403 316 293 223 139 100 33 0 0 2 10 27 144 535 468 291 230 331 316

GFSSGP_con_mucape_078.txt.gz
CAPE
0 0 0 0 0 0 0 0 0 0 0 0 0 0 1 5 0 207 808 713 224 571 1815 1702 2293 2576 2744 2685 2476 2070 1895 1821 1631 1684 1638 1607 1769 1833 1855 1875 1866 1600 755 352 91 1 0 21 91
0 0 0 0 0 0 0 0 0 0 0 0 0 0 13 64 235 688 811 559 437 963 1815 1528 2233 2472 2637 2572 2388 2107 1886 1804 1749 1689 1663 1749 1765 1821 1859 1811 1640 981 344 62 0 0 13 51 305
0 0 0 0 0 0 0 0 0 0 0 0 0 0 0 85 193 798 864 595 609 1242 1665 1871 2194 2357 2441 2135 2265 2097 1952 1902 1838 1768 1765 1774 1771 1791 1760 1740 1503 662 100 4 0 0 10 73 351
0 0 0 0 0 0 0 0 0 0 0 0 0 0 0 10 72 758 653 497 961 1276 1473 1875 2005 2168 2288 2316 2253 2111 2075 1998 1950 1965 1823 1765 1804 1711 1654 1618 1233 701 184 22 0 0 0 17 2
0 0 0 0 0 0 0 0 0 0 0 0 0 0 19 951 1532 1031 488 586 941 1073 1339 2085 1996 2036 2150 2232 2184 2093 2032 1952 2009 1984 1877 1807 1732 1622 1562 1353 1011 673 375 64 0 0 0 0 0
0 0 0 0 0 0 0 0 0 0 0 0 0 0 0 24 873 1382 813 680 661 979 1370 1615 1884 1973 1972 2043 2029 1931 1847 1850 1909 1871 1825 1785 1654 1528 1390 1123 922 656 431 138 8 0 0 0 0
0 0 0 0 0 0 0 0 0 0 0 0 0 0 0 0 22 1396 1189 995 703 831 1305 1566 1141 1429 1853 1850 1768 1732 1651 1654 1677 1613 1614 1605 1498 1332 1138 980 876 689 448 236 86 18 0 0 0
0 0 0 0 0 0 0 0 0 0 0 0 0 0 0 0 0 839 1581 1276 809 835 970 1435 1136 931 826 960 1725 1633 1591 1601 1509 1503 1487 1389 1264 1159 997 780 801 703 473 275 114 30 0 0 0
0 0 0 0 0 0 0 0 0 0 0 0 0 0 0 0 0 439 1468 1213 881 678 920 1263 1251 1098 761 552 969 1469 1530 1612 1505 1474 1436 912 527 574 479 113 788 735 477 326 159 82 30 0 0
0 0 0 0 0 0 0 0 0 0 0 0 0 0 0 0 0 80 843 1240 948 693 783 1130 1573 1387 1019 608 928 740 654 743 748 730 991 714 404 179 35 165 817 678 408 183 150 96 0 0 0
0 0 0 0 0 0 0 0 0 0 0 0 0 0 0 0 0 0 55 755 894 773 806 934 1839 1902 1311 827 1016 854 738 632 693 729 1008 859 402 249 113 143 147 125 215 10 16 4 0 0 0
0 0 0 0 0 0 0 0 0 0 0 0 0 0 0 0 0 0 0 83 750 737 847 1159 1681 2208 2058 1207 1109 1034 861 852 611 605 985 981 791 485 267 120 42 103 35 6 2 0 1 33 197
0 0 0 0 0 0 0 0 0 0 0 0 0 0 0 0 0 0 0 0 259 922 1178 1347 1695 2223 2398 2424 1407 1525 1284 1067 869 695 875 876 736 639 358 263 161 170 58 85 40 1 23 238 550
0 0 0 0 0 0 0 0 0 0 0 0 0 0 0 0 0 0 0 0 1 790 1511 1656 1755 2504 2522 2477 2693 2204 2236 1484 1218 740 779 955 820 1160 496 625 513 327 158 48 53 24 58 428 620
0 0 0 0 0 0 0 0 0 0 0 0 0 0 0 0 0 0 0 0 1 358 1078 2012 2022 2197 2923 2818 2480 2314 1758 1517 1385 1031 1344 1264 1049 1595 1027 669 583 369 476 318 317 239 270 408 711
0 0 0 0 0 0 0 0 0 0 0 0 0 0 0 0 0 0 0 0 8 418 1264 2257 2099 2183 2838 3053 3087 2591 2048 1925 1501 1502 1742 2036 1619 1221 1146 649 628 596 641 492 311 277 375 791 833
0 0 0 0 0 0 0 0 0 0 0 0 0 0 0 0 0 0 0 0 0 247 1765 2409 2838 2586 2995 3105 2649 2783 3039 2210 1777 1740 1588 2087 1765 1434 1275 705 594 965 594 440 345 327 724 580 897
0 0 0 0 0 0 0 0 0 0 0 0 0 0 0 0 0 0 0 0 0 4 774 2691 3061 3172 3248 3178 3350 2518 2295 2276 1982 1975 1951 2145 1768 1657 2149 1168 1567 1298 786 459 499 983 582 665 650
0 0 0 0 0 0 0 0 0 0 0 0 0 0 0 0 0 0 0 0 0 0 98 1177 3038 3550 3518 3286 3027 2787 2437 2488 2170 2172 2206 2081 2055 1886 2431 1483 1977 1953 1338 1445 1879 952 971 771 1045
0 0 0 0 0 0 0 0 0 0 0 0 0 0 0 0 0 0 0 0 0 0 0 322 1758 3191 3727 3382 3647 3200 2809 2532 2301 2046 2195 1791 1756 1862 2365 2255 2205 2391 1835 2208 1806 1381 784 662 1016
0 0 0 0 0 0 0 0 0 0 0 0 0 0 0 0 0 0 0 0 0 0 22 234 906 2841 3704 3739 3219 3004 2780 2402 2304 2434 2351 2827 2282 2132 2389 2632 2651 2626 2461 1974 2840 2093 1496 581 1376
0 0 0 0 0 0 0 0 0 0 0 0 0 0 0 0 0 0 0 0 0 0 0 131 356 972 2378 3826 3396 3877 2757 2674 2510 2588 2521 2611 2594 2464 2422 3138 2704 3054 2249 2084 2089 1987 1933 1817 1047
0 0 0 0 0 0 0 0 0 0 0 0 0 0 0 0 0 0 0 0 0 0 0 43 455 695 1477 3240 3672 3501 3622 2505 2618 2611 3481 3155 3068 2424 2144 2346 2384 2638 2144 2172 2671 2467 2059 1496 1429
0 0 0 0 0 0 0 0 0 0 0 0 0 0 0 0 0 0 0 0 0 0 0 0 218 825 1015 2092 3090 4242 4055 3760 2795 3327 3341 2976 2662 2451 2619 2127 2386 2330 2446 2871 2874 2844 2371 1946 1262
0 0 0 0 0 0 0 0 0 0 0 0 0 0 0 2 0 0 0 0 0 0 0 0 0 491 1214 1498 2518 3237 3863 4180 4707 4022 3517 3605 2775 2627 3395 3404 3241 2568 3206 3093 3464 3115 2296 1632 1121
0 0 0 0 0 0 0 0 0 0 2 2 26 20 18 12 39 20 1 10 19 1 24 48 0 86 970 1870 2278 2944 3477 3349 3599 4138 3379 3196 2857 3280 4261 3442 3329 3388 3300 3283 3367 3100 2467 2358 1658
0 0 0 0 0 0 0 0 3 27 32 66 53 32 14 3 7 8 18 51 58 41 53 160 182 63 626 1829 2881 3677 3908 4114 3827 4475 4789 3633 3735 2446 3083 3576 3510 3324 3243 3187 3213 2878 2585 2301 1867
0 7 0 0 0 0 0 0 0 55 122 66 44 37 21 7 0 0 0 1 62 111 131 141 354 335 330 1231 2752 3759 3936 4234 3989 3953 3977 3573 2949 2468 2854 3194 3283 3196 3065 2950 3082 3054 2751 2308 1171
0 0 0 7 0 0 0 0 30 0 24 17 28 6 4 3 1 1 4 1 3 21 114 210 382 512 455 922 2051 3149 3564 3522 3012 2515 1966 1693 1859 1549 1502 1678 1989 2183 2331 2567 2674 2536 2247 2433 2311
0 0 0 0 0 61 44 0 4 14 22 101 101 37 34 31 1 1 1 4 0 0 6 166 268 539 591 768 1561 2317 2301 2007 1541 1203 1193 1207 1101 857 604 652 792 897 900 1265 1488 1469 1251 1496 1459

GFSSGP_con_mucape_081.txt.gz
CAPE
0 0 0 0 0 0 0 0 46 41 0 0 0 0 0 16 100 609 929 977 442 1693 1844 2284 2619 2721 2492 2299 2157 1946 1680 1709 1666 1616 1691 1649 1701 1989 2092 2044 1925 1614 803 466 260 106 31 79 215
0 0 0 0 0 0 3 0 5 1 0 0 0 0 0 7 213 695 866 631 398 1841 1883 1664 2577 2719 2773 2392 2182 1889 1800 1784 1750 1683 1681 1694 1779 1873 1941 1932 1736 1089 496 131 19 15 34 163 410
0 0 0 0 0 0 1 3 0 0 0 0 0 0 0 107 160 782 1358 716 527 1676 1611 2037 2576 2720 2798 2669 2195 1919 1848 1804 1825 1796 1731 1802 1821 1856 1875 1867 1647 784 175 11 0 24 92 305 382
0 0 0 0 0 0 0 0 1 0 0 0 0 0 0 980 1021 873 1243 724 879 1292 1169 2100 2452 2604 2702 2677 2416 2031 1963 1929 1876 1848 1833 1852 1848 1827 1774 1740 1342 731 175 14 12 33 124 361 463
0 0 0 0 0 0 0 0 0 0 0 0 0 1 95 655 1271 898 548 603 1027 1044 1144 2282 2392 2473 2506 2594 2499 2267 2070 1949 1890 1946 1973 1863 1819 1720 1718 1556 1108 660 315 62 7 2 43 100 45
0 0 0 0 0 0 1 0 0 0 0 0 0 0 3 0 1132 983 640 737 667 766 1409 2311 2199 2372 2339 2344 2291 2236 2060 1985 1976 1936 1893 1895 1792 1680 1616 1324 1010 691 421 149 13 4 0 0 0
0 0 0 0 0 2 5 0 0 0 0 0 0 0 0 0 2 1343 948 724 731 725 1188 1980 1654 2122 2244 2181 2097 2082 1971 1935 1922 1814 1780 1777 1684 1567 1402 1137 961 743 515 256 82 14 0 0 0
0 0 0 0 0 2 14 0 0 0 0 0 0 0 0 0 0 705 1307 1073 712 847 935 1430 1464 1344 1667 2153 2064 1950 1909 1880 1770 1756 1741 1645 1531 1370 1163 867 821 741 503 239 83 22 0 0 0
0 0 0 0 0 0 2 0 0 0 0 0 0 0 0 0 0 146 1229 1101 820 727 799 1082 1068 1053 900 852 1859 1782 1864 1849 1692 1696 1622 1009 575 717 734 194 717 667 370 169 67 29 15 2 0
0 0 0 0 0 0 0 0 0 0 0 0 0 0 0 0 0 2 573 1070 820 771 693 1040 1265 1143 852 505 1212 1354 1625 1744 1705 1475 1545 879 560 736 135 143 777 403 167 86 59 31 12 3 0
0 0 0 0 0 0 0 0 0 0 0 0 0 0 0 0 0 0 0 342 873 815 785 920 1984 2374 1497 765 1015 734 770 884 1160 1102 1528 1360 714 767 61 144 105 80 141 0 3 0 0 0 0
0 0 0 0 0 0 0 0 0 0 0 0 9 0 0 0 0 0 0 0 280 983 930 989 1468 2432 2803 1047 985 1135 799 930 672 525 1539 1592 1033 1351 435 69 82 201 0 4 0 0 13 44 0
0 0 0 0 0 0 0 0 0 0 0 0 0 0 1 0 0 0 0 0 1 482 1231 1015 1511 2783 3120 3557 1594 1650 1436 1183 903 636 1383 1044 820 1467 610 534 132 105 13 7 103 30 124 14 248
0 0 0 0 0 0 0 0 0 0 0 0 0 0 0 3 0 0 0 0 0 17 710 1380 1553 3342 3079 3139 3154 2564 2439 1868 1535 1115 1152 1887 1461 1854 638 846 296 180 110 69 130 125 62 100 460
0 0 0 0 0 0 0 0 0 0 0 0 0 0 0 0 0 0 0 0 0 1 110 2304 2797 2840 3927 3822 3262 2646 2036 1814 1641 1352 1456 1594 2194 2308 1205 768 783 543 551 1389 679 661 228 146 304
0 0 0 0 0 0 0 0 0 0 0 0 0 0 0 0 0 0 0 0 0 8 353 1566 1869 2661 4083 3938 3438 2850 2344 2245 2211 1705 1464 1838 1866 2080 1743 849 1068 726 914 679 300 223 204 94 285
0 0 0 0 0 0 0 0 0 0 0 0 0 0 0 0 0 0 0 0 0 0 287 1009 2258 2127 4086 3705 3489 3225 3347 2838 2404 2355 1884 2052 2141 1611 1864 935 882 1856 685 741 428 454 390 417 737
0 0 0 0 0 0 0 0 0 0 0 0 0 0 0 0 0 0 0 0 0 0 239 1526 3034 3690 4596 3900 3582 2936 2840 2918 2719 2475 2119 2555 2336 1844 2011 1217 1245 1626 1044 826 760 1063 636 467 430
0 0 0 0 0 0 0 0 0 0 0 0 0 0 0 0 0 0 0 0 0 0 406 990 3005 5062 4316 3807 3908 3406 3280 3263 3065 2942 3101 3185 2880 2505 2022 1594 1765 1936 1400 1329 1799 1610 1547 803 845
0 0 0 0 0 0 0 0 0 0 0 0 0 0 0 0 0 0 0 0 0 146 420 752 1706 4241 5041 4066 3961 3699 3524 3204 3131 2896 3137 2817 3144 2861 1941 1908 2011 2270 1647 2435 2295 2008 1337 1231 922
0 0 0 0 0 0 0 0 0 0 0 0 0 0 0 0 0 0 0 0 0 0 51 306 991 1856 4657 4463 4333 4158 3955 4039 3465 3658 3532 3571 3235 3078 3314 3089 3052 2972 2449 1784 2212 2498 1950 1002 1222
0 0 0 0 0 0 3 0 0 0 0 0 0 0 0 0 0 0 0 0 0 0 1 153 525 1282 1424 4913 3977 4282 3688 3780 3640 3505 3351 3648 3189 3002 3255 3329 3369 3729 2810 2473 2295 2766 2599 2150 1185
0 2 0 0 0 4 1 5 1 1 6 2 4 0 0 0 0 0 0 0 3 0 0 0 518 1044 1786 1712 4368 4012 4225 3499 3467 3284 3503 3729 3791 3641 3220 3489 3911 3778 3232 3166 3218 3447 3267 2404 1830
0 0 1 4 8 0 6 12 30 19 1 0 0 0 0 0 0 0 0 0 0 0 0 0 673 892 1100 1655 1892 4084 4081 3834 3216 3648 3484 3590 3356 3242 3713 3396 3606 4021 3750 3575 3105 3371 3284 2611 2321
0 0 0 0 0 0 18 1 12 0 0 0 0 0 0 5 10 16 15 23 10 18 29 17 8 638 843 1037 1862 2440 3952 4398 4033 4077 3854 3667 3733 3747 3599 3939 3724 3838 3847 3448 3322 3733 3402 2986 2626
28 36 0 0 0 0 1 0 0 3 12 2 0 0 4 2 1 6 8 13 42 86 94 76 31 35 411 829 1318 2416 3234 3607 3956 4109 3545 3585 3263 3873 4353 4093 3790 3954 3797 3681 4291 4392 4073 3389 2704
0 1 8 0 0 0 0 0 1 9 55 80 25 16 62 21 15 13 36 18 43 61 96 123 118 42 135 541 1106 2390 3066 3706 3362 3733 4108 3753 3757 3815 4395 4137 4289 3799 4047 4357 4371 3823 3384 3720 3611
0 0 0 0 0 0 0 0 0 20 18 4 24 19 29 20 25 38 33 74 45 75 95 116 133 202 206 558 826 1273 3237 3657 3891 4203 3905 3874 4171 4420 4027 4666 4626 4561 4347 3804 3964 3730 3619 3408 3065
0 0 0 0 0 0 0 0 16 22 2 2 1 16 79 117 105 70 34 36 79 88 98 136 135 293 296 488 841 1250 2686 3223 3543 3570 3752 4150 4116 4510 3553 2728 4471 3759 3904 3916 3790 3835 3106 3111 3329
0 0 0 0 0 0 0 0 36 21 0 10 41 50 78 68 93 112 96 82 110 32 52 53 131 254 415 466 732 992 2196 3223 3632 3661 3290 2840 2706 2360 3242 3138 3102 2770 2843 3650 3235 2849 2516 2456 2646

GFSSGP_con_mucape_084.txt.gz
CAPE
0 0 0 0 0 0 0 0 0 0 0 0 0 0 0 0 181 979 1101 1105 1767 1930 2577 2534 2361 2293 2230 2081 1929 1700 1670 1764 1711 1594 1621 1628 2013 2127 2040 1854 1683 1557 1322 858 415 81 93 181 211
0 0 0 0 0 0 0 0 0 4 0 0 0 0 0 0 602 699 1070 1083 1812 2129 2453 2392 2456 2328 2288 2128 1918 1656 1712 1766 1669 1600 1655 1673 1998 2078 2018 1900 1693 1304 771 249 86 35 118 423 406
0 0 0 0 0 0 0 0 0 1 0 0 0 0 0 530 557 1487 1289 1763 1838 2173 2270 2703 2607 2356 2353 2250 1900 1657 1758 1755 1683 1675 1668 1736 1896 1969 1904 1837 1511 985 344 61 20 280 546 626 469
0 0 0 0 0 0 0 0 0 0 0 0 0 0 623 877 844 1034 1403 1049 2084 1694 1705 2421 2687 2560 2373 2297 2013 1772 1774 1760 1690 1721 1717 1780 1860 1809 1786 1702 1241 758 383 282 304 455 613 636 514
0 0 0 0 0 0 0 0 0 0 0 0 0 31 407 764 1015 855 944 737 1497 1373 2514 2427 2731 2704 2651 2400 2200 1993 1846 1774 1722 1754 1817 1828 1786 1698 1704 1509 1085 619 393 301 280 274 353 489 413
0 0 0 0 0 0 0 0 12 0 0 0 0 0 21 33 1249 575 519 808 1056 1053 2352 2155 2579 2618 2589 2519 2274 2065 1950 1876 1815 1814 1843 1820 1693 1634 1581 1309 954 666 416 218 128 91 71 53 13
0 0 0 0 0 0 0 0 0 1 0 0 0 0 0 0 60 1066 743 679 681 1026 2272 1915 1769 2443 2485 2351 2196 2079 1961 1852 1806 1762 1729 1734 1621 1567 1414 1141 931 715 474 224 52 26 0 0 0
0 0 0 0 0 0 0 0 0 0 0 0 0 0 0 0 0 652 963 680 603 690 2271 1697 1584 1751 2049 2079 2203 2065 1972 1880 1751 1745 1743 1650 1570 1454 1268 867 830 715 479 227 42 0 0 0 0
0 0 0 0 0 0 0 6 3 0 0 0 0 0 0 0 0 55 1178 1070 631 753 1601 1509 1543 1781 1561 1756 2030 2046 2097 1959 1759 1803 1740 1290 889 882 738 418 743 689 426 193 26 0 0 0 0
0 0 0 0 0 0 0 0 0 0 0 0 0 0 0 0 0 0 372 1176 896 702 892 1335 1538 1408 1228 1118 2148 2093 1938 1820 1724 1522 1596 1253 966 779 558 373 748 617 362 182 60 0 0 0 0
0 0 0 0 0 0 0 0 0 0 0 0 0 0 0 1 0 0 0 232 649 494 598 1067 1496 1353 991 835 2165 1949 2087 1988 1970 1810 1928 1466 1079 1222 471 442 228 203 285 27 23 2 0 0 0
0 0 0 0 0 4 0 0 0 0 0 0 0 0 0 0 0 0 0 0 19 406 938 1330 1539 1799 1400 803 1563 1217 1250 1579 1815 1970 2162 1687 1488 1520 417 307 104 168 18 0 0 0 0 0 0
0 0 0 0 0 0 0 0 0 0 0 0 0 0 0 0 0 0 0 0 4 25 393 1086 2127 2179 1989 2948 1543 1191 775 1069 1045 1208 1568 1412 1022 1213 515 469 244 83 29 0 33 1 4 57 156
0 0 0 0 0 0 0 0 0 0 0 0 0 0 0 0 0 0 0 0 9 1 489 817 2533 2692 2679 2025 3400 1896 978 1310 888 927 941 1331 966 1614 934 853 1074 99 51 8 27 256 594 294 208
0 0 0 0 0 0 0 0 0 0 0 0 0 0 0 0 0 0 2 0 34 20 47 2180 2579 3391 3072 2531 2963 3340 2312 1725 1025 1025 1646 915 1621 1907 870 703 782 624 210 986 185 737 576 612 284
0 0 0 0 0 0 0 0 0 0 0 0 0 0 0 0 0 0 0 12 98 173 563 611 1776 3746 3544 3169 2741 2993 2072 1753 1616 1098 1153 1320 1773 1862 1046 711 746 670 1245 1181 1062 865 553 344 362
0 0 0 0 0 0 0 0 0 0 0 0 0 0 0 0 0 0 1 0 0 40 159 601 1860 2891 3802 3547 3013 2696 3198 2798 2283 1511 1399 1443 1391 1500 1141 748 771 1232 1258 1030 812 817 531 482 414
0 0 0 0 0 0 0 0 0 0 0 0 0 0 0 0 0 0 0 0 62 242 236 481 1554 3775 4034 3802 3554 3254 2801 2608 2370 2202 1373 1655 1286 1323 1718 820 960 1674 1121 1022 824 696 591 603 882
0 0 0 4 0 0 0 0 0 0 0 0 0 0 0 0 0 0 0 0 0 49 175 557 1018 4311 4109 3882 3722 3438 3053 2905 2682 1974 2580 1869 1589 1531 1221 1209 1420 1188 952 956 1026 928 1096 556 907
0 0 0 0 0 0 0 0 0 0 0 0 0 0 0 0 0 0 0 6 24 226 783 945 1323 2068 4383 3312 3704 3521 3093 2871 2827 2701 2270 2512 2002 1950 1354 1329 1025 961 852 1049 1297 872 668 1067 1132
0 0 0 0 0 2 0 0 0 0 0 0 0 0 0 0 0 0 21 54 28 358 775 738 946 1725 2018 3943 3464 3476 3179 2834 2680 2702 2768 2605 2355 2259 1734 1685 959 988 1132 1175 1264 1693 1221 781 736
0 0 0 0 0 0 0 0 0 0 0 0 0 0 0 2 4 9 22 46 105 140 159 391 1173 1374 1388 1279 3052 3402 3113 2775 2387 2692 2727 2319 2794 2682 2082 1976 1705 1244 1373 1160 1632 1690 1519 1360 1019
0 5 1 0 0 0 0 0 0 4 2 4 3 0 0 0 0 0 0 0 15 23 243 425 800 713 1090 1489 1118 2205 2317 2812 3067 2849 2782 2991 2990 2749 2553 2579 2258 1672 1553 2037 1780 1750 2083 1609 1166
0 0 0 0 0 0 0 1 0 0 4 0 0 0 0 0 0 0 0 0 4 23 13 233 663 994 981 1414 2158 1382 1920 2286 2691 2538 2328 2238 2195 2759 2901 2915 2854 2908 2211 2676 2418 2706 2418 2302 1674
4 0 0 0 10 0 6 0 34 0 0 0 0 0 0 0 0 0 0 0 0 0 0 16 62 218 473 595 778 1291 1638 1887 2208 2553 2192 2423 2188 2597 2689 2627 2799 2883 2898 2647 2840 2413 2700 2698 2269
6 9 0 0 0 0 1 0 0 0 0 0 0 0 0 0 0 0 0 0 0 0 42 12 38 133 426 499 406 555 653 1584 1877 2326 2485 2190 2236 2118 2526 3053 2866 2861 2968 2909 2799 2582 2466 2665 2291
0 0 5 0 0 0 0 0 0 0 1 0 0 0 0 0 51 45 13 10 10 11 45 74 69 147 178 169 661 952 891 711 1645 2440 2630 2673 2762 2640 2504 2949 3088 2954 2929 3089 2837 2653 2585 2536 2559
0 1 0 0 0 0 0 0 0 0 0 0 1 2 0 0 6 64 71 75 70 33 23 255 355 273 241 297 461 390 852 785 949 2352 2800 2858 2640 2830 2746 2665 3057 3051 2913 3032 2865 2839 2988 3305 3155
0 0 0 5 0 0 0 0 25 2 0 0 0 0 0 19 13 10 9 58 64 86 44 60 136 84 31 220 417 499 403 1006 873 1649 2245 2773 2525 2796 2752 2897 3105 2709 2908 2777 2855 2908 3205 2906 2728
9 0 0 0 0 0 0 0 18 5 0 3 0 39 16 35 19 9 4 22 8 30 80 108 243 204 179 231 458 513 444 994 1334 1733 2088 2295 2502 2582 2674 2139 2177 2403 1991 1688 1699 2172 2988 3005 3234

GFSSGP_con_mucape_087.txt.gz
CAPE
0 0 0 0 0 0 0 0 0 0 0 0 0 3 221 588 701 707 1408 1659 2018 2223 2189 2151 2251 2255 2156 1854 1667 1606 1637 1593 1501 1509 1673 1878 1814 1715 1684 1749 1862 1913 1479 829 208 77 119 186 169
0 0 0 0 0 0 0 0 0 1 0 0 0 0 101 985 794 1149 1709 2027 1945 2218 2026 1881 2219 2258 2156 1863 1629 1547 1650 1548 1443 1441 1658 1901 1806 1743 1676 1562 1439 1387 776 354 78 63 202 246 243
0 0 0 0 0 0 0 0 0 0 0 0 0 0 528 636 1262 1069 1726 2021 2086 1964 2062 1978 2230 2175 2148 1948 1623 1533 1619 1503 1449 1493 1610 1845 1808 1707 1615 1538 1305 1028 302 94 31 163 699 713 455
0 0 0 0 0 0 0 0 0 0 0 0 0 759 948 685 1168 1377 1756 1967 1702 2078 2146 2332 2199 2074 2084 1899 1681 1605 1608 1532 1466 1534 1595 1725 1783 1600 1529 1425 1124 821 473 325 314 709 829 842 724
0 0 0 0 0 0 0 0 0 0 0 0 1 354 964 798 903 1391 1717 1803 1471 2211 2106 2254 2229 2126 2104 1896 1738 1697 1648 1509 1510 1561 1603 1685 1586 1505 1486 1296 991 648 525 511 422 682 761 739 675
0 0 0 0 0 0 0 0 0 0 1 0 2 67 218 1029 582 662 1690 1564 1377 2069 2071 2164 2431 2188 2008 1873 1719 1603 1576 1522 1547 1552 1548 1597 1452 1458 1397 1148 898 665 524 496 433 359 341 288 131
0 0 0 0 0 0 0 0 0 0 0 0 0 0 0 22 941 553 871 1329 1903 1995 1869 2063 2242 2365 2209 1854 1651 1536 1504 1472 1438 1427 1429 1433 1395 1386 1242 1018 805 612 412 238 66 38 18 2 0
0 0 0 0 0 0 0 0 0 0 7 0 0 0 0 0 4 1017 616 902 1903 2023 1612 1743 2012 2219 2100 1880 1886 1675 1591 1496 1389 1426 1441 1354 1377 1311 1154 696 706 608 352 136 0 0 0 0 0
0 0 0 0 0 0 0 0 0 0 6 0 0 0 0 0 0 58 1022 520 1901 2114 1797 1304 1635 1786 1854 1838 1981 1871 1899 1663 1503 1534 1451 1146 947 927 893 512 756 602 349 131 10 0 0 0 0
0 0 0 0 0 0 14 1 0 0 0 1 0 0 0 0 0 0 427 844 440 2005 1963 1060 1252 1433 1544 1772 1825 1501 1481 1551 1310 1260 1168 806 693 559 525 389 748 609 398 195 48 0 0 0 0
0 0 0 0 0 0 7 1 0 8 0 0 0 0 0 0 0 0 0 6 435 530 1010 1014 1229 1187 1297 1731 1613 1861 1946 1564 1266 1172 956 711 576 565 535 248 348 189 247 38 20 3 0 0 0
0 0 0 0 0 9 0 0 3 2 0 0 0 0 0 0 0 0 0 0 0 113 360 352 1085 1112 1140 1348 1716 1719 1593 1407 1224 1077 1020 841 621 676 419 215 142 59 61 0 0 0 0 0 0
0 0 0 0 0 0 0 0 0 0 0 0 0 0 0 0 0 0 0 0 0 37 258 0 135 1028 872 1464 1604 1631 1788 1641 1452 1347 1378 975 985 730 497 263 72 42 10 0 0 0 0 0 0
0 0 0 0 0 1 0 0 0 0 0 0 0 0 0 0 0 0 0 0 0 0 556 342 786 989 610 92 1333 1355 1494 1645 1737 1527 1589 1399 834 871 582 310 55 36 10 0 0 0 0 0 0
0 0 0 0 0 0 0 0 0 0 0 0 0 0 0 0 0 0 0 0 0 0 311 959 970 414 4 8 400 1414 970 1173 1172 1283 1374 1560 1028 869 723 436 149 55 22 0 0 0 0 0 0
0 0 0 0 0 0 0 0 0 0 0 0 0 0 0 0 0 0 0 0 0 0 562 1230 280 257 162 130 1181 1894 1376 1000 853 840 886 1297 1162 538 799 596 195 262 77 1 0 0 13 106 37
0 0 0 0 0 0 0 0 0 0 0 0 0 0 0 0 0 0 0 0 0 0 0 849 838 972 750 1321 1504 2106 1808 1259 1040 895 748 891 915 767 849 754 288 294 253 67 148 44 59 26 44
0 0 0 0 0 0 0 0 0 0 0 0 0 0 0 0 0 0 0 0 0 0 0 0 47 1781 1938 2441 1840 1951 2412 1929 1637 1331 1113 1035 856 1157 1154 786 597 356 379 207 281 308 217 187 81
0 0 0 0 0 0 0 0 0 0 0 0 0 0 0 0 0 0 0 0 0 0 0 0 0 162 2726 2483 2375 2100 2090 2182 2059 2054 1730 1521 1107 980 1357 1271 913 641 331 432 369 269 207 133 156
0 0 0 0 0 0 0 0 0 0 0 0 0 0 0 0 0 0 0 0 0 0 0 0 0 0 611 2118 2328 2841 2609 2173 2123 1974 2038 1831 1585 1478 1030 1114 1073 855 747 503 521 390 352 218 179
0 0 0 0 0 0 0 0 0 0 0 0 0 0 0 0 0 0 0 0 0 0 0 0 0 0 0 844 2396 2434 2443 2420 2164 2075 2079 2030 1949 1824 1567 1044 897 688 592 591 521 410 323 291 400
0 0 0 0 0 0 0 0 0 0 0 0 0 0 0 0 0 0 0 0 0 0 0 0 37 354 186 158 550 1833 1879 1934 2025 2128 2014 2057 1919 1937 1794 1235 1024 778 536 482 461 491 399 292 376
0 0 0 0 0 0 0 0 0 0 0 0 0 0 0 0 0 0 0 0 0 0 0 0 0 0 0 1 200 255 598 1312 1382 1860 1769 1764 1917 1647 1637 1748 1476 1102 860 564 634 557 971 585 412
4 0 0 0 0 0 0 0 0 0 0 0 0 0 0 0 0 0 0 0 0 0 0 0 0 0 0 0 0 19 235 383 916 1053 1182 1373 1403 1676 1483 1636 1425 1346 1014 897 877 1201 1167 1212 848
1 0 0 0 0 0 2 0 0 0 0 0 0 0 0 0 0 0 0 0 0 0 0 0 0 0 0 0 0 0 0 14 219 386 885 1157 1075 1322 1427 1360 1385 1012 796 957 1287 1137 1131 1365 1301
32 10 0 0 0 0 10 1 1 0 0 0 0 0 0 0 0 0 0 0 0 0 0 0 0 0 0 0 0 0 27 94 95 31 28 928 1171 1104 1380 1312 966 654 464 599 1100 1322 1726 1380 1337
0 0 0 0 0 0 0 0 0 0 0 0 0 0 0 0 0 0 0 0 0 0 0 0 0 0 0 0 0 0 17 94 210 171 76 37 1021 1524 1308 1407 1059 726 296 525 1772 1505 1576 1819 1913
0 0 0 0 0 0 0 0 0 0 0 0 0 0 0 0 0 0 0 0 0 0 0 0 0 0 0 0 0 0 0 38 88 26 118 159 198 1405 1648 1529 1601 1122 1134 1499 2159 2040 1625 1609 2015
0 0 0 0 0 0 0 0 0 0 0 0 0 0 0 0 0 0 0 0 0 0 0 0 0 1 2 0 0 0 0 72 20 159 389 315 257 739 1551 1844 1755 1649 1150 1298 1566 1781 1662 1571 1448
0 0 0 0 0 0 0 0 0 0 0 0 0 0 0 0 0 0 0 0 0 0 0 0 0 0 0 0 0 0 0 49 4 239 291 146 250 442 867 1683 1782 1528 1037 1006 327 404 1089 931 1138

GFSSGP_con_mucape_093.txt.gz
CAPE
0 0 0 0 0 0 0 0 0 0 0 0 0 0 100 468 198 88 770 968 1505 1634 1446 1582 2186 1949 1759 1780 1669 1587 1556 1516 1492 1472 1505 1546 1667 1715 1667 1620 1592 1402 563 103 128 198 128 40 31
0 0 0 0 0 0 0 0 0 0 0 0 0 94 739 690 1622 1400 1076 1593 1400 1657 1658 1482 2156 1967 1798 1725 1578 1499 1509 1482 1421 1431 1539 1635 1661 1695 1668 1639 1636 1123 466 57 162 257 180 98 69
0 0 0 0 0 0 0 0 0 0 0 0 0 531 713 997 1590 1186 1571 1576 1563 1579 1515 1647 2110 1949 1811 1734 1542 1452 1422 1410 1425 1457 1538 1631 1665 1672 1643 1725 1644 1041 417 57 185 330 487 359 147
0 0 0 0 0 0 0 0 0 0 0 0 18 666 718 940 1115 1584 1824 1731 1503 1411 1406 2043 2028 1890 1819 1739 1619 1460 1370 1441 1441 1444 1454 1488 1525 1510 1523 1589 1493 1110 420 282 413 598 671 538 266
0 0 0 0 0 0 0 0 0 0 0 0 14 692 769 1794 2027 1950 1865 1561 1378 1435 1544 1954 2017 1868 1803 1712 1546 1503 1380 1433 1467 1468 1463 1453 1406 1310 1267 1230 1137 931 650 395 426 703 885 709 490
0 0 0 0 0 0 0 0 0 0 0 0 24 609 602 1777 2002 1866 1578 1423 1424 1410 1679 1726 2008 1844 1692 1696 1690 1484 1354 1322 1509 1492 1491 1488 1392 1335 1282 1150 999 812 653 545 575 754 721 518 402
0 0 0 0 0 0 0 0 0 0 0 0 0 151 545 1156 1712 1632 1373 1655 1527 1583 1595 1716 1715 1586 1680 1633 1579 1442 1318 1268 1297 1370 1429 1425 1399 1331 1219 1010 853 743 721 677 702 705 636 530 401
0 0 0 0 0 0 0 0 0 0 0 0 0 0 130 426 1566 1393 1483 1805 1690 1571 1615 1597 1623 1476 1349 1357 1678 1511 1392 1308 1188 1249 1336 1365 1388 1313 1157 709 648 654 579 549 438 455 496 393 165
0 0 0 0 0 0 0 0 0 0 0 0 0 0 0 534 1692 1556 1811 1895 1674 1554 1724 1644 1629 1390 1161 1199 1349 1550 1462 1438 1291 1302 1298 984 875 925 793 575 594 610 453 344 226 188 152 82 26
0 0 0 0 0 0 0 0 0 0 0 0 0 0 8 476 1675 1716 1732 1822 1767 1533 1476 1586 1604 1295 1141 1243 1309 1185 1189 1203 1060 1033 1030 706 595 614 570 489 739 689 511 364 210 110 46 28 0
0 0 0 0 0 0 0 0 0 0 0 0 0 0 2 12 702 1597 1694 1906 1792 1639 1618 1423 1285 1119 1376 1475 1183 1235 1199 1061 1026 1036 925 607 523 550 673 396 488 353 325 92 98 19 0 0 0
0 0 0 0 0 0 0 0 0 0 0 0 0 0 0 7 16 47 1547 1916 2064 1824 1819 1538 1408 1327 1453 1474 1193 1188 1230 1106 1002 969 899 655 512 430 502 307 195 204 111 67 3 0 0 0 0
0 0 0 0 0 0 0 0 0 0 0 0 0 4 7 3 11 2 169 1438 2168 2082 1807 1594 1479 1407 1380 1486 1360 1267 1219 1160 1138 942 879 683 403 302 323 275 154 138 55 19 0 0 0 0 0
0 0 0 0 0 0 0 0 0 0 0 0 0 33 0 0 9 26 5 781 2006 2069 1915 1670 1396 1250 1246 1442 1404 1240 1157 1102 1100 1022 1040 910 459 305 243 213 180 103 63 11 0 0 0 0 0
0 0 0 0 0 0 0 0 0 0 0 7 0 1 0 35 0 10 0 0 1121 1417 1638 1596 1303 900 1326 1236 1195 1083 1105 1192 1121 1140 1158 1016 754 371 338 291 237 242 72 30 0 0 0 0 0
0 0 0 0 0 0 0 0 0 0 0 0 0 0 0 0 0 0 0 0 6 530 1249 1456 1449 769 826 1059 975 1150 830 317 872 1127 1204 1140 980 689 369 360 328 369 328 185 42 0 0 0 0
0 0 0 0 0 0 0 0 0 0 0 0 0 0 0 0 0 0 0 0 5 0 334 753 1016 974 910 1058 978 937 369 145 306 769 1086 1214 1170 940 675 505 473 443 495 453 322 160 14 0 0
0 0 0 0 0 0 0 0 0 0 0 0 0 0 0 0 0 0 0 0 0 182 298 150 263 929 1197 1185 1131 1099 677 591 621 823 1244 1465 1482 1424 1013 735 682 563 558 523 547 429 253 88 32
0 0 0 0 0 0 0 0 0 0 0 0 0 0 0 0 0 0 0 0 0 8 941 927 515 826 1081 1339 1296 1048 696 1116 1430 1025 1066 1204 1320 1623 1477 1125 897 846 839 659 497 442 366 290 121
0 0 0 0 0 0 0 0 0 0 0 0 0 0 0 0 0 0 0 0 0 0 506 908 986 951 982 1121 1276 1113 1015 1169 1595 1382 1186 1045 892 784 1008 1176 1062 786 718 765 675 588 418 442 281
0 0 0 0 0 0 0 0 0 0 0 0 0 0 0 0 0 0 0 0 0 0 0 0 116 48 1045 1609 1368 1480 1568 1609 1483 1514 1443 1326 823 644 626 670 718 936 881 836 699 510 529 444 418
0 0 0 0 0 0 0 0 0 0 0 0 0 0 0 0 0 0 0 0 0 0 0 0 0 0 0 30 126 362 1101 1043 1177 1443 1377 1192 1087 991 832 702 724 755 641 685 646 621 441 431 389
0 0 0 0 0 0 0 0 0 0 0 0 0 0 0 0 0 0 0 0 0 0 0 0 0 0 0 0 0 0 0 0 2 7 43 102 187 494 903 1013 877 653 644 702 638 497 467 501 427
0 0 0 0 0 0 0 0 0 0 0 0 0 0 0 0 1 0 0 0 0 0 0 0 0 0 0 0 0 0 0 0 0 0 0 0 4 86 297 516 719 935 823 662 625 449 472 504 502
0 0 0 0 0 0 0 0 0 0 0 0 0 0 0 0 0 0 0 0 0 0 0 0 0 0 0 0 0 0 0 0 0 0 0 0 0 6 36 142 344 637 868 831 781 685 525 480 408
15 8 0 0 0 0 0 0 0 0 0 1 0 0 0 0 0 0 0 0 0 0 0 0 0 0 0 0 0 0 0 0 0 0 0 0 0 0 2 43 81 248 519 673 815 789 696 516 414
11 0 6 0 0 0 0 0 0 0 1 0 0 0 0 0 0 0 0 0 0 0 0 0 0 0 0 0 0 0 0 0 0 0 0 0 0 4 0 4 28 13 167 572 784 755 784 715 461
34 16 0 0 0 0 0 0 0 0 0 0 0 0 0 0 0 0 0 0 0 0 0 0 0 0 0 0 0 0 0 0 0 0 0 0 0 0 0 27 4 0 0 7 330 682 655 621 498
25 30 14 0 0 0 0 0 0 0 0 0 0 0 0 0 0 0 0 0 0 0 0 0 0 0 0 0 0 0 0 0 0 0 0 0 0 0 0 38 9 0 6 7 112 322 510 504 394
0 18 0 0 0 0 0 0 0 0 0 0 0 0 0 0 0 0 0 0 0 0 0 0 0 0 0 0 0 0 0 0 0 0 0 0 0 0 0 5 23 63 42 47 93 149 413 297 230

GFSSGP_con_mucape_096.txt.gz
CAPE
0 0 0 0 0 0 0 0 0 0 0 0 0 0 9 73 143 27 793 1067 1365 1460 1836 1910 1918 2021 2034 1964 1877 1773 1668 1705 1702 1655 1588 1516 1540 1579 1561 1518 1510 1357 610 247 97 100 135 200 274
0 0 0 0 0 0 0 0 0 0 0 0 0 13 322 635 1462 1245 957 1454 1406 1413 1625 1689 1948 1938 1965 1848 1706 1632 1593 1563 1519 1510 1515 1542 1520 1517 1507 1459 1408 970 315 118 183 181 101 242 317
0 0 0 0 0 0 0 0 0 0 0 0 0 7 475 644 1403 1158 1442 1471 1389 1291 1316 1611 1930 1869 1827 1625 1604 1505 1474 1461 1483 1486 1499 1524 1501 1455 1413 1460 1384 773 152 204 315 378 636 618 543
0 0 0 0 0 0 0 0 0 0 0 0 0 0 542 1493 1317 1339 1600 1619 1450 1392 1383 1856 1878 1746 1782 1667 1587 1472 1440 1402 1481 1502 1471 1517 1510 1447 1436 1521 1435 1013 392 357 587 811 794 689 630
0 0 0 0 0 0 0 0 0 0 0 0 0 286 527 1942 1963 1837 1618 1401 1228 1167 1392 1625 1802 1722 1744 1627 1408 1478 1409 1331 1376 1446 1465 1515 1478 1443 1477 1518 1279 1058 643 653 738 811 850 768 686
0 0 0 0 0 0 0 0 0 0 0 0 0 0 72 1752 1873 1737 1470 1290 1143 1146 1387 1387 1319 1707 1675 1646 1524 1426 1401 1353 1330 1290 1368 1385 1283 1246 1217 1176 1045 935 711 623 793 923 866 672 554
0 0 0 0 0 0 0 0 0 0 0 0 0 0 4 1038 1798 1544 1486 1365 1406 1415 1363 1288 1166 1323 1655 1605 1421 1329 1325 1330 1250 1201 1256 1285 1280 1236 1124 995 887 793 678 633 728 870 756 525 467
0 0 0 0 0 0 0 0 0 0 0 0 0 0 0 10 1731 1730 1638 1511 1340 1579 1979 1941 1502 1043 1279 1327 1547 1370 1268 1316 1226 1229 1250 1250 1293 1260 1145 701 676 672 648 646 678 717 606 555 484
0 0 0 0 0 0 0 0 0 0 0 0 0 0 0 1415 1728 1798 1717 1529 1257 1493 1901 2143 1386 1223 1036 1121 1252 1427 1280 1280 1236 1314 1284 968 796 883 904 652 593 708 546 475 433 396 493 527 479
0 0 0 0 0 0 0 0 0 0 0 0 0 0 174 1624 1739 1699 1754 1647 1472 1613 1813 1939 1263 1047 975 1157 1168 1110 1036 1009 812 828 859 585 533 564 493 580 758 776 601 448 334 229 214 267 5
0 0 0 0 0 0 0 0 0 0 0 0 0 0 0 891 1649 1704 1711 1698 1640 1569 1537 1759 1428 1037 1074 1136 1011 891 1014 900 767 733 659 422 383 492 611 426 532 371 558 93 184 67 23 0 0
0 0 0 0 0 0 0 0 0 0 0 0 0 0 1 0 153 1283 1675 1759 1797 1696 1536 1531 1360 1250 1260 1085 979 699 904 818 760 825 687 492 422 355 396 388 250 225 165 107 5 0 0 0 0
0 0 0 0 0 0 0 0 0 0 0 0 0 0 1 0 0 7 134 1382 1931 1846 1716 1568 1508 1364 1435 1117 873 858 907 902 735 875 885 625 392 296 305 309 246 179 155 87 17 0 0 0 0
0 0 0 0 0 0 0 0 0 0 0 0 0 0 0 0 0 0 0 281 1484 1977 1958 1719 1644 1528 1579 1531 1185 1050 1050 1046 989 861 861 829 488 307 297 282 234 179 158 111 20 0 0 0 0
0 0 0 0 0 0 0 0 0 0 0 0 0 1 6 5 0 0 0 0 792 1670 2065 2067 1832 1764 1648 1746 1525 1277 1231 1184 1270 1201 1012 974 720 429 285 249 215 230 192 161 62 9 0 0 0
0 0 0 0 0 0 0 0 0 0 0 0 0 1 0 2 38 40 0 0 0 1122 1748 2123 2077 1789 1613 1620 1574 1480 1387 1348 1322 1288 1258 1297 1111 787 467 257 196 208 243 247 233 178 45 1 0
0 0 0 0 0 0 0 0 0 0 0 0 0 0 0 0 0 18 0 0 0 11 831 1449 1840 2042 1874 1553 1519 1410 1304 1236 1165 1198 1271 1355 1298 1135 895 609 434 297 249 264 263 293 277 173 77
0 0 0 0 0 0 0 0 0 0 0 0 0 0 0 0 0 0 11 0 0 14 85 406 985 1554 1649 1448 1390 1387 1150 1008 1078 1050 920 1297 1347 1275 1142 903 739 536 427 365 331 344 414 415 326
0 0 0 0 0 0 0 0 0 0 0 0 0 0 0 0 0 0 0 0 0 97 749 516 306 671 1270 1523 1259 1203 1235 1134 1196 923 926 1034 1554 1503 1352 1256 1179 900 640 576 550 506 471 434 415
0 0 0 0 0 0 0 0 0 0 0 0 0 0 0 0 0 0 0 0 0 17 701 894 772 599 1070 1134 1228 1294 1161 1290 1243 1283 1244 1205 1051 1414 1603 1451 988 468 298 350 467 447 407 386 398
0 0 0 0 0 0 0 0 0 0 0 0 0 0 0 0 0 0 0 0 0 31 571 919 1028 1187 1108 1048 1174 1351 1264 1200 1123 1141 1280 1407 1476 1398 1152 892 538 270 337 247 323 199 185 312 222
0 0 0 0 0 0 0 0 0 0 0 0 0 0 0 0 0 0 28 144 163 97 42 28 54 35 256 1140 1491 1795 1887 1702 1239 944 1022 1085 1218 1115 1122 1022 761 596 369 337 157 372 285 341 209
0 0 0 0 0 0 0 0 0 0 0 0 0 0 0 0 0 0 0 0 0 0 0 0 0 2 0 0 0 0 0 0 0 0 19 73 76 561 896 906 914 864 665 513 369 471 500 302 326
0 0 0 0 0 0 0 0 0 0 0 0 0 0 0 0 0 0 0 0 0 0 0 0 0 0 0 0 0 0 0 0 0 0 0 0 0 0 4 430 854 753 635 670 651 643 663 581 414
1 0 0 0 0 0 0 0 0 0 0 0 0 0 0 0 0 0 0 0 0 0 0 0 0 0 0 0 0 0 0 0 0 0 0 0 0 0 0 9 61 171 453 586 648 646 636 620 574
49 22 0 0 0 0 0 0 0 0 0 0 0 0 0 0 0 0 0 0 0 0 0 0 0 0 0 0 0 0 0 0 0 0 0 0 0 0 0 0 3 34 158 458 617 672 726 717 650
5 1 0 0 0 0 0 0 0 0 0 0 0 0 0 0 0 0 0 0 0 0 0 0 0 0 0 0 0 0 0 0 0 0 0 0 0 0 0 0 0 0 54 141 222 440 672 789 669
39 23 0 13 0 0 0 0 0 0 0 0 0 0 0 0 0 0 0 0 0 0 0 0 0 0 0 0 0 0 0 0 0 0 0 0 0 0 0 0 0 0 0 0 47 143 343 500 550
15 19 24 18 0 0 0 0 0 0 0 0 0 0 0 0 0 0 0 0 0 0 0 0 0 0 0 0 0 0 0 0 0 0 0 0 0 0 0 0 0 0 0 3 0 2 87 214 306
0 4 12 13 0 0 0 0 0 0 0 0 0 0 0 0 0 0 0 0 0 0 0 0 0 0 0 0 0 0 0 0 0 0 0 0 0 0 0 0 0 0 0 12 25 19 38 139 183

GFSSGP_con_mucape_102.txt.gz
CAPE
0 0 0 0 0 0 0 0 0 0 0 0 0 0 0 0 78 595 2264 2171 1673 1843 2494 1824 2406 2587 2638 2564 2384 2122 1867 1610 1531 1728 1676 1625 1618 1697 1914 2105 2211 2016 1111 767 735 478 331 235 145
0 0 0 0 0 0 0 0 0 0 0 0 0 0 0 291 1291 1583 2082 2144 1866 2205 2662 2052 2305 2514 2562 2511 2342 2136 1948 1828 1908 1726 1674 1725 1705 1839 1911 2091 2153 1564 844 459 370 435 417 412 286
0 0 0 0 0 0 0 0 0 0 0 0 0 0 52 981 1769 2051 2447 1997 2005 2376 2390 2418 2311 2367 2445 2385 2268 2142 2090 2057 1988 1837 1771 1830 1865 1853 1848 1924 1781 1040 497 213 266 373 561 549 550
0 0 0 0 0 0 0 0 0 0 0 0 0 0 0 26 1796 2661 1883 1745 2149 2162 2080 2114 2260 2196 2241 2250 2190 2143 2136 2112 2027 1991 1897 1912 1902 1801 1745 1689 1460 937 352 310 422 628 741 815 738
0 0 0 0 0 0 0 0 0 0 0 0 0 0 0 1545 2684 2620 1889 1782 1934 1870 2016 2079 2191 2146 2171 2142 2057 2091 2066 2003 2033 2013 1929 1911 1810 1705 1689 1605 1253 786 668 587 592 578 780 1077 782
0 0 0 0 0 0 0 0 0 0 0 0 0 0 0 730 2600 2700 2167 1801 1505 1675 1953 1877 1961 2076 2038 2035 1971 1908 1872 1898 1939 1867 1884 1879 1726 1697 1705 1686 1439 1026 988 928 805 713 656 806 729
0 0 0 0 0 0 0 0 0 0 0 0 0 0 0 0 2363 2705 2504 1989 1512 1599 1774 1668 1112 1601 1918 1874 1761 1698 1680 1700 1699 1665 1748 1762 1731 1708 1687 1657 1545 1254 974 1008 972 806 621 601 610
0 0 0 0 0 0 0 0 0 0 0 0 0 0 0 0 1369 2692 2478 2149 1622 1582 1532 1548 1185 853 888 1116 1763 1649 1599 1592 1509 1590 1639 1635 1632 1554 1448 1155 1164 1082 916 823 879 859 671 738 702
0 0 0 0 0 0 0 0 0 0 0 0 0 0 0 0 873 2552 2422 1993 1511 1353 1529 1628 1484 882 464 447 1077 1439 1416 1503 1501 1511 1530 1056 411 840 946 505 1070 984 856 811 793 831 877 758 639
0 0 0 0 0 0 0 0 0 0 0 0 0 0 0 0 187 1327 2379 1998 1543 1447 1675 1795 1995 1334 647 357 861 623 602 641 631 542 958 496 281 533 222 501 1077 1020 879 765 745 688 644 394 51
0 0 0 0 0 0 0 0 0 0 0 0 0 0 0 0 0 293 1648 2130 1752 1737 1850 1883 2136 2030 1146 577 809 603 691 700 788 730 837 455 350 592 428 483 839 615 552 165 117 36 5 0 0
0 0 0 0 0 0 0 0 0 0 0 0 0 0 0 0 0 10 684 1483 2161 2000 2046 2204 2319 2401 1912 980 778 722 781 907 1001 1029 1244 850 805 643 582 297 269 417 227 205 129 19 0 0 2
0 0 0 0 0 0 0 0 0 0 0 0 0 0 0 0 0 0 165 603 1013 1759 2325 2261 2402 2388 2364 1880 1155 1042 951 965 1134 1098 1407 1244 1206 933 704 357 264 179 202 170 243 148 106 96 66
0 0 0 0 0 0 0 0 0 0 0 0 0 0 0 0 0 4 497 618 570 748 1803 2310 2883 2921 2829 2738 2120 1712 1586 1484 1405 1231 1299 1357 1398 1360 1345 1395 1241 1001 600 286 221 186 197 178 76
0 0 0 0 0 0 0 0 0 0 0 0 0 0 0 0 0 8 226 90 97 80 457 2307 2591 2854 3234 2990 2841 2371 1690 1541 1512 1743 2009 1762 1910 1999 1685 1540 1592 1511 1527 1588 1482 1274 860 630 275
0 0 0 0 0 0 0 0 0 0 0 0 0 0 0 0 0 0 1 13 131 30 49 458 506 1448 2968 3053 3190 2795 2332 1882 1586 1568 1586 1958 2062 2082 1929 1742 1643 1595 1643 1567 1530 1532 1421 1275 1136
0 0 0 0 0 0 0 0 0 0 0 0 0 0 0 0 0 18 9 23 127 164 199 874 847 999 1464 2444 2835 2960 3144 2713 2187 2023 1897 2025 1988 1736 1940 1848 1945 2009 1864 1625 1472 1401 1408 1307 1355
0 0 0 0 0 0 0 0 0 0 0 0 0 0 0 0 0 0 9 26 85 227 509 588 1207 2170 1924 1621 2414 3168 2999 2991 2798 2568 2171 2278 2324 1813 1889 2504 2631 2155 1798 1663 1618 1734 1542 1512 1343
0 0 0 0 0 0 0 0 0 0 0 0 0 0 0 0 0 0 0 35 101 183 375 235 596 1456 1574 1011 1855 2482 2856 2968 2771 2755 2743 2664 2728 2460 1929 2105 2474 1777 2243 2284 1779 1981 2055 1693 1325
0 0 0 0 0 0 0 0 0 0 0 0 0 0 0 0 0 0 0 19 100 378 950 1240 1397 1267 1289 1607 2039 2180 2455 2481 3031 2730 2772 2432 2065 2149 2225 2429 2779 2953 2378 2466 2311 2095 1657 1303 1205
0 0 0 0 0 0 0 0 0 0 0 0 0 0 0 0 0 16 30 122 283 517 805 1273 1951 2045 1778 1906 2121 2317 2485 2431 2192 2273 2799 2634 2616 2605 1753 2005 2624 3177 3289 2516 2530 2221 2043 1122 511
0 0 0 0 0 0 0 0 2 0 0 0 0 0 0 0 59 74 63 80 104 137 138 171 418 762 1105 1778 2280 2506 2630 2667 2211 2302 1929 1812 1855 2307 2364 2289 2499 2685 2929 2552 2140 1721 1508 1289 755
0 0 0 0 0 5 0 0 23 0 0 0 7 3 38 35 0 0 0 0 0 0 28 78 134 185 283 622 866 959 818 617 341 213 236 385 472 578 801 1151 1378 2292 2626 2620 2641 2602 1981 1441 1304
0 0 0 1 0 0 6 2 5 12 11 16 6 0 0 0 0 0 0 0 0 1 6 15 15 9 17 41 63 52 79 65 31 18 11 5 6 5 12 51 182 764 1306 1497 1958 2422 2383 2584 1947
1 16 27 0 0 0 30 12 11 44 17 29 22 0 0 0 0 0 0 0 5 8 3 0 0 1 2 0 0 0 0 0 0 0 0 0 0 0 0 1 10 9 43 177 985 2097 2314 2159 1897
15 35 0 0 0 0 31 0 34 44 7 37 1 0 0 0 0 0 0 0 0 0 0 0 0 0 0 0 0 0 0 0 0 0 0 0 0 0 0 0 0 0 0 0 36 146 543 1488 1424
17 53 30 56 49 88 50 63 55 7 9 1 0 0 0 0 0 0 0 0 0 0 0 0 0 0 0 0 0 0 0 0 0 0 0 0 0 0 0 0 0 0 0 0 3 0 287 1227 1537
46 29 59 76 0 0 0 71 89 49 22 2 0 0 0 0 0 0 0 0 0 0 0 0 0 0 0 0 0 0 0 0 0 0 0 0 0 0 0 1 1 2 1 2 7 6 14 382 625
63 67 64 114 104 95 107 103 39 101 96 45 0 0 0 0 0 0 0 0 0 0 0 0 0 0 0 0 0 0 0 0 0 0 0 0 0 0 0 0 0 0 0 0 0 7 2 29 220
93 86 117 174 125 136 134 109 4 42 110 60 12 3 0 0 0 0 0 0 0 0 0 0 0 0 0 0 0 0 0 0 0 0 0 0 0 0 0 0 0 0 0 0 0 0 0 0 58

GFSSGP_con_mucape_105.txt.gz
CAPE
0 0 0 0 0 0 0 0 25 0 0 0 0 0 0 0 98 1832 2505 2618 1943 2698 2282 1716 2760 2892 2946 2618 2331 2214 1904 1624 1631 1772 1832 1785 1795 1915 2232 2299 2180 1857 1295 1491 1274 636 274 164 207
0 0 0 0 0 0 0 0 25 0 0 0 0 0 0 836 1423 1579 2822 2455 2118 2893 2573 1988 2669 2843 2853 2633 2345 2090 1874 1722 1821 1850 1809 1826 1832 2032 2090 2309 2149 1510 1028 846 675 414 344 227 194
0 0 0 0 0 0 0 1 13 2 0 0 0 0 5 646 1440 2369 2794 2151 2291 2967 2557 2689 2719 2754 2824 2669 2327 2014 1843 1861 1929 1832 1847 1883 1954 2009 2144 2251 2030 1215 749 409 412 456 464 448 313
0 0 0 0 0 0 0 0 0 0 0 0 0 0 0 87 1567 2619 1803 1911 2634 2861 2471 2350 2600 2606 2660 2607 2393 2136 2103 2095 1896 1869 1978 1979 1997 1915 1969 1975 1698 925 381 263 338 460 551 525 587
0 0 0 0 0 0 0 0 0 0 0 0 0 0 0 592 2134 2588 2143 2032 2411 2331 2707 2622 2480 2472 2508 2553 2455 2285 2193 2058 1986 2059 2067 2005 1947 1829 1831 1702 1224 680 390 368 410 457 530 661 697
0 0 0 0 0 0 0 0 0 0 0 0 0 0 0 26 1790 2612 2231 2198 1878 1733 2379 2314 2250 2342 2291 2337 2325 2212 2116 2096 2088 2038 2042 2007 1862 1802 1740 1592 1148 815 816 666 643 551 490 620 604
0 0 0 0 0 0 0 0 0 0 0 0 0 0 0 5 1898 2468 2611 2286 1861 1638 1819 1938 1482 1913 2200 2150 2098 2067 2011 2016 1938 1844 1878 1853 1809 1793 1735 1648 1322 962 1001 1066 880 717 519 458 369
0 0 0 0 0 0 0 0 0 0 0 0 0 0 0 42 1230 2475 2689 2484 2037 1802 1636 1565 1085 972 1162 1558 1968 1974 1964 1911 1738 1756 1780 1732 1762 1753 1684 1476 1401 1003 807 982 944 831 608 461 388
0 0 0 0 0 0 0 0 0 0 0 0 0 0 0 0 433 1872 2224 2450 2036 1809 1693 1390 1154 747 453 557 1372 1679 1709 1757 1699 1749 1725 1220 422 824 1021 431 1209 1308 865 672 837 984 923 655 546
0 0 0 0 0 0 0 0 0 0 0 0 0 0 0 0 37 1379 1961 1944 1912 1596 1605 1474 1620 1116 717 543 1167 638 617 718 713 570 954 532 283 672 225 579 1235 1210 1011 862 859 853 717 322 0
0 0 0 0 0 0 0 0 0 0 0 0 0 0 0 0 0 184 1152 1913 1546 1480 1574 1572 2116 1703 1038 651 1371 451 566 452 557 544 764 931 422 662 214 394 426 499 616 103 109 29 1 0 0
0 0 0 0 0 0 0 0 0 0 0 0 0 0 0 0 0 12 570 1733 1582 1433 1849 1811 2280 2324 2164 1056 989 923 750 808 803 837 1029 1337 560 1062 932 143 435 774 127 182 53 0 11 0 0
0 0 0 0 0 0 0 0 0 0 0 0 0 0 0 0 0 0 199 1113 1389 1812 2615 2486 2427 2695 2677 2311 1419 1474 1015 1071 1271 1213 1409 1518 957 1685 893 1021 226 453 146 155 257 27 161 2 0
0 0 0 0 0 0 0 0 0 0 0 0 0 0 0 0 0 0 0 751 1143 1403 2021 2279 2556 2847 2900 2832 2448 1926 2045 1613 1361 1428 1578 1848 1810 2704 1709 1552 648 657 85 83 147 279 161 123 64
0 0 0 0 0 0 0 0 0 0 0 0 0 0 0 0 0 0 11 856 555 975 1540 1925 3079 2632 3353 3729 3077 2559 2005 1777 1860 1728 2343 1965 2713 2940 2586 1741 1957 1956 1799 2374 1550 1289 743 452 200
0 0 0 0 0 0 0 0 0 0 0 0 0 0 0 0 0 0 108 787 228 33 707 1769 1257 2682 3360 2922 2416 2289 2751 2479 1997 1864 1907 2155 2386 2320 2918 2657 1957 1704 2142 1696 1434 1510 1385 1221 965
0 0 0 0 0 0 0 0 0 0 0 0 0 0 0 0 0 10 64 112 67 616 612 854 978 1465 3366 3323 2373 1816 1745 2678 2834 2507 2136 2016 2068 2212 2473 2025 1400 2152 2848 2186 2021 2035 2011 1801 1375
0 1 0 0 0 0 0 0 0 0 0 0 0 0 0 0 0 12 21 22 38 254 170 260 755 814 3170 2534 2892 1425 1641 2538 3827 2579 2310 1591 1733 2095 2376 2139 2106 2516 2168 2637 2316 2089 1822 2054 1602
0 0 0 0 4 0 0 0 0 0 0 0 0 0 0 0 0 11 5 0 27 146 633 738 634 2076 1949 834 379 538 973 1054 1493 2455 3112 2802 2601 2227 2769 1308 955 1647 1509 2261 2897 2144 1739 1260 1662
0 0 1 0 0 2 0 0 0 0 0 0 0 0 0 0 0 0 0 0 56 285 596 1270 1018 1442 1280 443 855 526 343 294 985 2985 2821 2825 2669 2422 2933 2529 1317 1954 1290 2516 1643 2024 1455 2093 1591
0 0 0 0 1 0 0 0 0 0 0 0 0 0 0 0 0 0 12 92 247 772 1043 1489 1987 2030 1927 1625 1525 1528 1767 1758 1471 2328 2664 3442 3230 3087 2793 2576 2739 1980 898 46 8 208 1316 1121 1310
0 0 0 0 0 0 0 0 0 6 0 0 0 0 0 0 1 64 137 260 463 397 377 480 501 805 1043 1573 2232 2579 1895 2352 2425 3168 2897 2423 2294 2241 2442 1908 2090 1190 125 102 0 1046 1885 1944 1590
0 0 0 0 0 1 4 3 4 8 9 19 4 0 2 28 58 63 50 76 76 101 120 124 124 146 209 704 558 954 1026 602 643 993 1003 1433 1075 730 489 833 1455 2064 2496 2018 1611 1695 2408 2128 1804
0 0 0 3 12 0 0 35 32 18 39 76 18 57 76 32 18 15 11 8 9 18 37 54 51 41 34 87 139 128 177 123 71 180 86 79 104 112 138 89 195 456 864 1424 1708 1948 2198 2331 2249
3 0 0 0 0 0 0 4 14 12 18 121 44 43 48 18 9 6 6 0 0 0 0 6 22 17 8 2 0 3 29 46 33 11 0 17 4 5 186 289 91 31 93 121 439 792 1564 1960 1743
6 29 57 12 52 40 34 0 1 0 39 51 66 64 50 39 1 0 0 0 0 0 0 0 0 0 0 0 0 0 0 0 0 1 0 0 0 0 81 4 0 0 0 0 52 24 60 532 892
35 46 30 22 85 118 37 62 111 60 16 81 71 96 61 21 0 0 0 0 0 0 0 0 0 0 0 0 0 0 0 0 0 0 0 0 0 0 0 0 0 0 0 5 19 1 9 65 241
21 87 124 71 167 175 212 82 174 99 77 82 99 87 41 4 0 0 0 0 0 0 0 0 0 0 0 0 0 0 0 0 0 0 0 0 0 1 0 0 0 0 5 3 35 20 24 53 41
46 142 160 287 152 122 134 163 66 56 62 107 86 86 42 0 0 0 0 0 0 0 0 0 0 0 0 0 0 0 0 0 0 1 2 1 0 0 0 0 0 0 0 0 18 17 16 8 53
128 114 317 206 179 257 119 166 8 65 181 84 139 68 11 0 0 0 0 0 0 0 0 0 0 0 0 0 0 0 0 1 0 0 0 0 0 0 0 0 0 0 0 0 0 0 0 0 0

GFSSGP_con_mucape_108.txt.gz
CAPE
0 0 0 0 0 0 0 0 0 0 0 0 0 0 0 0 1081 2248 2289 2016 2163 1733 2019 2349 2886 2763 2369 2320 2414 2081 1648 1567 1670 1669 1702 1709 1771 1990 2136 1932 1899 2004 1957 1299 997 479 417 197 438
0 0 0 0 0 0 0 0 0 0 0 0 0 0 0 1423 1429 2855 2772 1919 2558 2105 1794 1970 2858 2894 2523 2428 2258 1956 1677 1667 1741 1742 1726 1732 1821 2033 2175 2068 1868 1678 1388 1224 776 276 170 187 333
0 0 0 0 0 0 0 0 0 7 0 0 0 0 0 835 1631 2563 2292 2395 2989 2573 1959 2448 2854 2840 2689 2406 2082 1846 1746 1781 1817 1797 1825 1794 1880 2065 2157 2132 1836 1486 811 633 452 381 618 376 229
0 0 0 0 0 0 0 0 0 4 0 0 0 0 4 352 1398 2235 1809 2145 3093 2569 2090 2445 2723 2740 2671 2380 2066 1831 1778 1853 1774 1782 1855 1837 1887 2022 2104 2070 1787 1338 722 517 587 880 835 738 593
0 0 0 0 0 0 0 0 0 0 1 0 0 0 5 791 1719 2198 1990 2209 2787 2384 2771 2177 2587 2617 2619 2444 2165 1951 1910 1795 1743 1828 1885 1879 1819 1858 1949 1803 1513 1073 729 750 836 852 842 800 748
0 0 0 0 0 0 0 0 0 0 0 0 0 0 0 442 1468 2360 2049 2171 2281 2808 2948 2069 2399 2486 2433 2407 2220 2009 1889 1752 1774 1824 1864 1853 1697 1690 1736 1597 1230 892 834 818 846 804 851 928 907
0 0 0 0 0 0 0 0 0 0 0 0 0 0 0 0 1693 1937 2200 2086 1792 2314 2500 1841 1637 2162 2291 2184 2083 1949 1810 1773 1761 1740 1764 1719 1640 1619 1596 1465 1236 1015 1111 1108 1052 829 685 720 717
0 0 0 0 0 0 0 0 0 0 0 0 0 0 0 311 798 1899 2287 2023 1657 1575 2010 1460 1615 1571 1822 1876 2045 1919 1855 1803 1677 1685 1717 1615 1616 1575 1502 1256 1253 1061 1120 1209 1221 1042 811 695 584
0 0 0 0 0 0 0 0 0 0 0 0 0 0 0 0 99 1263 1772 1876 1688 1635 1731 1379 1251 1280 1105 1283 1753 1853 1843 1815 1677 1737 1692 1222 757 941 869 517 1000 1205 975 1038 1177 1116 952 771 696
0 0 0 0 0 0 0 0 0 0 0 0 0 0 0 0 0 164 1100 1272 1664 1555 1416 1085 1063 734 537 782 1540 1494 1470 1457 1473 1360 1412 978 624 698 317 404 1129 1216 1064 873 803 907 986 765 0
0 0 0 0 0 0 0 0 0 0 0 0 0 0 0 0 0 13 343 618 1841 1885 1498 876 1145 961 596 895 1315 867 981 923 969 1029 1239 839 403 814 256 494 321 679 776 165 269 173 59 0 0
0 0 0 0 0 0 0 0 0 0 0 0 0 0 0 0 0 0 0 182 1814 1466 1241 874 908 1604 2338 1460 989 568 803 693 613 618 1142 891 697 1040 640 380 341 404 193 83 30 0 0 0 0
0 0 0 0 0 0 0 0 0 0 0 0 0 0 0 0 0 0 0 211 1987 1205 1157 799 165 1976 2415 2501 1696 704 1075 844 790 879 1128 1177 878 1223 1209 865 807 625 213 248 119 36 9 1 0
0 0 0 0 0 0 0 0 0 0 0 0 0 0 0 0 0 0 0 203 1364 1723 231 76 581 1854 2827 2888 2732 2605 3183 2581 2432 1864 1303 1681 1824 2001 1819 1900 1666 1156 1122 517 379 225 459 80 41
0 0 0 0 0 0 0 0 0 0 0 0 0 0 0 0 0 0 0 0 1123 697 51 14 753 1352 1889 2546 2818 2541 2714 2148 2853 2277 2828 2165 2324 2551 2003 1954 1624 1649 1501 2577 2201 1779 1591 847 531
0 0 0 0 0 0 0 0 0 0 0 0 0 0 0 0 0 0 0 502 1354 1917 1523 1405 455 1544 2459 3556 3436 3095 2894 3103 2548 1929 2193 2508 2861 2631 2871 2640 1892 2072 2782 2066 1641 1462 1211 1325 1179
0 0 0 0 0 0 0 0 0 0 0 0 0 0 0 0 0 0 7 1220 984 665 1591 2050 2294 2940 2798 3580 3367 3281 3585 2252 1711 323 1108 1729 1271 1310 1028 1039 1183 1766 2053 2426 2421 1844 965 1114 1458
0 0 0 0 0 0 0 0 0 0 0 0 0 0 0 0 0 4 24 681 493 811 1631 2324 2462 3633 3828 3243 3428 2802 3060 3398 3146 2658 2692 1932 1844 740 139 200 227 587 1698 1952 1916 1902 1646 1456 1265
0 0 0 0 0 0 0 0 0 0 0 0 0 0 0 0 0 3 32 371 467 1890 2168 2120 2688 3473 3263 3304 1987 1911 2123 2286 2570 2694 2703 2616 1393 841 120 26 107 1029 1118 1214 907 742 387 290 240
0 0 0 0 0 0 1 0 0 0 1 0 0 0 0 1 5 28 111 147 1073 1830 2247 2380 2531 3145 3063 2800 2774 2522 1857 1246 1556 1952 3105 3092 2794 1950 1603 1139 1534 1170 940 410 315 328 48 84 100
0 0 0 0 0 0 0 0 0 0 1 3 1 0 0 4 58 36 40 279 1228 1753 2320 2601 2839 2717 2620 3202 2617 2798 2174 2040 1067 1548 1899 2472 2742 2792 2707 2585 2251 1683 710 89 104 32 18 13 12
0 0 0 0 0 0 3 0 0 0 0 4 8 0 0 0 115 88 178 948 1476 1117 1170 1382 1114 1395 1150 2122 2492 3254 2654 2384 1263 937 1098 938 1038 1476 1097 1684 1646 1250 520 87 15 0 14 64 24
0 0 0 0 0 0 0 0 0 1 2 22 53 2 8 216 194 222 415 645 340 366 282 339 312 299 401 412 552 1087 1020 615 717 631 339 464 599 1094 555 417 567 1342 780 819 635 61 128 250 391
0 1 4 5 1 0 0 0 0 16 3 7 82 33 68 189 100 79 123 155 118 110 92 130 136 168 193 177 190 216 320 153 94 122 103 146 27 97 669 84 375 463 600 739 763 1135 981 998 907
4 7 0 0 10 0 1 0 0 0 25 58 41 178 161 138 77 23 0 0 27 29 73 81 93 97 123 125 117 101 124 58 60 40 71 46 8 3 4 10 69 23 57 70 97 135 294 525 645
8 8 0 0 0 0 5 1 0 5 120 37 40 82 78 96 41 10 0 0 0 0 13 29 63 63 57 54 56 53 41 1 2 9 0 0 0 0 8 0 0 0 0 0 0 0 1 38 59
4 5 2 51 59 141 84 8 44 31 73 126 18 55 115 90 82 14 0 0 0 0 3 3 10 18 8 7 26 20 1 0 0 0 1 0 0 0 0 0 0 0 1 0 6 0 7 12 5
19 12 54 52 3 68 169 13 50 41 205 185 148 75 154 64 9 0 0 0 0 0 0 0 0 0 0 0 0 0 0 0 0 0 0 3 4 0 0 1 3 4 4 7 7 0 1 12 11
7 14 36 129 163 238 203 0 49 82 94 208 57 126 69 11 4 2 0 0 0 0 0 0 0 0 0 0 0 0 0 0 0 0 4 7 10 5 0 0 0 0 0 0 0 0 0 0 0
11 49 117 221 109 155 164 123 12 103 42 205 17 211 9 8 3 0 0 0 0 0 0 0 0 0 0 0 0 0 0 0 7 9 11 18 0 0 0 0 0 0 0 0 0 0 0 0 0

GFSSGP_con_mucape_111.txt.gz
CAPE
0 0 0 0 0 0 0 0 0 0 0 0 0 0 438 1991 1517 1879 2057 1844 1570 1945 2405 2319 2214 2262 2286 2227 1977 1579 1493 1517 1490 1449 1407 1438 1622 1538 1352 1495 1812 1736 1622 846 590 484 199 324 337
0 0 0 0 0 0 0 0 0 0 0 0 0 0 534 2549 2560 2320 1907 1967 1832 1867 2102 2224 2274 2187 2234 2173 1852 1522 1566 1518 1454 1436 1443 1503 1652 1654 1492 1531 1743 1821 1307 822 348 174 196 340 319
0 0 0 0 0 0 0 0 0 0 0 0 0 0 136 1659 2445 1921 1999 2230 2172 1675 1839 2325 2372 2085 2204 2164 1808 1506 1536 1504 1488 1522 1496 1527 1679 1693 1595 1508 1463 1601 1092 695 233 196 432 364 307
0 0 0 0 0 0 0 0 0 0 0 0 0 0 158 733 1844 1734 2312 2531 2316 2011 1815 2476 2493 2232 2193 2126 1814 1576 1591 1540 1509 1558 1542 1533 1669 1562 1685 1582 1420 1177 818 508 550 801 732 606 486
0 0 0 0 0 0 0 0 0 0 0 0 0 0 686 1612 1758 1698 2587 2677 2503 1943 1852 2248 2473 2450 2342 2151 1897 1701 1622 1491 1496 1588 1586 1592 1629 1619 1723 1650 1443 1070 857 923 874 954 842 821 759
0 0 0 0 0 0 0 0 0 0 0 0 0 0 492 1563 1880 1707 2439 2618 2596 2165 1903 2036 2485 2430 2230 2055 1839 1660 1552 1448 1457 1528 1588 1585 1552 1629 1630 1511 1312 940 782 890 986 923 870 821 867
0 0 0 0 0 0 0 0 0 0 0 0 1 0 155 1458 1977 1818 1837 2447 2559 2369 2086 1851 2180 2335 2275 1946 1740 1622 1461 1385 1398 1409 1484 1497 1447 1482 1481 1293 1056 856 833 848 874 819 868 879 945
0 0 0 0 0 0 0 0 0 0 0 0 0 0 5 1385 1700 1896 1986 2201 2631 2513 2143 1765 1897 1962 1669 1780 1850 1634 1461 1410 1352 1434 1486 1460 1427 1367 1320 987 904 899 957 961 916 757 700 736 750
0 0 0 0 0 0 0 0 0 0 0 0 0 0 107 379 418 1222 2180 1875 2658 2617 2322 1520 1541 1634 1523 1677 1664 1741 1791 1651 1496 1518 1501 1242 1048 1145 1101 864 902 920 969 1018 1019 933 728 646 657
0 0 0 0 0 0 0 0 0 0 0 0 0 0 0 8 10 486 964 1639 2118 2222 1913 1335 1301 1481 1452 1538 1787 1557 1522 1489 1348 1314 1286 939 676 764 673 619 838 1007 887 875 1022 999 916 832 129
0 0 0 0 0 0 0 0 0 0 0 0 0 0 0 0 0 0 54 867 1736 1521 1368 1229 965 1022 1176 1356 1426 1469 1546 1391 1273 1241 1101 821 562 527 558 383 332 545 797 389 490 450 537 398 128
0 0 0 0 0 0 0 0 0 0 0 0 0 0 0 0 0 0 54 780 1583 1154 819 586 608 535 753 1042 878 1192 1239 1346 1264 1258 1193 662 513 341 499 254 199 337 246 183 46 45 29 31 14
0 0 0 0 0 0 0 0 0 0 0 0 0 0 0 0 0 0 0 1363 1626 1337 673 426 341 539 474 803 693 597 795 835 773 748 816 655 268 174 591 347 342 236 245 163 74 61 31 2 3
0 0 0 0 0 0 0 0 0 0 0 0 0 0 0 0 0 0 0 1048 1427 1309 1017 539 276 65 191 862 906 803 907 591 657 589 630 779 577 326 709 580 541 470 623 504 207 107 73 48 34
0 0 0 0 0 0 0 0 0 0 0 0 0 0 0 0 0 0 0 1101 1318 1086 852 447 112 51 227 1199 1183 1470 1531 1432 1089 1105 1024 1082 1150 1017 1405 1286 731 621 599 718 848 621 410 431 235
0 0 0 0 0 0 0 0 0 0 0 0 0 0 0 0 0 0 0 1281 1173 586 404 106 201 367 918 1214 1007 1503 1802 1827 1485 1360 1493 1621 1581 1241 993 815 863 919 931 814 669 897 858 477 454
0 0 0 0 0 0 0 0 0 0 0 0 0 0 0 0 0 0 0 1360 1119 578 409 412 316 835 857 459 693 1855 2082 1784 1433 1158 1223 1387 1259 1244 638 366 541 662 564 388 217 162 162 251 280
0 0 0 0 0 0 0 0 0 0 0 0 0 0 0 0 0 0 302 1798 1571 884 530 637 466 532 715 919 1847 2358 2464 2219 1418 1083 219 1407 1701 1202 702 309 437 409 194 58 30 32 98 38 53
0 0 0 0 0 0 0 0 0 0 0 0 0 0 0 0 0 57 756 1066 2085 1918 1515 1287 1267 1403 1793 2375 2254 2062 2690 2237 2053 2033 1851 1502 1460 1034 550 245 83 123 96 20 0 57 50 119 31
0 0 0 0 0 0 0 0 0 0 0 0 0 0 0 0 0 48 859 1232 1068 1280 1968 1940 2054 2156 2356 2354 1638 1132 1460 1571 1498 1489 1615 1556 1617 1471 1150 558 584 218 148 152 243 66 69 17 18
0 0 0 0 0 0 0 0 0 0 0 0 0 0 0 0 14 790 1209 1454 1484 1512 1535 1667 1679 1899 1869 1820 1487 857 710 612 929 1057 1255 1002 1525 1521 1160 1037 1019 1116 1020 479 256 40 22 1 0
0 0 0 0 0 0 0 0 0 0 0 0 0 1 0 3 428 1220 1098 1200 1325 1358 1456 1488 1368 1148 1127 1687 1821 1428 1173 857 544 471 534 319 257 188 115 127 760 1005 688 320 142 50 0 1 0
0 0 0 0 0 0 0 0 0 0 0 0 0 3 18 68 752 787 823 862 1119 1365 1396 1288 989 641 554 1121 1037 957 892 781 638 334 169 132 119 54 16 3 63 272 228 294 360 479 221 36 14
0 0 0 0 0 0 0 0 0 0 0 0 0 15 191 387 421 457 531 469 253 166 198 232 271 178 49 96 298 252 120 52 36 37 32 4 2 0 0 0 0 0 0 0 8 181 286 663 501
1 0 0 0 0 0 0 0 0 0 3 0 1 259 169 210 254 279 331 174 46 15 0 0 0 0 0 5 15 5 0 0 0 0 0 0 0 0 0 0 0 0 0 0 0 0 0 7 230
0 0 0 0 0 0 0 0 0 0 58 25 274 204 100 110 128 91 57 13 13 9 0 0 0 0 0 0 0 0 0 0 0 0 0 0 0 0 0 0 0 0 0 0 0 0 0 0 0
0 0 0 0 50 34 14 12 0 21 101 152 183 117 72 102 55 48 0 0 0 0 0 0 0 0 0 0 0 0 0 0 0 0 0 0 0 0 0 0 0 0 0 0 0 0 0 0 0
0 0 0 0 0 0 4 37 116 14 52 50 90 117 107 7 6 5 0 0 0 0 0 0 0 0 0 0 0 0 0 0 0 0 0 0 0 0 0 0 0 0 0 0 0 0 0 0 0
4 14 1 32 2 0 0 24 110 21 56 22 62 72 32 0 5 0 0 0 0 0 0 0 0 0 0 0 0 0 0 0 0 0 0 0 0 0 0 0 0 0 0 0 0 0 0 0 0
0 0 19 0 45 47 18 54 95 0 42 48 19 32 7 9 4 0 0 0 0 0 0 0 0 0 0 0 0 0 0 0 0 0 0 0 0 0 0 0 0 0 0 0 0 0 0 0 0

GFSSGP_con_mucape_114.txt.gz
CAPE
0 0 0 0 0 0 0 0 0 0 0 0 0 457 2027 1757 953 526 1826 1689 1695 2074 1994 2182 2271 2376 2301 1951 1739 1587 1510 1399 1351 1347 1425 1533 1321 1288 1352 1542 1811 1920 1055 721 583 222 406 377 262
0 0 0 0 0 0 0 0 0 0 0 0 15 1466 2029 2260 2238 2018 1789 1725 1567 2047 1913 1838 2276 2306 2267 1905 1647 1572 1533 1419 1344 1347 1470 1603 1452 1375 1561 1890 1852 1703 918 647 489 185 358 324 236
0 0 0 0 0 0 0 0 0 0 0 0 0 321 1904 2485 2522 2003 1914 1541 1827 1956 1818 1747 2255 2213 2223 1903 1605 1575 1497 1388 1387 1423 1497 1594 1525 1455 1560 1821 1937 1536 974 554 260 215 414 350 347
0 0 0 0 0 0 0 0 0 0 0 0 0 81 1109 2096 2174 1517 1632 1635 1655 1784 1894 2193 2177 2149 2152 1891 1646 1608 1494 1444 1456 1476 1508 1636 1641 1544 1494 1577 1750 1729 1098 522 277 514 669 564 427
0 0 0 0 0 0 0 0 0 0 0 0 0 48 1253 1844 1769 1693 1680 2052 2145 1810 2135 2063 2094 2114 2139 1938 1593 1623 1501 1412 1471 1525 1529 1660 1631 1631 1590 1591 1503 1371 1221 703 543 753 751 594 434
0 0 0 0 0 0 0 0 0 0 0 0 0 445 1110 1589 1832 1931 2157 2364 2312 1943 2068 2152 2281 2161 2030 1906 1700 1583 1441 1396 1468 1504 1507 1606 1574 1651 1703 1631 1469 1161 1034 1012 910 991 816 700 660
0 0 0 0 0 0 0 0 0 0 0 0 0 138 1013 1715 2274 2360 2666 2621 2359 1950 1698 2089 2136 2130 2026 1777 1607 1544 1420 1376 1409 1405 1445 1493 1553 1634 1599 1453 1247 989 881 990 1016 879 812 729 746
0 0 0 0 0 0 0 0 0 0 0 0 0 0 1554 1737 2420 2780 2878 2683 2413 1892 1437 1797 1974 1955 1704 1596 1714 1591 1438 1369 1266 1356 1399 1353 1396 1439 1421 1038 917 878 855 886 857 777 802 790 795
0 0 0 0 0 0 0 0 0 0 0 0 0 422 925 1906 1858 2552 2770 2662 2439 2105 1487 1558 1659 1709 1478 1550 1643 1638 1571 1467 1353 1448 1429 1087 888 961 1053 886 831 840 895 953 944 836 714 703 771
0 0 0 0 0 0 0 0 0 0 0 0 1 734 1280 1185 1889 1878 2669 2706 2386 2132 1799 1429 1421 1276 1303 1594 1568 1429 1340 1221 1138 1189 1213 877 702 718 757 878 937 951 849 980 1051 1072 975 886 276
0 0 0 0 0 0 0 0 0 0 0 0 0 0 14 89 53 782 1105 2769 2348 2346 2203 1895 1360 1453 1429 1398 1347 1344 1377 1159 1109 1119 1063 757 546 553 724 548 531 582 736 335 536 582 739 558 339
0 0 0 0 0 0 0 0 0 0 0 0 0 0 0 0 0 0 477 1737 2070 2192 1745 1143 1197 1175 1195 1306 1352 1340 1379 1183 1075 1053 1014 786 549 370 544 430 336 294 341 300 201 169 117 149 169
0 0 0 0 0 0 0 0 0 0 0 0 0 0 0 0 0 42 970 1227 1747 1795 1538 854 1018 763 755 1095 1075 1170 1203 1146 1088 1092 1099 911 514 390 282 427 357 338 265 266 262 209 54 32 26
0 0 0 0 0 0 0 0 0 0 0 0 0 0 0 0 0 531 722 1037 1566 1465 1075 780 509 556 654 790 885 836 931 858 900 836 957 1067 620 242 365 459 617 394 407 547 477 409 259 249 242
0 0 0 0 0 0 0 0 0 0 0 0 0 0 0 0 0 14 810 1127 1437 1373 1025 793 298 621 472 366 610 953 561 644 652 601 755 811 903 852 915 901 862 557 730 714 656 520 435 407 344
0 0 0 0 0 0 0 0 0 0 0 0 0 0 0 0 0 0 755 933 1532 1371 1018 676 466 474 255 761 952 1249 1248 663 687 765 793 763 877 883 830 985 1072 995 904 814 551 406 377 321 203
0 0 0 0 0 0 0 0 0 0 0 0 0 0 0 0 0 0 852 947 1568 1375 1111 909 634 400 221 737 1334 1247 1611 1362 1210 1311 1391 1245 1394 1236 1159 1002 972 685 606 647 439 321 127 71 23
0 0 0 0 0 0 0 0 0 0 0 0 0 0 0 0 0 1 1068 1475 1700 1368 1012 634 419 81 375 779 1348 1374 1936 1935 1284 1088 845 1142 1202 1292 1216 982 422 153 390 422 188 91 50 49 52
0 0 0 0 0 0 0 0 0 0 0 0 0 0 0 0 0 0 1452 1390 1117 618 341 287 668 905 994 1076 1421 1300 2146 2098 1612 1193 1282 1195 1524 1144 832 706 485 429 411 170 134 23 62 170 88
0 0 0 0 0 0 0 0 0 0 0 0 0 0 0 0 0 310 1675 1438 818 465 649 770 833 1008 1101 1529 1403 1758 1791 1951 1833 1453 1686 1507 1319 1193 1196 775 362 201 102 70 84 124 232 124 54
0 0 0 0 0 0 0 0 0 0 0 0 0 0 0 0 814 1163 1688 2219 1692 1600 1189 1274 1527 1537 1466 1980 2142 1812 2054 1660 1315 1079 1124 1014 1460 1158 1120 929 682 529 345 313 307 196 169 49 0
0 0 0 0 0 0 0 0 0 0 0 0 0 0 134 1282 1434 1346 1648 2080 2023 1899 1899 1518 1982 1977 2040 2200 2149 1564 1281 1281 949 815 691 433 353 234 232 607 911 1003 902 689 573 113 24 0 0
0 0 0 0 0 0 0 0 0 0 0 0 0 1 1201 1352 1443 1373 1581 1920 1956 1860 1917 1874 1652 1729 1588 1472 1089 958 532 475 457 274 137 42 37 31 1 0 92 97 59 117 163 172 201 219 12
0 0 0 0 0 0 0 0 0 0 0 0 1 424 1199 1394 1531 1460 1351 1351 1490 1311 1155 1146 1174 870 1100 1165 1051 859 696 606 469 185 72 31 0 0 0 0 0 0 0 0 0 0 15 102 80
0 0 0 0 0 0 0 0 0 0 0 0 324 714 1203 1425 1381 1270 1264 1243 974 934 862 770 758 642 434 537 556 442 275 107 37 27 15 0 0 0 0 0 0 0 0 0 0 0 0 0 0
0 0 0 0 0 0 0 0 0 0 3 12 296 543 971 935 752 667 580 440 248 146 50 19 3 15 26 38 23 6 2 1 0 0 0 0 0 0 0 0 0 0 0 0 0 0 0 0 0
0 2 0 0 0 0 0 0 0 1 30 71 126 446 662 531 439 327 248 168 87 34 23 2 0 0 0 0 0 0 0 0 0 0 0 0 0 0 0 0 0 0 0 0 0 0 0 0 0
7 2 7 0 0 0 0 6 32 31 46 41 194 330 400 423 384 230 121 57 21 18 6 0 0 0 0 0 0 0 0 0 0 0 0 0 0 0 0 0 0 0 0 0 0 0 0 0 0
2 0 0 0 0 0 0 0 59 41 88 127 171 245 341 285 159 64 16 0 1 0 0 0 0 0 0 0 0 0 0 0 0 0 0 0 0 0 0 0 0 0 0 0 0 0 0 0 0
5 0 0 0 0 0 1 34 70 103 44 117 182 143 114 45 31 6 0 0 0 0 0 0 0 0 0 0 0 0 0 0 0 0 0 0 0 0 0 0 0 0 0 0 0 0 0 0 0

GFSSGP_con_mucape_117.txt.gz
CAPE
0 0 0 0 0 0 0 0 0 0 0 0 3 4 596 1100 862 122 1550 1199 1452 1634 1892 2137 2360 2092 1804 1687 1567 1455 1392 1280 1287 1311 1258 1250 1252 1416 1638 1772 1955 1662 1148 977 357 366 444 335 282
0 0 0 0 0 0 0 0 0 0 0 0 10 1744 1822 1965 2177 1767 1524 1583 1413 1633 1834 1878 2391 2294 1839 1527 1598 1439 1366 1241 1189 1275 1216 1183 1241 1385 1540 1887 1832 1180 854 734 374 398 415 290 283
0 0 0 0 0 0 0 0 0 0 0 0 0 193 2140 2227 2143 1642 1737 1729 1579 1557 1693 1907 2372 2282 1887 1491 1531 1481 1345 1269 1247 1391 1356 1218 1292 1527 1804 1881 1826 1146 802 537 290 318 425 371 329
0 0 0 0 0 0 0 0 0 0 0 0 0 13 1420 2300 2148 1803 1884 1685 1570 1568 1517 2211 2281 2138 1913 1449 1423 1567 1436 1380 1359 1430 1422 1272 1268 1454 1681 1913 1873 1358 943 402 223 295 501 524 373
0 0 0 0 0 0 0 0 0 0 0 0 0 0 989 2016 1914 1641 1842 1577 1632 1657 1657 2015 2196 2103 1902 1467 1428 1507 1495 1389 1407 1491 1397 1270 1409 1447 1525 1722 1700 1468 1025 528 356 468 592 514 369
0 0 0 0 0 0 0 0 0 0 0 0 0 0 1280 1994 1771 1620 1582 1280 1632 1823 1861 1919 2173 2056 1849 1689 1692 1636 1489 1451 1487 1522 1547 1518 1556 1595 1606 1628 1573 1425 1182 758 621 652 534 361 352
0 0 0 0 0 0 0 0 0 0 0 0 0 96 734 1889 1839 1445 1390 1465 1959 1941 1772 1778 1847 1894 1941 1752 1673 1590 1464 1464 1473 1424 1525 1588 1666 1699 1643 1514 1323 1080 1025 1129 1095 855 644 593 581
0 0 0 0 0 0 0 0 0 0 0 0 0 207 1523 1845 1862 1515 2034 2435 2141 1955 1730 1563 1768 1728 1621 1541 1755 1631 1486 1444 1369 1422 1456 1500 1616 1661 1568 1152 1043 910 836 984 947 815 773 695 653
0 0 0 0 0 0 0 0 0 0 0 0 0 92 1010 1929 2138 2163 2539 2638 2325 1861 1780 1627 1633 1671 1444 1339 1462 1630 1443 1429 1401 1498 1454 1102 918 1128 1153 967 960 931 872 917 931 825 724 747 799
0 0 0 0 0 0 0 0 0 0 0 0 993 913 1567 2426 2574 2619 2767 2775 2496 2004 1691 1623 2047 1636 1417 1416 1486 1279 1219 1112 983 1023 1056 749 593 651 755 854 1069 1070 961 1057 1092 1039 915 816 238
0 0 0 0 0 0 0 0 0 0 0 0 66 1265 1593 2131 2793 2879 2868 2890 2495 2399 1955 1461 1588 1357 1378 1304 1365 1165 1191 904 868 857 846 631 495 647 705 621 838 614 804 439 796 766 740 429 234
0 0 0 0 0 0 0 0 0 0 0 0 0 0 132 649 1972 2696 2670 2808 2768 2399 1858 1833 1331 1338 1350 1334 1179 1415 1234 969 876 922 912 660 479 323 429 374 346 398 456 398 216 182 124 146 142
0 0 0 0 0 0 0 0 0 0 0 0 0 0 0 0 1 23 1941 2877 2586 2432 2129 1939 1419 1238 1316 1389 1340 1289 1289 1180 1002 1025 965 762 539 313 333 471 405 329 318 340 279 320 201 59 30
0 0 0 0 0 0 0 0 0 0 0 0 0 0 0 0 58 670 1336 2125 2379 2383 2492 2030 1350 975 435 340 849 1144 1171 1218 1128 1064 1039 925 638 413 274 296 373 477 437 407 513 532 473 347 298
0 0 0 0 0 0 0 0 0 0 0 0 0 0 0 0 231 486 852 1292 1829 2176 2138 1568 1236 752 497 777 1114 922 1045 1063 997 978 989 1057 893 501 321 343 443 739 740 501 690 631 582 424 298
0 0 0 0 0 0 0 0 0 0 0 0 0 0 0 0 0 506 722 1248 1812 1870 1504 1265 1075 804 520 756 923 998 866 800 809 762 589 858 991 675 514 516 799 650 722 848 672 604 463 306 304
0 0 0 0 0 0 0 0 0 0 0 0 0 0 0 0 0 144 706 1163 1640 1698 1298 1179 1022 648 612 750 901 1049 1336 1110 781 711 649 569 799 823 830 833 845 904 857 785 679 553 387 302 232
0 0 0 0 0 0 0 0 0 0 0 0 0 0 0 0 0 5 809 973 1230 1379 1654 1262 1207 734 736 808 1146 1160 1597 1358 1114 859 882 1007 954 972 884 954 1029 910 470 298 288 179 133 98 13
0 0 0 0 0 0 0 0 0 0 0 0 0 0 0 0 0 223 862 977 1395 1707 1939 1552 1260 930 754 747 1241 1463 1220 1044 791 822 674 853 1237 1306 1143 1015 714 529 264 265 248 92 52 41 74
0 0 0 0 0 0 0 0 0 0 0 0 0 0 0 0 0 1109 1082 1148 1518 2086 2003 1672 1251 1092 848 677 1224 1485 1170 887 1274 1203 1099 1280 1234 1049 922 859 532 278 183 78 68 101 99 96 121
0 0 0 0 0 0 0 0 0 0 0 0 0 0 0 0 1 1457 1212 1379 1905 2156 1969 1725 1277 1137 1008 1200 1291 1443 1385 1077 975 1104 1092 1176 1424 1309 1124 886 688 468 349 281 226 403 183 201 105
0 0 0 0 0 0 0 0 0 0 0 0 0 0 0 666 805 1680 1547 1614 2212 1983 1673 1185 1191 1324 1385 1565 1388 1622 1526 1107 924 907 856 750 615 562 589 742 771 719 709 830 750 326 363 71 12
0 0 0 0 0 0 0 0 0 0 0 0 0 192 1072 1168 1369 1772 1801 1704 1683 1123 1201 1494 1539 1590 1680 1949 2008 1473 1315 1155 981 1045 868 597 337 194 66 61 223 342 245 121 128 174 128 54 42
0 0 0 0 0 0 0 0 0 0 0 0 20 1031 1018 1002 1236 1613 1995 1821 1412 1431 1307 1614 1776 1737 1601 1531 1572 1480 1291 1140 902 644 371 108 19 7 0 0 0 0 0 0 0 0 0 0 0
0 0 0 0 0 0 0 0 0 0 0 0 544 954 980 1105 1317 1808 1966 1655 1465 1269 1323 1280 1251 1105 1216 1210 1028 883 653 478 394 282 70 0 0 0 0 0 0 0 0 0 0 0 0 0 0
0 0 0 0 0 0 0 0 0 0 0 0 583 773 1073 1300 1698 1474 1213 823 1179 824 676 766 788 881 947 1114 890 779 731 507 214 14 0 0 0 0 0 0 0 0 0 0 0 0 0 0 0
0 0 0 0 0 0 0 0 0 0 67 317 478 959 1260 1409 1274 1084 947 822 737 554 171 160 150 212 207 161 177 169 108 35 2 0 0 0 0 0 0 0 0 0 0 0 0 0 0 0 0
5 0 0 0 0 0 0 0 0 0 4 168 511 1081 1203 973 961 888 641 463 250 121 29 26 0 7 31 31 19 3 0 0 0 0 0 0 0 0 0 0 0 0 0 0 0 0 0 0 0
15 2 2 0 0 0 0 0 5 20 40 86 227 780 765 784 716 499 311 57 51 37 2 0 0 0 0 0 0 0 0 0 0 0 0 0 0 0 0 0 0 0 0 0 0 0 0 0 0
20 0 0 0 0 0 0 0 42 59 84 42 89 353 517 399 319 172 88 45 11 3 0 0 0 0 0 0 0 0 0 0 0 0 0 0 0 0 0 0 0 0 0 0 0 0 0 0 0

GFSSGP_con_mucape_123.txt.gz
CAPE
0 0 0 0 0 0 0 0 0 0 0 0 0 0 0 435 1061 467 1659 670 1340 1795 2088 1867 2084 2078 1957 1930 1934 1940 1927 1961 1951 1833 1723 1603 1419 1331 1540 1736 1797 1679 643 370 300 324 250 228 304
0 0 0 0 0 0 0 0 0 0 0 0 0 0 654 506 2219 2018 908 1131 1555 2092 2202 1919 2051 2052 2041 1913 1800 1735 1782 1767 1704 1618 1548 1476 1431 1554 1619 1731 1711 1346 564 302 353 226 172 191 329
0 0 0 0 0 0 0 0 0 0 0 0 0 0 0 1614 2484 2108 1198 1463 1875 2141 2111 2197 2094 1995 1958 1795 1737 1659 1597 1567 1546 1541 1547 1519 1560 1604 1680 1721 1666 1133 659 304 406 318 276 247 196
0 0 0 0 0 0 0 0 0 0 0 0 0 0 0 1611 2426 2084 1567 1675 1929 2087 1995 2200 2078 1913 1843 1788 1675 1575 1498 1451 1429 1441 1488 1564 1609 1639 1706 1615 1392 1057 673 282 419 363 364 263 304
0 0 0 0 0 0 0 0 0 0 0 0 0 0 0 1759 2296 2195 1903 1861 1835 1879 1971 2004 2052 1921 1833 1784 1674 1566 1515 1348 1299 1329 1449 1585 1590 1641 1708 1681 1537 1045 470 344 453 469 683 640 427
0 0 0 0 0 0 0 0 0 0 0 0 0 0 0 1505 2434 2306 1761 1879 1755 1820 1884 1787 1949 1920 1782 1719 1613 1479 1453 1366 1257 1247 1360 1503 1573 1640 1669 1725 1660 1399 830 409 375 437 523 540 388
0 0 0 0 0 0 0 0 0 0 0 0 0 0 0 1663 2266 2230 2004 1934 1684 1797 1885 1854 1650 1645 1859 1708 1532 1436 1379 1368 1232 1128 1173 1268 1418 1535 1626 1665 1605 1356 1134 925 725 563 513 429 518
0 0 0 0 0 0 0 0 0 0 0 0 0 0 0 1913 2040 2171 2113 1872 1752 1811 1969 1970 1746 1217 974 1225 1623 1478 1416 1342 1228 1204 1139 1218 1350 1414 1438 1069 1170 1152 893 755 643 498 426 455 537
0 0 0 0 0 0 0 0 0 0 0 0 0 11 13 1927 1956 2181 2033 1819 1697 1682 1878 1806 1817 1471 853 836 1170 1409 1400 1355 1279 1228 1196 892 445 736 1011 822 1147 1036 843 741 628 569 539 501 393
0 0 0 0 0 0 0 0 0 0 0 0 0 1762 1582 1742 2093 2159 1877 1671 1612 1660 1711 1726 1873 1315 1041 754 1068 741 678 604 572 541 682 512 670 798 642 939 1248 1128 924 797 788 711 518 274 30
0 0 0 0 0 0 0 0 0 0 0 0 0 88 2095 1774 2070 2004 1936 1575 1653 1713 1676 2120 1881 1535 1127 782 1185 1045 925 765 860 875 856 698 678 853 653 605 642 672 655 201 177 157 113 108 111
0 0 0 0 0 0 0 0 0 0 0 0 0 5 591 2492 2129 1968 1718 1704 1789 1691 1810 2180 2078 1717 1630 1503 1102 995 1014 850 641 770 978 734 642 767 605 411 443 658 385 335 213 102 117 174 177
0 0 0 0 0 0 0 0 0 0 0 0 0 1 314 973 2636 2660 2192 1928 2007 2022 2005 2215 2299 1915 1949 2149 1449 1287 1185 1099 724 783 972 793 674 726 717 573 461 477 474 469 431 243 263 261 310
0 0 0 0 0 0 0 0 0 0 0 0 0 0 41 316 1459 2759 3041 2704 2333 2258 2451 2186 1923 1820 2180 2168 1754 1749 1633 1421 1274 981 927 1058 951 923 792 821 640 621 575 553 628 719 739 752 658
0 0 0 0 0 0 0 0 0 0 0 0 0 0 0 0 2 1614 3328 3463 3048 2786 2510 2318 1940 2099 2474 2368 1997 1855 1609 1691 1587 1362 1350 1294 1316 1328 1055 841 773 854 976 1067 994 1069 971 779 819
0 0 0 0 0 0 0 0 0 0 0 0 0 0 0 0 0 0 1652 3577 3409 3312 2772 2529 2014 2601 2617 2324 2012 2029 1924 1947 1920 1828 1681 1567 1520 1500 1483 1315 1061 1104 882 1100 1009 1061 1060 886 1096
0 0 0 0 0 0 0 0 0 0 0 0 0 0 0 0 0 0 68 1927 3044 3286 2856 2490 2801 2448 2417 1880 1995 2311 2436 2349 2239 2115 2047 2038 1976 1714 1659 1279 517 758 726 919 870 817 772 1024 960
0 0 0 0 0 0 0 0 0 0 0 0 0 0 0 0 0 0 0 606 1811 2596 2500 2432 2575 2670 2109 2092 1928 1867 2119 2128 2033 1739 1598 1267 1184 1259 1141 1056 468 553 594 776 800 655 550 649 583
0 0 0 0 0 0 0 0 0 0 0 0 0 0 0 0 0 0 0 232 1295 2096 2279 2327 2533 2464 2471 2184 2032 2219 1968 1670 1660 1391 903 561 407 347 143 15 239 379 530 567 604 367 249 257 125
0 0 0 0 0 0 0 0 0 0 0 0 0 0 0 0 0 0 0 11 1071 1838 2176 2356 2286 2489 2556 2211 2294 2419 1949 1989 1563 1088 627 362 155 65 55 202 99 163 267 231 216 168 120 86 22
0 0 0 0 0 0 0 0 0 0 0 0 0 0 0 0 0 0 0 87 659 1555 2159 1970 1832 2154 2075 2138 2347 1893 1690 1372 1119 880 307 37 0 0 57 233 148 88 158 216 206 116 119 278 113
0 0 0 0 0 0 0 0 0 0 0 0 0 0 0 0 0 0 67 468 892 1268 1771 1590 1676 1781 1725 2002 2230 2300 2279 1903 1316 605 271 217 477 343 244 273 343 265 330 298 251 280 402 178 62
0 0 0 0 0 0 0 0 0 0 0 0 0 0 0 0 0 0 60 610 1116 1004 1040 1225 1537 1695 1690 1779 1962 2442 1902 1211 813 436 463 637 792 554 306 305 422 528 544 328 109 45 0 0 3
0 0 0 0 0 0 0 0 0 0 0 0 0 0 0 0 0 127 654 448 254 690 760 1085 1394 1379 1356 1719 1664 1450 1087 929 825 961 851 608 432 249 144 119 68 29 0 0 0 0 0 0 0
2 0 0 0 0 0 0 0 0 0 0 0 0 50 353 655 228 158 190 45 398 671 1045 1405 1322 903 1096 963 789 789 751 596 561 661 699 653 506 267 149 19 13 0 0 0 0 0 0 0 0
3 0 0 0 0 0 0 0 0 0 0 0 64 128 55 134 535 333 42 262 987 1317 1515 1439 866 676 384 326 161 195 351 539 615 506 480 485 264 131 26 0 0 0 0 0 0 0 0 0 0
46 0 0 0 0 0 0 0 0 0 0 132 67 5 30 202 185 160 479 1034 1415 1495 1342 934 514 401 152 36 35 59 118 201 160 184 192 194 126 66 7 0 0 0 0 0 0 0 0 0 0
78 0 0 0 0 0 0 0 0 0 0 64 32 57 27 286 808 529 1467 1514 1402 1089 843 605 283 81 17 5 0 65 106 87 99 86 79 66 21 0 0 0 0 0 0 0 0 0 0 0 0
10 15 0 0 0 0 0 0 0 0 0 120 72 20 161 688 851 1054 1388 1201 763 304 225 154 77 76 49 8 10 23 35 41 11 2 0 0 0 0 0 0 0 0 0 0 0 0 0 0 0
28 3 0 15 0 0 0 0 4 0 136 191 42 86 430 778 1046 1004 932 609 320 127 140 108 39 2 0 0 0 0 0 0 0 0 0 0 0 0 0 0 0 0 0 0 0 0 0 0 0

GFSSGP_con_mucape_129.txt.gz
CAPE
0 0 0 0 0 0 0 0 0 0 0 0 0 0 0 0 1219 1991 1725 1146 1127 2115 2122 1610 2492 2719 2756 2475 2127 1810 1771 1812 1894 1805 1653 1363 1399 1660 1766 1966 1476 1264 1098 1044 890 708 583 516 422
0 0 0 0 0 0 0 0 0 0 0 0 0 0 0 0 1405 2137 1419 1075 1513 2232 2155 1424 2436 2620 2671 2432 2097 1913 1900 1942 1937 1792 1615 1346 1415 1626 1736 1867 1393 840 675 771 640 457 377 402 412
0 0 0 0 0 0 0 0 0 0 0 0 0 0 0 0 1451 2341 1787 1229 1968 2404 2123 1876 2473 2528 2592 2489 2191 1996 1993 2019 1836 1756 1647 1420 1418 1656 1802 1914 1522 839 503 363 369 279 289 316 291
0 0 0 0 0 0 0 0 9 0 0 0 0 0 0 0 1495 2446 1579 1345 2097 2185 1899 1790 2284 2387 2430 2453 2323 2199 2073 1975 1818 1752 1608 1472 1525 1690 1768 1824 1569 773 399 404 353 297 333 378 299
0 0 0 0 0 0 0 0 0 0 0 0 0 0 0 50 1078 1783 1315 1669 1855 1611 2199 1581 2171 2273 2342 2353 2271 2174 2063 1877 1759 1700 1610 1551 1642 1730 1761 1772 1491 968 515 541 514 464 476 489 331
0 0 0 0 0 0 0 0 0 0 0 0 0 0 0 3 441 1528 1659 2054 1886 1620 2333 1211 1949 2120 2122 2203 2111 2009 1892 1808 1720 1609 1583 1583 1667 1672 1676 1619 1526 1426 1036 918 707 695 603 668 599
0 0 0 0 0 0 0 0 0 0 0 0 0 0 0 0 29 1933 2010 2187 1943 2000 1885 1156 525 1374 1981 1946 1857 1785 1691 1635 1551 1458 1441 1524 1639 1620 1615 1640 1595 1436 1216 1081 1122 850 676 511 468
0 0 0 0 0 0 0 0 0 0 0 0 0 0 0 0 640 2161 2415 2415 2093 2235 1746 1117 501 370 358 913 1742 1590 1509 1437 1337 1372 1433 1458 1576 1638 1625 1517 1642 1619 1222 1094 1077 922 876 686 563
0 0 0 0 0 0 0 0 0 0 0 0 0 0 0 523 628 1663 2678 2597 2412 2275 2027 1221 662 319 169 196 806 1340 1273 1310 1244 1276 1421 945 64 517 706 510 1584 1707 1192 970 863 789 793 582 366
0 0 0 0 0 0 0 0 0 0 0 0 0 0 0 0 593 816 2430 2914 2673 2377 2192 1422 1164 584 371 355 714 292 232 211 184 143 348 85 74 198 75 356 1665 1308 1010 800 660 547 438 225 7
0 0 0 0 0 0 0 0 0 0 0 0 0 0 0 155 498 835 1261 2354 2689 2465 2255 1719 1966 1898 1046 677 821 445 478 325 279 284 404 466 274 464 144 431 735 769 730 287 172 66 21 1 1
0 0 0 0 0 0 0 0 0 0 0 0 0 0 64 718 504 731 933 1451 2538 2458 2385 2343 2378 2055 2470 1052 1148 717 781 683 687 709 820 943 674 843 630 277 552 445 355 157 56 0 10 0 4
0 0 0 0 0 0 0 0 0 0 0 0 0 0 0 0 605 804 1422 1422 2304 2527 2787 2755 3444 3918 3301 3343 1769 1396 1249 1116 1260 1234 1390 1167 1272 1277 1009 598 413 295 163 257 105 55 80 73 164
0 0 0 0 0 0 0 0 0 0 0 0 0 0 0 0 4 1000 1673 1977 2355 2702 3068 3020 3213 3773 2938 3001 3610 2386 2634 2035 1686 1577 1646 1708 1700 1874 1179 1075 765 412 266 268 612 262 273 303 233
0 0 0 0 0 0 0 0 0 0 0 0 0 0 0 0 0 879 1679 2497 2505 2854 3325 3603 3475 3429 3684 3532 3237 2615 2282 2216 1945 1799 2167 1982 2025 2041 1746 1262 1007 733 579 625 1087 1052 1665 1621 1650
0 0 0 0 0 0 0 0 0 0 0 0 0 0 0 0 0 135 1796 2576 3037 3020 3680 3823 3444 3664 3956 4199 3998 3152 3015 2519 2842 2087 2431 2079 2642 2377 2351 1629 1637 1355 2673 2009 1811 1658 1794 1447 1483
0 0 0 0 0 0 0 0 0 0 0 0 0 0 0 0 0 0 2396 2913 3137 3535 4256 4135 3873 3721 3846 3950 3951 3753 4184 2959 3247 3013 2221 2497 2297 1887 2188 2533 2188 1215 543 336 375 415 235 443 523
0 0 0 0 0 0 0 0 0 0 0 0 0 0 0 0 0 0 903 2461 2488 3277 4340 4905 4526 4538 3773 3759 3709 3196 2881 3017 3873 3854 2537 2348 2504 2035 2303 1382 1036 552 239 288 386 147 119 43 99
0 0 0 0 0 0 0 0 0 0 0 0 0 0 0 0 0 0 69 1392 2788 3389 4129 5283 4697 4921 4073 3754 3234 3291 3391 3209 2704 3123 3035 2722 2350 1920 1678 1139 583 330 277 145 65 9 22 53 91
0 0 0 0 0 0 0 0 0 0 0 0 0 0 0 0 0 0 0 404 1274 2665 3802 3940 4140 4645 4304 3502 3455 3665 3420 3481 3465 3134 2803 2072 1961 1757 1217 782 486 391 320 207 99 21 150 347 627
0 0 0 0 0 0 0 0 0 0 0 0 0 0 0 0 0 0 0 0 34 1341 2748 3596 3417 4326 3869 3941 3737 3807 3433 3351 2830 2824 1673 1666 1485 1332 1175 722 353 197 57 11 0 0 409 604 484
0 0 0 0 1 0 0 0 0 0 0 0 0 0 0 0 0 0 0 0 39 371 1611 2744 3395 3560 3602 3963 4019 3997 3518 2990 3259 2820 2267 1834 1367 846 749 502 205 7 0 81 141 454 739 360 439
3 12 8 0 8 14 9 0 0 0 0 0 0 0 0 0 0 0 0 0 0 75 862 2544 3380 2949 3373 3616 3865 3856 3150 3776 3332 2093 1539 916 450 207 391 650 746 751 558 601 444 224 69 153 99
81 28 36 50 38 152 12 0 0 0 0 0 0 0 0 0 0 0 0 0 0 0 795 2843 3083 2979 3236 3243 3398 3442 2973 2803 2081 1414 1177 716 675 472 438 645 433 368 259 117 76 173 0 0 0
101 142 0 9 46 8 10 2 0 0 0 0 0 0 0 0 0 0 0 0 7 889 2502 2134 2250 2400 3004 2813 2388 2205 1795 1515 1030 780 229 171 285 434 294 283 305 252 210 108 19 0 0 0 0
114 134 132 0 0 0 4 0 0 0 0 0 0 0 0 0 0 0 0 867 1422 1705 1559 1456 1337 1903 2420 1932 1863 1490 1021 755 531 194 25 2 39 154 82 131 111 99 40 1 0 0 0 0 0
64 230 180 160 110 143 7 2 0 0 0 0 0 0 0 0 0 45 1191 1244 940 1002 902 820 1243 1659 1977 1474 1175 557 289 141 82 47 14 6 0 5 75 80 57 49 7 0 0 0 0 4 7
80 155 244 189 142 81 58 34 0 0 0 0 0 0 0 0 570 816 744 630 574 963 1158 1193 1380 1359 964 573 320 91 55 30 20 2 0 2 4 0 16 40 52 9 0 0 1 0 1 3 4
255 234 190 159 73 142 52 206 3 25 0 0 0 284 657 747 536 408 518 781 1175 1115 1135 1149 720 614 439 202 59 32 1 0 0 0 0 0 0 1 11 13 2 0 0 1 4 8 2 7 18
305 86 337 362 205 136 74 113 41 46 6 31 1010 540 420 226 424 573 701 630 611 587 616 455 431 308 140 48 35 12 0 0 0 0 0 0 0 0 0 0 0 0 0 2 7 12 16 16 18

GFSSGP_con_mucape_132.txt.gz
CAPE
0 0 0 0 0 0 0 0 0 0 0 0 0 0 0 0 616 845 1156 1562 1480 1629 1702 1841 2612 2859 2779 2417 2016 1722 1672 1793 1826 1569 1360 1432 1518 1641 1759 1466 1621 1705 1692 1257 925 762 652 412 317
0 0 0 0 0 0 0 0 0 0 6 0 0 0 0 48 1251 606 1153 1989 1964 1976 1551 1618 2619 2786 2690 2345 1885 1702 1777 1904 1796 1610 1417 1438 1661 1640 1795 1511 1465 1485 1110 958 782 594 534 447 381
0 0 0 0 0 0 0 0 0 0 0 0 0 0 0 0 1653 1146 1126 2342 1977 2042 1764 2244 2658 2680 2583 2266 1918 1819 1865 1915 1800 1645 1408 1428 1680 1712 1789 1612 1368 1011 792 782 647 441 437 401 400
0 0 0 0 0 0 0 0 0 0 1 0 0 0 0 0 2063 1846 1218 2281 2104 1666 1610 2308 2537 2540 2454 2282 2037 1948 1986 1908 1767 1685 1461 1420 1631 1752 1871 1796 1453 1052 548 376 434 573 650 489 339
0 0 0 0 0 0 0 0 0 0 0 0 0 0 0 0 1857 1763 1357 2199 2069 1503 2177 2054 2478 2452 2080 2393 2224 2118 2003 1769 1713 1676 1510 1449 1623 1681 1821 1807 1465 1089 760 669 580 595 585 565 456
0 0 0 0 0 0 0 0 0 0 0 0 0 0 0 230 533 1333 1291 1879 1613 2023 1933 1701 2437 2388 2127 2335 2257 2104 1924 1792 1745 1610 1498 1494 1552 1620 1723 1805 1621 1334 932 880 724 679 591 558 477
0 0 0 0 0 0 0 0 0 0 0 0 0 0 0 2 282 1211 1597 1881 1486 2462 1540 1165 1645 2258 2320 2226 2132 2024 1861 1734 1621 1486 1459 1466 1546 1589 1618 1583 1582 1467 1086 1027 984 754 623 548 546
0 0 0 0 0 0 0 0 0 0 0 0 0 0 0 0 291 1336 1692 2001 1640 2235 1125 749 962 1400 1729 1796 2047 1916 1797 1671 1470 1422 1426 1450 1572 1580 1564 1333 1438 1355 1167 994 1016 812 682 606 566
0 0 0 0 0 0 0 0 0 0 0 0 0 0 0 29 333 1581 1939 2057 1783 2116 1320 587 293 511 312 700 1565 1704 1604 1523 1432 1431 1472 1083 316 798 946 578 1363 1580 1146 852 811 749 730 622 490
0 0 0 0 0 0 0 0 0 0 0 0 0 0 0 61 104 1287 2067 2216 1975 2101 1415 572 305 33 5 18 918 797 872 858 785 641 925 391 223 476 178 463 1594 1682 1265 924 821 696 626 353 4
0 0 0 0 0 0 0 0 0 0 0 0 0 0 0 0 1 86 1378 2134 2155 2068 1744 751 578 333 162 231 365 129 229 245 385 451 604 419 168 864 220 871 697 1039 971 539 597 355 126 0 0
0 0 0 0 0 0 0 0 0 0 0 0 0 0 0 0 0 69 344 1167 1939 1522 2024 1155 789 766 824 948 265 412 410 414 325 456 754 398 982 1930 714 647 758 944 739 495 356 34 6 1 13
0 0 0 0 0 0 0 0 0 0 0 0 0 0 0 10 103 277 469 666 1826 2074 2287 1314 1517 1278 1877 1233 819 800 916 792 722 862 1032 630 1126 2292 1912 1732 1364 695 659 885 711 348 120 149 129
0 0 0 0 0 0 0 0 0 0 0 0 0 0 0 0 21 383 662 590 2254 2285 1764 1362 1554 1656 2542 2324 1801 1916 1914 1396 1692 1420 1438 1554 2088 2460 2226 2287 2088 1452 1223 1155 1057 1182 1680 1430 1560
0 0 0 0 0 0 0 0 0 0 0 0 0 0 0 0 0 0 270 613 2311 1872 370 2061 2675 2992 3913 4449 3033 2184 2855 1753 2094 2829 2104 2103 2909 2620 1637 2141 1973 1895 1865 1992 1552 1420 1303 975 789
0 0 0 0 0 0 0 0 0 0 0 0 0 0 0 0 0 0 0 746 2146 1348 285 163 3211 3202 3917 4382 3984 3042 3249 2957 2166 2069 2357 2458 3111 3082 2611 1469 1313 1680 894 950 934 674 495 441 177
0 0 0 0 0 0 0 0 0 0 0 0 0 0 0 0 0 0 0 683 1680 1899 575 1968 3212 3232 3668 3966 4111 3982 3939 3153 3573 2571 1975 2294 2699 2771 2553 2172 1564 769 722 662 583 575 479 323 201
0 0 0 0 0 0 0 0 0 0 0 0 0 0 0 0 0 0 0 745 2237 1457 217 13 2642 3017 3764 3690 4053 3399 3605 3817 3163 2617 2496 3041 2373 2753 2814 1969 1203 902 703 556 448 305 187 115 48
0 0 0 0 0 0 0 0 0 0 0 0 0 0 0 0 0 0 0 1467 1983 1264 782 385 1520 3462 3315 3661 3772 3675 3425 3375 3322 3320 3161 3045 2944 2843 1756 1440 1194 830 592 373 312 229 208 167 23
0 0 0 0 0 0 0 0 0 0 0 0 0 0 0 0 0 0 0 993 1786 1006 0 0 196 2790 3625 3785 3860 3279 3550 3226 3077 3076 2908 2635 2446 2202 1855 1078 846 685 542 406 352 293 227 157 0
0 0 0 0 0 0 1 0 0 0 0 0 0 0 0 0 0 0 0 13 1105 1522 271 1274 2371 3508 4247 3640 3315 4330 3906 2957 2698 2731 2463 2331 1963 1629 1332 1102 521 392 416 138 29 37 314 754 748
0 0 0 0 0 0 4 10 0 0 0 0 0 0 0 0 0 0 0 0 837 2768 3086 3407 3753 4733 3878 3657 3468 4013 3228 2719 2652 2166 2238 1681 1503 1070 1128 983 761 751 297 79 51 488 801 761 605
4 0 0 0 0 0 0 57 0 0 0 0 0 0 0 0 0 0 0 0 311 1418 2801 3214 3626 4030 3364 3532 4074 3925 3187 2713 2246 1595 1291 964 1098 615 639 781 780 852 1044 1033 672 531 489 492 147
20 22 9 11 7 22 0 38 11 1 0 0 0 0 0 0 0 0 0 0 65 859 2514 3552 3351 2537 3495 3817 3995 3695 2690 2055 1660 1329 1106 791 354 310 307 570 767 523 576 453 248 223 127 93 50
49 25 0 0 1 0 7 1 5 0 0 0 0 0 0 0 0 0 0 0 0 501 2300 3402 2815 2706 3172 3749 3730 3776 2583 1820 1371 1140 690 369 180 75 66 105 185 241 149 133 113 57 0 0 0
162 105 70 0 0 1 11 40 0 0 0 0 0 0 0 0 0 0 0 0 0 1432 2857 2971 2695 1868 2306 2708 2850 2586 2191 1856 1254 864 347 212 183 70 41 44 56 52 23 48 39 11 0 2 0
126 113 68 165 101 101 34 19 2 0 0 3 0 0 0 0 0 0 0 0 1999 1927 2271 2024 1787 2239 2023 1771 2184 1834 1544 1309 834 353 131 51 18 1 2 1 19 41 30 25 25 0 1 13 12
143 121 133 410 301 0 43 183 10 0 9 29 5 0 0 0 0 126 1942 1571 1280 1840 1603 1566 1374 1611 1503 1831 1652 1244 936 493 189 63 13 13 0 0 0 24 19 24 27 30 4 0 2 3 9
45 164 135 198 135 0 68 41 18 7 0 35 87 2 0 0 1344 1456 1159 976 1231 1118 1430 1464 856 1355 1586 1297 826 410 139 31 0 0 0 0 0 0 0 0 0 0 0 6 4 6 0 19 15
64 213 187 245 70 1 21 29 185 23 165 141 384 995 1266 1188 1043 682 723 913 1188 1050 1228 1138 1074 957 815 508 196 22 0 4 0 0 0 0 0 0 0 0 0 0 0 0 0 3 3 8 12

GFSSGP_con_mucape_135.txt.gz
CAPE
0 0 0 0 0 0 0 0 0 0 0 0 0 0 474 1019 995 371 190 1096 1602 1592 2277 2621 2794 2606 2373 2115 1832 1614 1617 1596 1369 1304 1305 1391 1440 1432 1296 1505 1690 1771 1566 975 838 758 473 322 268
0 0 0 0 0 0 0 0 0 0 0 0 0 0 0 672 1061 738 448 1146 1352 1550 1865 2365 2783 2509 2351 2016 1715 1578 1725 1630 1293 1239 1311 1411 1305 1396 1333 1513 1597 1638 1059 872 667 531 434 319 315
0 0 0 0 0 0 0 0 0 0 0 0 0 0 9 1001 701 528 193 1697 1524 1125 1511 2367 2716 2432 2260 1938 1680 1611 1745 1592 1315 1240 1322 1408 1302 1398 1266 1363 1422 1353 886 745 568 453 402 345 361
0 0 0 0 0 0 0 0 0 0 0 0 0 0 942 1274 972 1020 1832 1816 1347 1259 1876 2469 2469 2304 2107 1890 1712 1719 1775 1620 1364 1235 1286 1445 1399 1440 1325 1306 1127 1137 816 633 463 502 550 391 286
0 0 0 0 0 0 0 0 0 0 0 0 0 0 1444 1267 1706 1986 1914 1658 1171 1617 1843 2264 2352 2227 2101 2011 1846 1797 1772 1539 1371 1266 1274 1428 1432 1492 1536 1429 1277 999 848 562 375 508 556 476 328
0 0 0 0 0 0 0 0 0 0 0 0 0 0 1195 1376 1727 1887 1900 1732 1232 1642 1666 1975 2321 2195 2053 1977 1896 1781 1645 1558 1453 1278 1233 1315 1367 1457 1599 1490 1302 1023 873 837 644 613 501 394 288
0 0 0 0 0 0 0 0 0 0 0 0 0 0 967 1124 1297 1841 1931 1698 1725 1545 1356 1780 2008 1800 1701 1986 1863 1758 1586 1498 1376 1226 1184 1248 1277 1364 1510 1494 1409 1143 856 881 771 661 523 406 345
0 0 0 0 0 0 0 0 0 0 0 0 0 0 12 1006 1093 1607 1611 1512 1679 1476 1105 1673 1799 1462 1682 1877 1953 1775 1649 1545 1343 1283 1261 1226 1324 1391 1392 1062 1245 1208 882 880 832 629 499 409 343
0 0 0 0 0 0 0 0 0 0 0 0 0 0 0 801 1085 1569 1612 1588 1952 1789 1087 1118 1616 1719 1755 1666 1764 1771 1730 1567 1375 1356 1303 1071 860 871 1033 712 1126 1104 887 742 688 613 550 534 485
0 0 0 0 0 0 0 0 0 0 0 0 0 0 168 889 1208 1452 1668 1667 2006 1980 1564 568 1058 1329 1227 1401 1609 1409 1355 1238 1056 990 928 542 300 372 585 454 1188 1276 1079 857 722 621 602 596 74
0 0 0 0 0 0 0 0 0 0 0 0 0 0 39 340 1086 1378 1627 1734 1850 1798 1806 437 505 516 566 902 1090 1071 1126 992 832 749 574 187 77 361 361 254 909 914 1133 628 702 574 392 63 14
0 0 0 0 0 0 0 0 0 0 0 0 0 0 0 0 14 355 1172 1797 1742 1580 1680 1589 245 55 95 387 361 471 501 504 437 452 318 134 66 240 107 353 529 658 609 317 226 187 134 15 1
0 0 0 0 0 0 0 0 0 0 0 0 0 0 0 0 0 0 0 929 1671 1059 346 377 450 31 292 91 80 187 232 233 279 296 265 36 120 492 196 323 397 696 657 394 250 298 126 39 108
0 0 0 0 0 0 0 0 0 0 0 0 0 0 0 0 0 0 63 210 1723 1372 860 507 516 662 943 357 359 450 316 341 297 383 385 157 259 583 762 507 827 956 774 676 912 682 514 589 532
0 0 0 0 0 0 0 0 0 0 0 0 0 0 0 0 2 12 216 1948 1700 1433 1151 702 499 352 940 1101 645 781 611 725 753 854 943 729 633 1480 1410 1080 1020 975 898 826 787 704 532 602 565
0 0 0 0 0 0 0 0 0 0 0 0 0 0 0 0 0 0 163 1954 1886 1447 1123 927 668 215 411 2096 1209 810 1635 1095 1359 1179 1309 1305 1439 1836 1129 1020 956 939 741 604 540 454 369 428 341
0 0 0 0 0 0 0 0 0 0 0 0 0 0 0 0 0 0 0 1069 1734 1367 919 1184 1030 842 1490 2707 2719 2272 2554 1660 1990 2195 1819 1817 2110 1662 1221 1038 903 851 721 645 630 646 593 461 182
0 0 0 0 0 0 0 0 0 0 0 0 0 0 0 0 0 0 824 626 1253 986 869 1274 824 1268 2112 2410 2294 2765 2941 2561 2300 2224 2090 2415 2107 1736 1392 1212 955 860 680 566 518 438 396 278 150
0 0 0 0 0 0 0 0 0 0 0 0 0 0 0 0 0 0 2027 795 931 1422 1178 841 1399 1234 1927 2273 1913 2005 2258 2101 2235 2265 2024 2084 1870 1760 1517 1115 951 686 491 469 382 306 212 170 150
0 0 0 0 0 0 0 0 0 0 0 0 0 0 0 0 0 0 1654 1439 1242 1178 1176 885 1614 1174 121 1106 2370 2496 2509 2207 2338 2278 2126 1978 1759 1512 1388 1110 724 491 407 263 272 219 157 30 0
0 0 0 0 0 0 0 0 0 0 0 0 0 0 0 0 0 0 1092 1846 1773 1388 973 863 584 116 17 453 1868 2413 2452 2468 2407 2228 2081 1773 1561 1434 1141 631 394 202 97 29 14 0 6 67 42
0 0 0 0 0 0 0 0 0 0 0 0 0 0 0 0 0 0 4 1747 1678 1210 1174 805 436 338 1239 2035 2194 2461 2312 2424 2419 2161 1938 1623 1349 992 610 489 231 5 2 4 0 4 184 137 49
0 0 0 0 0 0 0 0 0 0 0 0 0 0 0 0 0 0 0 1376 1413 1199 1225 469 40 98 1820 2061 2510 2753 2671 2477 2254 2030 1671 1312 950 685 507 128 20 17 3 44 99 110 32 35 0
1 17 4 0 0 0 0 0 0 0 0 0 0 0 0 0 0 0 0 934 1422 1925 1344 753 958 1032 1946 2105 2552 2514 2559 2396 1915 1711 1402 985 777 457 138 90 87 233 243 168 109 49 18 35 0
17 13 0 0 0 0 0 0 0 0 0 0 0 0 0 0 0 0 0 2055 2648 2207 1599 1282 1835 2106 2420 2508 2743 2384 2361 2031 1817 1524 1112 797 641 112 298 293 313 174 51 47 63 70 36 2 0
85 47 0 0 0 0 0 0 0 0 0 0 0 0 0 0 0 0 0 1424 2830 2435 2235 2223 2438 2451 2631 2761 2560 2551 2413 1965 1569 1324 1101 459 75 23 21 23 17 9 27 42 52 48 22 2 0
72 9 12 11 3 0 0 0 0 0 0 0 0 0 0 0 0 0 0 250 2906 2626 2373 2432 2600 2568 2662 2581 2468 2262 2092 1655 1298 1040 632 156 28 0 0 0 0 0 17 34 21 23 23 7 0
11 35 35 80 0 0 19 0 0 0 0 0 0 0 0 0 0 0 967 2229 2672 2575 2472 2386 2178 2134 2299 2168 1782 1870 2067 1422 1096 783 150 71 4 0 0 0 0 0 6 1 23 2 0 0 0
15 9 65 17 24 88 0 14 5 0 0 0 0 0 0 65 1388 1409 1572 2060 2320 2397 2298 2085 1609 1521 1429 1770 1657 1525 1366 967 541 194 34 0 0 0 0 0 0 0 0 0 0 0 0 0 0
0 0 1 40 0 24 12 0 6 47 3 0 19 136 366 1291 1176 1150 1423 1826 1941 1852 1695 1249 1001 788 738 1307 1481 932 607 250 50 1 0 0 0 0 0 0 0 0 0 0 0 0 0 0 0

GFSSGP_con_mucape_138.txt.gz
CAPE
0 0 0 0 0 0 0 0 0 0 0 0 0 18 142 69 34 8 233 718 1032 1697 2226 2633 2464 2450 2324 2053 1797 1685 1512 1348 1282 1243 1442 1337 1027 1121 1317 1462 1588 1735 1250 1057 786 461 222 95 84
0 0 0 0 0 0 0 0 0 0 0 0 0 345 650 890 929 442 3 776 1167 1576 2147 2400 2509 2413 2271 1990 1720 1669 1580 1369 1318 1276 1441 1455 1120 1209 1434 1738 1862 1611 943 751 569 429 272 146 185
0 0 0 0 0 0 0 0 0 0 0 0 0 195 795 594 917 74 227 1254 1318 1504 1876 2372 2569 2378 2264 1973 1743 1713 1602 1339 1341 1333 1424 1422 1230 1246 1451 1616 1680 1270 908 700 535 414 298 242 327
0 0 0 0 0 0 0 0 0 0 0 0 0 1190 1304 728 134 116 1165 1154 1088 1277 1552 2608 2495 2333 2154 1965 1784 1818 1629 1349 1389 1370 1441 1402 1393 1250 1329 1462 1465 1261 793 619 448 356 290 263 260
0 0 0 0 0 0 0 0 0 0 0 0 0 303 1005 626 409 1278 1313 1122 755 1269 1854 2451 2483 2285 2118 1957 1845 1857 1662 1356 1340 1417 1465 1417 1457 1314 1347 1247 1228 1196 696 539 424 358 402 347 165
0 0 0 0 0 0 0 0 0 0 0 0 78 1482 1350 1299 1416 1425 1323 984 984 1335 1918 2388 2543 2193 1999 1877 1849 1819 1650 1476 1378 1347 1457 1492 1523 1517 1454 1382 1256 1084 947 580 427 388 366 312 212
0 0 0 0 0 0 0 0 0 0 0 0 0 1230 1327 1670 1573 1574 1258 1250 1290 1451 1717 2099 2083 2130 2038 1815 1786 1781 1634 1499 1334 1231 1314 1432 1515 1552 1539 1338 1239 1041 981 947 797 622 493 333 230
0 0 0 0 0 0 0 0 0 0 0 0 0 444 1283 1733 1727 1643 1559 1476 1476 1337 1526 1525 1775 2333 1671 1684 1886 1723 1602 1505 1280 1253 1286 1328 1467 1537 1511 1120 1246 1104 985 985 832 679 543 433 319
0 0 0 0 0 0 0 0 0 0 0 0 0 9 1087 1713 1788 1790 1789 1744 1374 1118 1368 1282 1293 1020 2259 1482 1604 1669 1645 1522 1359 1340 1270 1027 846 946 1119 902 1278 1232 1027 979 933 774 655 615 543
0 0 0 0 0 0 0 0 0 0 0 0 0 0 801 1651 1836 1900 1895 1775 1337 1077 1288 1188 1006 854 2069 1529 1724 1279 1170 1197 1054 936 856 571 591 584 643 697 1214 1218 1122 999 949 836 755 722 163
0 0 0 0 0 0 0 0 0 0 0 0 0 59 574 1547 1911 1813 1934 1956 1634 1360 1014 1209 1185 1688 1384 1307 1857 1547 1249 996 886 759 581 344 260 459 587 308 899 833 1037 571 705 526 397 178 84
0 0 0 0 0 0 0 0 0 0 0 0 0 30 1015 1344 1890 1777 1851 1953 1870 1716 1611 1134 882 1052 1085 1077 1228 1128 951 868 740 624 407 150 76 275 391 304 473 772 827 441 366 262 207 127 8
0 0 0 0 0 0 0 0 0 0 0 0 0 0 649 1134 1626 1878 1810 1871 1847 2075 1824 693 535 591 593 713 699 745 639 647 504 433 323 188 95 201 254 287 389 539 468 517 291 266 262 141 92
0 0 0 0 0 0 0 0 0 0 0 0 0 0 0 0 876 1675 1790 1839 1758 1768 1650 680 214 244 306 227 269 303 232 226 242 302 300 99 117 235 323 363 424 638 616 653 514 604 534 485 419
0 0 0 0 0 0 0 0 0 0 0 0 0 0 0 0 0 11 1373 1555 1746 1740 1695 918 597 290 230 223 260 424 348 181 171 251 523 189 197 571 800 540 725 880 898 932 847 727 479 495 557
0 0 0 0 0 0 0 0 0 0 0 0 0 0 0 0 0 975 1540 1237 1472 1619 1479 1240 726 655 446 408 164 586 396 748 678 792 884 626 605 964 1457 1040 944 968 869 889 915 696 515 558 545
0 0 0 0 0 0 0 0 0 0 0 0 0 0 0 0 0 1638 1986 1713 1502 1610 1422 929 633 474 827 1287 434 782 588 868 1046 947 1146 1239 1328 1313 1571 1148 1001 889 769 686 627 504 420 482 428
0 0 0 0 0 0 0 0 0 0 0 0 0 0 0 0 0 598 1737 1732 1659 1549 1255 1074 839 678 804 2047 1247 1431 1708 1571 1658 1465 1678 1556 1503 1600 1423 1112 876 799 695 577 498 441 415 311 207
0 0 0 0 0 0 0 0 0 0 0 0 0 0 0 0 0 241 1584 1465 1599 1618 1369 1134 960 498 578 2483 1908 1866 2030 1732 1916 2186 1909 1839 1778 1745 1578 1164 992 796 718 485 396 278 216 177 93
0 0 0 0 0 0 0 0 0 0 0 0 0 0 0 0 1 302 771 1324 1580 1576 1445 1175 854 1036 1689 2441 2263 1767 1527 1746 1926 2009 1943 1959 1934 1668 1403 1243 870 763 466 277 229 156 110 55 0
0 0 0 0 0 0 0 0 0 0 0 0 0 0 0 0 0 791 133 1160 1482 1432 1243 888 906 1628 2128 2283 1884 1624 1466 1814 1776 1716 1792 1741 1523 1454 1286 1055 876 512 231 131 70 20 2 0 0
0 0 0 0 0 0 0 0 0 0 0 0 0 0 0 0 0 969 286 502 1111 851 843 1237 1747 1488 1876 2173 1863 1668 1692 1780 1952 1909 1717 1680 1455 1361 1176 910 423 250 15 0 0 18 72 31 19
0 0 0 0 0 0 0 0 0 0 0 0 0 0 0 0 0 1245 745 402 434 639 1058 1301 1248 933 625 396 592 1484 1649 1985 2067 1941 1834 1725 1535 1081 643 411 326 16 0 0 2 80 51 32 27
5 35 6 0 0 0 0 0 0 0 0 0 0 0 0 0 0 730 1255 615 685 1133 1288 1387 1673 949 839 20 760 1571 1852 1980 2046 2126 1854 1599 1103 777 512 269 14 0 0 8 48 73 47 51 34
29 24 0 0 0 0 0 0 0 0 0 0 0 0 0 0 0 0 918 782 724 1426 1625 1258 531 399 1615 1758 1786 1859 1924 1995 2199 1980 1865 1348 968 616 286 0 48 30 50 36 41 59 87 49 37
0 11 0 0 0 0 0 0 0 0 0 0 0 0 0 0 0 0 683 774 1016 1861 1457 1085 143 869 1942 2232 2003 1995 2196 2147 2220 2073 1685 1335 776 545 109 90 137 73 13 10 5 28 40 23 11
0 0 0 0 0 0 0 0 0 0 0 0 0 0 0 0 0 0 326 616 947 1423 1573 254 1101 1786 2149 2040 1880 2325 2244 2048 2095 1739 1429 944 522 78 69 3 0 0 0 0 5 1 0 1 4
4 7 9 19 0 0 0 0 0 0 0 0 0 0 0 0 0 0 1191 816 859 1578 1176 1824 1960 2099 2238 1880 1958 2235 2451 1989 1898 1562 1253 558 129 23 8 0 0 0 0 0 0 0 0 0 0
10 8 11 2 16 0 0 0 0 0 0 0 0 0 0 0 0 349 2174 2121 1324 1818 2032 2131 2308 2293 2432 2084 2087 2059 2120 1772 1872 1289 766 252 58 16 0 0 0 0 0 0 0 0 0 0 0
0 0 6 0 0 0 0 0 0 0 0 0 0 0 0 0 235 1860 2382 2130 1911 1635 1873 2298 2299 2438 2313 2306 1871 1908 1856 1575 1369 933 247 79 5 0 0 0 0 0 0 0 0 0 0 0 0

GFSSGP_con_mucape_141.txt.gz
CAPE
0 0 0 0 0 0 0 0 0 0 0 0 0 1 0 0 50 14 80 586 1306 1774 2219 2399 2557 2531 2247 1947 1687 1442 1285 1185 1142 930 942 1014 1045 1151 1405 1591 1732 1674 1146 946 602 337 199 147 154
0 0 0 0 0 0 0 0 0 0 0 0 0 0 160 195 638 153 646 763 1300 1829 2156 2205 2564 2533 2269 1944 1628 1408 1305 1191 1236 1122 951 1029 1118 1281 1421 1694 1747 1276 1005 847 642 447 221 137 203
0 0 0 0 0 0 0 0 0 0 0 0 0 0 393 492 826 349 342 963 1474 1885 2060 2229 2496 2446 2189 1779 1659 1480 1375 1230 1342 1473 1066 981 1157 1467 1700 1795 1661 1082 807 672 564 378 310 248 356
0 0 0 0 0 0 0 0 0 0 0 0 0 0 769 883 449 128 1315 1270 1478 1944 2068 2469 2395 2313 2110 1883 1763 1530 1362 1313 1362 1481 1237 996 1034 1387 1545 1620 1544 1094 835 665 553 403 289 219 291
0 0 0 0 0 0 0 0 0 0 0 0 0 0 637 716 650 1083 1377 1237 1179 1684 2303 2317 2358 2216 2067 1905 1748 1625 1410 1304 1337 1454 1315 992 1152 1350 1438 1490 1330 1018 873 648 467 340 296 165 111
0 0 0 0 0 0 0 0 0 0 0 0 0 125 989 1203 1073 1131 1234 1003 1062 1526 2244 2339 2366 2114 1947 1930 1861 1611 1352 1333 1363 1455 1474 1309 1278 1323 1311 1339 1251 1000 731 501 381 326 275 214 115
0 0 0 0 0 0 0 0 0 0 0 0 0 888 1143 1546 1137 1298 1086 861 972 1733 1952 2043 1985 2036 1996 1841 1796 1608 1335 1294 1321 1352 1391 1453 1448 1461 1447 1340 1167 1090 1008 803 502 336 258 226 121
0 0 0 0 0 0 0 0 0 0 0 0 0 20 200 1553 1483 1361 1174 1020 1354 1658 1652 1466 1298 1616 1518 1595 1872 1650 1446 1297 1190 1306 1353 1405 1512 1509 1412 1021 1103 1113 1112 959 815 613 509 381 245
0 0 0 0 0 0 0 0 0 0 0 0 0 0 471 1640 1568 1363 1336 1303 1188 1410 1414 1310 1795 1475 1343 1407 1379 1581 1404 1277 1242 1248 1278 1137 985 1107 1133 941 1326 1268 1204 1194 1027 884 707 583 410
0 0 0 0 0 0 0 0 0 0 0 0 0 0 1121 1748 1497 1336 1359 1347 1101 1113 1183 1107 1031 981 947 1592 1658 1163 968 998 874 800 766 578 602 609 830 849 1359 1338 1199 1129 1081 949 780 502 191
0 0 0 0 0 0 0 0 0 0 0 0 0 0 1818 1809 1573 1452 1589 1489 1106 946 979 891 930 685 922 1585 1124 984 615 811 766 654 483 311 340 503 777 473 725 768 908 491 611 404 350 202 67
0 0 0 0 0 0 0 0 0 0 0 0 0 0 0 1870 1753 1720 1736 1560 1205 1039 971 747 630 851 1110 1007 985 724 611 879 635 605 407 203 186 261 380 215 193 660 612 507 313 309 243 198 37
0 0 0 0 0 0 0 0 0 0 0 0 0 0 0 1929 1926 1851 1806 1639 1219 1049 922 759 977 1173 1095 806 857 754 880 594 616 556 351 167 95 123 148 254 259 471 598 611 381 234 231 197 75
0 0 0 0 0 0 0 0 0 0 0 0 0 0 0 1888 1977 1854 1944 1720 1342 958 974 895 748 869 956 733 782 645 504 545 578 488 319 176 75 108 205 160 267 431 522 515 464 320 445 415 363
0 0 0 0 0 0 0 0 0 0 0 0 0 0 0 1144 1843 1717 1944 1942 1764 1612 1617 1401 448 609 648 433 430 405 287 340 345 237 246 142 73 124 246 338 304 400 600 667 732 607 588 513 528
0 0 0 0 0 0 0 0 0 0 0 0 0 0 0 0 1415 1847 1914 2152 1912 2004 2038 1411 930 361 306 168 215 220 142 129 71 97 251 262 70 356 454 712 631 614 890 929 930 832 657 507 462
0 0 0 0 0 0 0 0 0 0 0 0 0 0 0 0 10 1608 2034 2127 2188 2109 2103 1754 1283 398 654 422 131 238 346 87 334 353 660 576 419 535 833 1186 1232 916 808 845 896 790 640 547 400
0 0 0 0 0 0 0 0 0 0 0 0 0 0 0 0 24 1070 1570 1952 2028 2009 1808 1719 1557 1152 912 372 340 272 389 594 665 706 955 1024 913 793 985 1369 1241 1071 811 712 663 544 446 339 280
0 0 0 0 0 0 0 0 0 0 0 0 0 0 0 0 0 1524 1351 1533 1578 1796 1625 1718 1302 955 705 930 442 411 675 727 909 850 1228 1455 1353 1188 1210 1437 1207 718 653 591 522 351 232 153 71
0 0 0 0 0 0 0 0 0 0 0 0 0 0 0 0 0 1207 1583 1328 1429 1679 1697 1559 1360 901 556 1638 1112 749 1320 1123 1282 1507 1180 1515 1494 1441 1365 1388 1179 925 561 513 299 161 88 33 0
0 0 0 0 0 0 0 0 0 0 0 0 0 0 0 0 0 705 1260 1529 1380 1575 1683 1776 1203 917 694 1726 1722 1338 1479 1718 1503 1777 1892 1839 1475 1570 1637 1341 1185 914 582 346 152 32 0 0 0
0 0 0 0 0 0 0 0 0 0 0 0 0 0 0 0 0 201 909 1207 1597 1712 1894 1645 1289 1145 768 1476 2114 1909 1554 1804 1711 1609 1734 1745 1824 1640 1361 1333 1015 610 340 189 0 0 0 0 0
0 0 0 0 0 0 0 0 0 0 0 0 0 0 0 0 4 11 656 1030 1478 1935 1675 1528 1445 1263 962 1404 2204 1763 1771 1653 1386 1409 1500 1618 1572 1436 1335 1000 473 307 197 0 0 0 0 0 0
0 29 0 0 0 0 0 0 0 0 0 0 0 0 0 0 1 86 231 704 1042 1664 1617 1656 1552 1163 994 1452 2312 1567 1541 1669 1249 1365 1343 1421 1423 1299 916 437 305 101 0 0 0 0 2 4 8
48 39 0 0 0 0 0 0 0 0 0 0 0 0 0 0 0 254 145 350 699 1253 1602 1668 1602 957 1081 1558 2174 1766 1688 1396 1329 1343 1368 1438 1380 1022 571 285 41 0 0 0 0 3 13 19 18
29 31 0 0 0 0 0 0 0 0 0 0 0 0 0 0 0 49 374 212 514 1016 1324 1536 761 1181 1377 1821 1702 1554 1569 1338 1082 1149 1548 1353 1237 839 381 104 0 2 2 0 0 0 0 1 3
3 0 0 0 0 0 0 0 0 0 0 0 0 0 0 0 0 0 796 279 296 764 1045 900 1064 1368 1205 810 1028 1660 1596 1103 1224 1512 1408 1340 1023 626 368 1 317 0 0 0 0 0 0 0 0
0 7 0 20 0 0 0 0 0 0 0 0 0 0 0 0 0 0 599 534 335 336 599 829 1349 1388 1437 1354 1029 1516 1255 1214 1513 1399 1231 1016 792 454 88 1 0 0 0 0 0 0 0 0 0
14 0 7 0 0 0 0 0 0 0 0 0 0 0 0 0 0 0 174 529 403 325 523 1126 1481 1473 1791 2162 1942 1436 1502 1793 1587 1269 1121 900 629 228 26 2 0 0 0 0 0 0 0 0 0
0 2 4 16 0 0 0 0 0 0 0 0 0 0 0 0 0 0 230 485 348 362 869 1664 1368 1160 1671 1932 1628 1471 1590 1394 1414 1195 1240 778 408 137 44 0 0 0 0 0 0 0 0 0 0

GFSSGP_con_mucape_144.txt.gz
CAPE
0 0 0 0 0 0 0 0 0 0 0 0 0 0 0 0 186 22 174 421 1179 1686 2104 2350 2452 2241 1956 1788 1630 1459 1388 1356 1223 1142 1060 1052 1085 1216 1383 1526 1584 1517 1053 793 490 322 235 217 354
0 0 0 0 0 0 0 0 0 0 0 0 0 0 1 120 324 276 529 1172 1329 1868 2029 2175 2485 2231 1929 1756 1533 1334 1253 1124 1030 976 1006 1073 1158 1330 1488 1648 1700 1362 930 699 540 323 157 149 190
0 0 0 0 0 0 0 0 0 0 0 0 0 0 0 326 580 254 342 1276 1668 1871 1941 2116 2469 2246 1962 1706 1451 1312 1220 964 877 930 1012 1128 1236 1381 1574 1709 1526 1038 817 706 591 402 226 288 302
0 0 0 0 0 0 0 0 0 0 0 0 0 0 0 960 707 296 1117 1497 1732 1819 1909 2128 2208 2173 1894 1713 1535 1294 1251 1238 938 974 1013 1215 1423 1574 1619 1617 1412 1108 735 644 486 349 310 357 357
0 0 0 0 0 0 0 0 0 0 0 0 0 0 0 232 620 894 1337 1472 1649 1777 2029 2065 2338 2151 1934 1762 1548 1307 1246 1316 1219 985 1016 1047 1323 1480 1535 1538 1392 970 775 668 484 332 327 219 216
0 0 0 0 0 0 0 0 0 0 0 0 0 0 51 1037 1085 1158 1225 1304 1587 1758 1968 2090 2264 2099 1898 1779 1509 1316 1241 1361 1414 1196 1020 1072 1291 1387 1417 1410 1333 1166 894 625 420 311 244 261 238
0 0 0 0 0 0 0 0 0 0 0 0 0 0 210 1324 947 1271 1126 1126 1489 1896 1772 2001 1941 1903 1941 1723 1443 1333 1283 1324 1363 1291 1138 1196 1264 1237 1219 1225 1205 1132 975 747 483 274 196 189 124
0 0 0 0 0 0 0 0 0 0 0 0 0 0 0 1084 1094 1217 1084 1043 1736 1793 1551 1721 1918 1611 1491 1474 1621 1434 1395 1323 1297 1317 1303 1240 1278 1247 1220 858 964 1017 924 748 602 366 260 210 169
0 0 0 0 0 0 0 0 0 0 0 0 0 0 0 1108 1026 975 1082 1269 1526 1611 1420 2021 1359 1340 1176 1286 1252 1397 1237 1224 1289 1308 1319 1091 818 929 922 774 956 985 923 842 675 525 386 300 225
0 0 0 0 0 0 0 0 0 0 0 0 0 0 750 1082 999 988 1102 1088 1157 1135 1235 1073 997 1654 1125 944 1037 881 777 763 695 715 855 661 612 653 752 799 1121 1105 910 829 793 662 492 283 51
0 0 0 0 0 0 0 0 0 0 0 0 0 0 1389 1247 1048 1086 1091 973 1003 918 1342 990 1505 1148 868 805 852 753 669 533 506 493 415 328 310 486 657 440 604 615 767 331 393 221 199 117 15
0 0 0 0 0 0 0 0 0 0 0 0 0 0 0 1537 1248 1211 1072 916 953 978 1296 848 1003 704 790 746 636 515 332 307 370 404 245 137 127 165 279 166 98 323 339 334 206 204 152 110 24
0 0 0 0 0 0 0 0 0 0 0 0 0 0 0 0 1476 1238 1153 985 906 1088 1156 947 728 673 739 644 554 487 316 318 369 359 231 92 70 60 82 100 74 182 393 384 337 219 128 116 105
0 0 0 0 0 0 0 0 0 0 0 0 0 0 0 0 345 1456 1318 1285 1099 996 1045 833 743 836 729 659 552 452 352 374 419 397 233 88 21 14 23 24 85 204 351 398 376 346 264 386 334
0 0 0 0 0 0 0 0 0 0 0 0 0 0 0 0 1330 1653 1602 1580 1430 1097 812 712 669 991 784 660 614 484 534 463 393 402 307 108 17 9 30 80 113 241 323 411 458 522 564 538 386
0 0 0 0 0 0 0 0 0 0 0 0 0 0 0 0 1546 1863 1808 1784 1689 1338 869 777 791 1088 735 643 604 439 420 345 305 307 262 159 45 32 166 229 313 350 400 600 736 790 712 559 403
0 0 0 0 0 0 0 0 0 0 0 0 0 0 0 0 44 1855 1807 1979 2139 1625 931 1197 986 728 728 501 428 297 264 238 199 169 155 141 42 89 242 367 620 902 759 846 840 772 606 515 456
0 0 0 0 0 0 0 0 0 0 0 0 0 0 0 0 0 400 1911 1925 2225 1880 1411 1322 1344 763 624 360 468 272 199 107 119 72 128 129 122 247 474 694 783 1212 984 869 732 732 613 441 288
0 0 0 0 0 0 0 0 0 0 0 0 0 0 0 0 0 0 1183 1792 2000 2135 1759 1683 1687 1303 583 456 617 403 164 194 196 216 575 548 523 597 619 714 1202 1252 1112 699 635 552 401 264 117
14 0 0 0 0 0 0 0 0 0 0 0 0 0 0 0 0 894 1064 1462 1841 2132 2135 2002 1821 1443 1053 752 708 438 419 247 521 627 739 783 918 762 835 1005 1375 1320 972 711 518 325 173 104 7
0 0 0 0 0 0 0 0 0 0 0 0 0 0 0 0 0 990 1246 1266 1675 2126 2204 2311 2145 1614 1489 1060 657 774 816 789 938 942 861 784 943 894 839 1128 1404 1241 991 654 319 166 43 0 0
0 0 0 0 0 0 0 0 0 0 0 0 0 0 0 0 0 700 1329 1373 1362 1642 2115 2310 2115 1715 1446 1231 756 852 910 1047 1074 925 934 1072 998 909 991 1111 1242 1158 711 311 175 1 0 0 0
0 1 0 0 0 0 0 0 0 0 0 0 0 0 0 0 0 477 1040 1309 1429 1540 1748 2036 1841 1752 1497 1577 1094 965 955 1268 1303 1295 1084 1129 762 859 1044 1082 1097 663 249 187 17 0 0 0 0
0 18 0 0 0 0 0 0 0 0 0 0 0 0 0 0 0 134 702 938 1154 1336 1366 1697 1711 1543 1575 1339 1539 1312 1216 1169 1290 1236 921 670 765 876 1122 1003 504 198 82 5 0 0 0 0 0
30 49 0 0 0 0 0 0 0 0 0 0 0 0 0 0 0 0 299 764 943 1196 1176 1461 1720 1668 1437 1092 1591 1807 1651 1413 1065 941 746 604 761 923 948 463 139 18 0 0 0 0 0 0 0
0 0 0 0 0 0 0 0 0 0 0 0 0 0 0 0 0 0 0 477 838 1130 1278 1357 1679 1899 1216 1275 1240 1544 1894 1707 1257 667 467 532 654 874 608 138 32 0 0 0 0 0 0 0 0
0 2 1 0 0 0 0 0 0 0 0 0 0 0 0 0 0 0 0 56 524 1022 1357 1513 1741 1515 1334 1413 1324 1768 2043 1458 1014 405 386 472 591 701 498 142 17 0 0 0 0 0 0 0 0
1 0 0 0 0 0 0 0 0 0 0 0 0 0 0 0 0 0 0 29 296 690 1153 1649 1642 1438 1515 1434 1358 1940 1908 1106 493 314 337 297 215 572 367 72 0 0 0 0 0 0 0 0 0
27 10 54 0 0 0 0 0 0 0 0 0 0 0 0 0 0 0 0 201 153 430 723 1172 1491 1454 1482 1219 1346 1472 1287 644 314 134 75 241 352 499 205 15 0 0 0 0 0 0 0 0 0
0 0 0 0 0 0 0 0 0 0 0 0 0 0 0 0 0 0 0 420 231 307 446 776 1341 1436 1424 1099 1281 949 786 636 339 246 209 317 419 309 128 9 0 0 0 0 0 0 0 0 0